<?xml version="1.0" encoding="UTF-8" standalone="no" ?>
<gpx xmlns="http://www.topografix.com/GPX/1/1" xmlns:xsi="http://www.w3.org/2001/XMLSchema-instance" xsi:schemaLocation="http://www.topografix.com/GPX/1/1 http://www.topografix.com/GPX/1/1/gpx.xsd" version="1.1" creator="VisuGPX - https://www.visugpx.com">
  <metadata>
    <name>\&quot;Cami\&quot; :  Viviers lès montagnes 26km</name>
    <desc><![CDATA[Secteur : Viviers lès montagne- base de loisir du Dicosa.
]]></desc>
  </metadata>
  <trk>
    <name><![CDATA[16-NOV-14 11:59:18]]></name>
    <trkseg>
      <trkpt lat="43.55481" lon="2.20727">
        <ele>213.55</ele>
        <time>2014-11-16T08:55:34Z</time>
      </trkpt>
      <trkpt lat="43.55472" lon="2.20727">
        <ele>213.07</ele>
        <time>2014-11-16T08:55:41Z</time>
      </trkpt>
      <trkpt lat="43.55463" lon="2.20721">
        <ele>212.11</ele>
        <time>2014-11-16T08:55:45Z</time>
      </trkpt>
      <trkpt lat="43.55456" lon="2.20712">
        <ele>215.47</ele>
        <time>2014-11-16T08:55:49Z</time>
      </trkpt>
      <trkpt lat="43.55448" lon="2.20705">
        <ele>212.11</ele>
        <time>2014-11-16T08:55:55Z</time>
      </trkpt>
      <trkpt lat="43.55442" lon="2.20698">
        <ele>211.63</ele>
        <time>2014-11-16T08:56:01Z</time>
      </trkpt>
      <trkpt lat="43.5544" lon="2.20684">
        <ele>211.15</ele>
        <time>2014-11-16T08:56:07Z</time>
      </trkpt>
      <trkpt lat="43.55439" lon="2.20671">
        <ele>211.63</ele>
        <time>2014-11-16T08:56:17Z</time>
      </trkpt>
      <trkpt lat="43.55439" lon="2.20657">
        <ele>211.63</ele>
        <time>2014-11-16T08:56:25Z</time>
      </trkpt>
      <trkpt lat="43.5544" lon="2.20644">
        <ele>211.63</ele>
        <time>2014-11-16T08:56:32Z</time>
      </trkpt>
      <trkpt lat="43.55444" lon="2.20633">
        <ele>211.63</ele>
        <time>2014-11-16T08:56:41Z</time>
      </trkpt>
      <trkpt lat="43.55438" lon="2.20624">
        <ele>211.15</ele>
        <time>2014-11-16T08:56:45Z</time>
      </trkpt>
      <trkpt lat="43.55434" lon="2.2061">
        <ele>211.15</ele>
        <time>2014-11-16T08:56:49Z</time>
      </trkpt>
      <trkpt lat="43.55433" lon="2.20595">
        <ele>211.15</ele>
        <time>2014-11-16T08:56:53Z</time>
      </trkpt>
      <trkpt lat="43.55433" lon="2.20581">
        <ele>210.67</ele>
        <time>2014-11-16T08:56:56Z</time>
      </trkpt>
      <trkpt lat="43.55436" lon="2.20568">
        <ele>210.19</ele>
        <time>2014-11-16T08:56:59Z</time>
      </trkpt>
      <trkpt lat="43.55439" lon="2.20551">
        <ele>209.7</ele>
        <time>2014-11-16T08:57:02Z</time>
      </trkpt>
      <trkpt lat="43.55442" lon="2.20538">
        <ele>209.22</ele>
        <time>2014-11-16T08:57:04Z</time>
      </trkpt>
      <trkpt lat="43.55443" lon="2.20525">
        <ele>208.26</ele>
        <time>2014-11-16T08:57:06Z</time>
      </trkpt>
      <trkpt lat="43.55445" lon="2.20508">
        <ele>207.3</ele>
        <time>2014-11-16T08:57:09Z</time>
      </trkpt>
      <trkpt lat="43.55448" lon="2.20495">
        <ele>206.82</ele>
        <time>2014-11-16T08:57:11Z</time>
      </trkpt>
      <trkpt lat="43.55451" lon="2.2048">
        <ele>206.34</ele>
        <time>2014-11-16T08:57:13Z</time>
      </trkpt>
      <trkpt lat="43.55453" lon="2.20465">
        <ele>206.34</ele>
        <time>2014-11-16T08:57:15Z</time>
      </trkpt>
      <trkpt lat="43.55456" lon="2.20449">
        <ele>206.82</ele>
        <time>2014-11-16T08:57:18Z</time>
      </trkpt>
      <trkpt lat="43.55458" lon="2.20434">
        <ele>206.82</ele>
        <time>2014-11-16T08:57:21Z</time>
      </trkpt>
      <trkpt lat="43.5546" lon="2.20422">
        <ele>207.78</ele>
        <time>2014-11-16T08:57:24Z</time>
      </trkpt>
      <trkpt lat="43.55463" lon="2.20407">
        <ele>208.74</ele>
        <time>2014-11-16T08:57:28Z</time>
      </trkpt>
      <trkpt lat="43.55465" lon="2.2039">
        <ele>208.26</ele>
        <time>2014-11-16T08:57:33Z</time>
      </trkpt>
      <trkpt lat="43.55466" lon="2.20375">
        <ele>208.26</ele>
        <time>2014-11-16T08:57:37Z</time>
      </trkpt>
      <trkpt lat="43.55469" lon="2.20356">
        <ele>207.78</ele>
        <time>2014-11-16T08:57:40Z</time>
      </trkpt>
      <trkpt lat="43.55471" lon="2.20343">
        <ele>207.3</ele>
        <time>2014-11-16T08:57:43Z</time>
      </trkpt>
      <trkpt lat="43.55474" lon="2.20329">
        <ele>206.82</ele>
        <time>2014-11-16T08:57:46Z</time>
      </trkpt>
      <trkpt lat="43.55473" lon="2.20312">
        <ele>206.34</ele>
        <time>2014-11-16T08:57:49Z</time>
      </trkpt>
      <trkpt lat="43.55474" lon="2.20295">
        <ele>205.86</ele>
        <time>2014-11-16T08:57:52Z</time>
      </trkpt>
      <trkpt lat="43.55473" lon="2.20278">
        <ele>205.86</ele>
        <time>2014-11-16T08:57:55Z</time>
      </trkpt>
      <trkpt lat="43.55473" lon="2.20263">
        <ele>206.34</ele>
        <time>2014-11-16T08:57:58Z</time>
      </trkpt>
      <trkpt lat="43.55473" lon="2.20248">
        <ele>206.34</ele>
        <time>2014-11-16T08:58:01Z</time>
      </trkpt>
      <trkpt lat="43.55474" lon="2.20233">
        <ele>206.34</ele>
        <time>2014-11-16T08:58:04Z</time>
      </trkpt>
      <trkpt lat="43.55476" lon="2.20217">
        <ele>206.34</ele>
        <time>2014-11-16T08:58:07Z</time>
      </trkpt>
      <trkpt lat="43.55478" lon="2.20203">
        <ele>206.82</ele>
        <time>2014-11-16T08:58:10Z</time>
      </trkpt>
      <trkpt lat="43.5548" lon="2.2019">
        <ele>206.82</ele>
        <time>2014-11-16T08:58:13Z</time>
      </trkpt>
      <trkpt lat="43.55482" lon="2.20178">
        <ele>206.82</ele>
        <time>2014-11-16T08:58:16Z</time>
      </trkpt>
      <trkpt lat="43.55484" lon="2.20165">
        <ele>206.82</ele>
        <time>2014-11-16T08:58:19Z</time>
      </trkpt>
      <trkpt lat="43.55486" lon="2.20151">
        <ele>206.82</ele>
        <time>2014-11-16T08:58:22Z</time>
      </trkpt>
      <trkpt lat="43.55488" lon="2.20137">
        <ele>206.82</ele>
        <time>2014-11-16T08:58:25Z</time>
      </trkpt>
      <trkpt lat="43.5549" lon="2.20123">
        <ele>206.82</ele>
        <time>2014-11-16T08:58:28Z</time>
      </trkpt>
      <trkpt lat="43.55493" lon="2.2011">
        <ele>207.3</ele>
        <time>2014-11-16T08:58:32Z</time>
      </trkpt>
      <trkpt lat="43.55504" lon="2.20107">
        <ele>208.74</ele>
        <time>2014-11-16T08:58:37Z</time>
      </trkpt>
      <trkpt lat="43.55514" lon="2.20108">
        <ele>210.19</ele>
        <time>2014-11-16T08:58:43Z</time>
      </trkpt>
      <trkpt lat="43.55524" lon="2.20106">
        <ele>210.67</ele>
        <time>2014-11-16T08:58:50Z</time>
      </trkpt>
      <trkpt lat="43.55524" lon="2.20112">
        <ele>210.19</ele>
        <time>2014-11-16T08:58:58Z</time>
      </trkpt>
      <trkpt lat="43.55526" lon="2.20109">
        <ele>210.19</ele>
        <time>2014-11-16T08:59:07Z</time>
      </trkpt>
      <trkpt lat="43.55523" lon="2.20115">
        <ele>210.19</ele>
        <time>2014-11-16T08:59:42Z</time>
      </trkpt>
      <trkpt lat="43.55522" lon="2.20111">
        <ele>207.3</ele>
        <time>2014-11-16T09:03:45Z</time>
      </trkpt>
      <trkpt lat="43.55514" lon="2.20109">
        <ele>206.82</ele>
        <time>2014-11-16T09:04:53Z</time>
      </trkpt>
      <trkpt lat="43.55504" lon="2.20109">
        <ele>205.86</ele>
        <time>2014-11-16T09:04:58Z</time>
      </trkpt>
      <trkpt lat="43.55495" lon="2.20108">
        <ele>204.42</ele>
        <time>2014-11-16T09:05:02Z</time>
      </trkpt>
      <trkpt lat="43.55491" lon="2.20097">
        <ele>202.98</ele>
        <time>2014-11-16T09:05:05Z</time>
      </trkpt>
      <trkpt lat="43.55492" lon="2.20084">
        <ele>202.98</ele>
        <time>2014-11-16T09:05:08Z</time>
      </trkpt>
      <trkpt lat="43.55492" lon="2.20068">
        <ele>202.49</ele>
        <time>2014-11-16T09:05:12Z</time>
      </trkpt>
      <trkpt lat="43.55489" lon="2.20053">
        <ele>202.49</ele>
        <time>2014-11-16T09:05:16Z</time>
      </trkpt>
      <trkpt lat="43.55483" lon="2.2004">
        <ele>201.53</ele>
        <time>2014-11-16T09:05:19Z</time>
      </trkpt>
      <trkpt lat="43.55477" lon="2.20024">
        <ele>201.05</ele>
        <time>2014-11-16T09:05:22Z</time>
      </trkpt>
      <trkpt lat="43.55473" lon="2.20013">
        <ele>201.05</ele>
        <time>2014-11-16T09:05:24Z</time>
      </trkpt>
      <trkpt lat="43.5547" lon="2.20002">
        <ele>200.57</ele>
        <time>2014-11-16T09:05:26Z</time>
      </trkpt>
      <trkpt lat="43.55467" lon="2.1999">
        <ele>200.57</ele>
        <time>2014-11-16T09:05:28Z</time>
      </trkpt>
      <trkpt lat="43.55463" lon="2.19978">
        <ele>200.09</ele>
        <time>2014-11-16T09:05:30Z</time>
      </trkpt>
      <trkpt lat="43.5546" lon="2.19965">
        <ele>200.57</ele>
        <time>2014-11-16T09:05:32Z</time>
      </trkpt>
      <trkpt lat="43.55457" lon="2.19952">
        <ele>200.09</ele>
        <time>2014-11-16T09:05:34Z</time>
      </trkpt>
      <trkpt lat="43.55453" lon="2.1994">
        <ele>199.61</ele>
        <time>2014-11-16T09:05:36Z</time>
      </trkpt>
      <trkpt lat="43.5545" lon="2.19927">
        <ele>199.61</ele>
        <time>2014-11-16T09:05:38Z</time>
      </trkpt>
      <trkpt lat="43.55447" lon="2.19913">
        <ele>199.61</ele>
        <time>2014-11-16T09:05:40Z</time>
      </trkpt>
      <trkpt lat="43.55445" lon="2.19894">
        <ele>199.61</ele>
        <time>2014-11-16T09:05:43Z</time>
      </trkpt>
      <trkpt lat="43.55444" lon="2.1988">
        <ele>199.61</ele>
        <time>2014-11-16T09:05:45Z</time>
      </trkpt>
      <trkpt lat="43.55444" lon="2.19867">
        <ele>200.09</ele>
        <time>2014-11-16T09:05:47Z</time>
      </trkpt>
      <trkpt lat="43.55443" lon="2.19849">
        <ele>200.57</ele>
        <time>2014-11-16T09:05:50Z</time>
      </trkpt>
      <trkpt lat="43.55442" lon="2.19837">
        <ele>200.57</ele>
        <time>2014-11-16T09:05:52Z</time>
      </trkpt>
      <trkpt lat="43.55439" lon="2.19819">
        <ele>200.57</ele>
        <time>2014-11-16T09:05:55Z</time>
      </trkpt>
      <trkpt lat="43.55433" lon="2.19806">
        <ele>200.57</ele>
        <time>2014-11-16T09:05:58Z</time>
      </trkpt>
      <trkpt lat="43.55425" lon="2.19795">
        <ele>201.05</ele>
        <time>2014-11-16T09:06:02Z</time>
      </trkpt>
      <trkpt lat="43.55418" lon="2.19788">
        <ele>201.53</ele>
        <time>2014-11-16T09:06:05Z</time>
      </trkpt>
      <trkpt lat="43.55413" lon="2.19777">
        <ele>202.01</ele>
        <time>2014-11-16T09:06:08Z</time>
      </trkpt>
      <trkpt lat="43.55411" lon="2.1976">
        <ele>202.01</ele>
        <time>2014-11-16T09:06:11Z</time>
      </trkpt>
      <trkpt lat="43.55409" lon="2.19742">
        <ele>202.01</ele>
        <time>2014-11-16T09:06:14Z</time>
      </trkpt>
      <trkpt lat="43.55407" lon="2.1973">
        <ele>202.49</ele>
        <time>2014-11-16T09:06:16Z</time>
      </trkpt>
      <trkpt lat="43.55406" lon="2.19718">
        <ele>202.49</ele>
        <time>2014-11-16T09:06:18Z</time>
      </trkpt>
      <trkpt lat="43.55404" lon="2.19705">
        <ele>202.98</ele>
        <time>2014-11-16T09:06:20Z</time>
      </trkpt>
      <trkpt lat="43.55401" lon="2.19693">
        <ele>202.98</ele>
        <time>2014-11-16T09:06:22Z</time>
      </trkpt>
      <trkpt lat="43.55399" lon="2.1968">
        <ele>202.98</ele>
        <time>2014-11-16T09:06:24Z</time>
      </trkpt>
      <trkpt lat="43.55397" lon="2.19668">
        <ele>203.46</ele>
        <time>2014-11-16T09:06:26Z</time>
      </trkpt>
      <trkpt lat="43.55395" lon="2.19655">
        <ele>203.46</ele>
        <time>2014-11-16T09:06:28Z</time>
      </trkpt>
      <trkpt lat="43.55393" lon="2.19642">
        <ele>203.46</ele>
        <time>2014-11-16T09:06:30Z</time>
      </trkpt>
      <trkpt lat="43.5539" lon="2.19628">
        <ele>203.46</ele>
        <time>2014-11-16T09:06:32Z</time>
      </trkpt>
      <trkpt lat="43.55388" lon="2.19616">
        <ele>203.46</ele>
        <time>2014-11-16T09:06:34Z</time>
      </trkpt>
      <trkpt lat="43.55384" lon="2.19604">
        <ele>203.94</ele>
        <time>2014-11-16T09:06:36Z</time>
      </trkpt>
      <trkpt lat="43.55375" lon="2.19598">
        <ele>203.94</ele>
        <time>2014-11-16T09:06:38Z</time>
      </trkpt>
      <trkpt lat="43.55363" lon="2.196">
        <ele>204.9</ele>
        <time>2014-11-16T09:06:41Z</time>
      </trkpt>
      <trkpt lat="43.55353" lon="2.19604">
        <ele>204.9</ele>
        <time>2014-11-16T09:06:44Z</time>
      </trkpt>
      <trkpt lat="43.55343" lon="2.19607">
        <ele>204.9</ele>
        <time>2014-11-16T09:06:47Z</time>
      </trkpt>
      <trkpt lat="43.55332" lon="2.19611">
        <ele>204.42</ele>
        <time>2014-11-16T09:06:50Z</time>
      </trkpt>
      <trkpt lat="43.55318" lon="2.19611">
        <ele>203.94</ele>
        <time>2014-11-16T09:06:53Z</time>
      </trkpt>
      <trkpt lat="43.5531" lon="2.19608">
        <ele>203.46</ele>
        <time>2014-11-16T09:06:55Z</time>
      </trkpt>
      <trkpt lat="43.55297" lon="2.19606">
        <ele>202.98</ele>
        <time>2014-11-16T09:06:58Z</time>
      </trkpt>
      <trkpt lat="43.55288" lon="2.19602">
        <ele>202.49</ele>
        <time>2014-11-16T09:07:00Z</time>
      </trkpt>
      <trkpt lat="43.55278" lon="2.19595">
        <ele>202.01</ele>
        <time>2014-11-16T09:07:02Z</time>
      </trkpt>
      <trkpt lat="43.55268" lon="2.19588">
        <ele>200.09</ele>
        <time>2014-11-16T09:07:04Z</time>
      </trkpt>
      <trkpt lat="43.55255" lon="2.19579">
        <ele>198.17</ele>
        <time>2014-11-16T09:07:06Z</time>
      </trkpt>
      <trkpt lat="43.55239" lon="2.19569">
        <ele>196.25</ele>
        <time>2014-11-16T09:07:08Z</time>
      </trkpt>
      <trkpt lat="43.55223" lon="2.1956">
        <ele>193.84</ele>
        <time>2014-11-16T09:07:10Z</time>
      </trkpt>
      <trkpt lat="43.55205" lon="2.19557">
        <ele>192.4</ele>
        <time>2014-11-16T09:07:12Z</time>
      </trkpt>
      <trkpt lat="43.55196" lon="2.19556">
        <ele>191.92</ele>
        <time>2014-11-16T09:07:13Z</time>
      </trkpt>
      <trkpt lat="43.55187" lon="2.19555">
        <ele>191.92</ele>
        <time>2014-11-16T09:07:14Z</time>
      </trkpt>
      <trkpt lat="43.5517" lon="2.19553">
        <ele>192.88</ele>
        <time>2014-11-16T09:07:16Z</time>
      </trkpt>
      <trkpt lat="43.55152" lon="2.19552">
        <ele>191.44</ele>
        <time>2014-11-16T09:07:18Z</time>
      </trkpt>
      <trkpt lat="43.55137" lon="2.19549">
        <ele>191.44</ele>
        <time>2014-11-16T09:07:20Z</time>
      </trkpt>
      <trkpt lat="43.55122" lon="2.19546">
        <ele>190.96</ele>
        <time>2014-11-16T09:07:22Z</time>
      </trkpt>
      <trkpt lat="43.55108" lon="2.19544">
        <ele>190.96</ele>
        <time>2014-11-16T09:07:24Z</time>
      </trkpt>
      <trkpt lat="43.55094" lon="2.19542">
        <ele>190.96</ele>
        <time>2014-11-16T09:07:26Z</time>
      </trkpt>
      <trkpt lat="43.55082" lon="2.1954">
        <ele>191.44</ele>
        <time>2014-11-16T09:07:28Z</time>
      </trkpt>
      <trkpt lat="43.55069" lon="2.19537">
        <ele>190.96</ele>
        <time>2014-11-16T09:07:30Z</time>
      </trkpt>
      <trkpt lat="43.55057" lon="2.19537">
        <ele>190.96</ele>
        <time>2014-11-16T09:07:32Z</time>
      </trkpt>
      <trkpt lat="43.55044" lon="2.19535">
        <ele>190.96</ele>
        <time>2014-11-16T09:07:34Z</time>
      </trkpt>
      <trkpt lat="43.55033" lon="2.19533">
        <ele>191.44</ele>
        <time>2014-11-16T09:07:36Z</time>
      </trkpt>
      <trkpt lat="43.55021" lon="2.19532">
        <ele>191.44</ele>
        <time>2014-11-16T09:07:38Z</time>
      </trkpt>
      <trkpt lat="43.5501" lon="2.1953">
        <ele>191.44</ele>
        <time>2014-11-16T09:07:40Z</time>
      </trkpt>
      <trkpt lat="43.54999" lon="2.19528">
        <ele>190.96</ele>
        <time>2014-11-16T09:07:42Z</time>
      </trkpt>
      <trkpt lat="43.54987" lon="2.19527">
        <ele>191.44</ele>
        <time>2014-11-16T09:07:44Z</time>
      </trkpt>
      <trkpt lat="43.54976" lon="2.19525">
        <ele>191.44</ele>
        <time>2014-11-16T09:07:46Z</time>
      </trkpt>
      <trkpt lat="43.54965" lon="2.19524">
        <ele>190.96</ele>
        <time>2014-11-16T09:07:48Z</time>
      </trkpt>
      <trkpt lat="43.54954" lon="2.19523">
        <ele>191.44</ele>
        <time>2014-11-16T09:07:50Z</time>
      </trkpt>
      <trkpt lat="43.54944" lon="2.19521">
        <ele>190.96</ele>
        <time>2014-11-16T09:07:52Z</time>
      </trkpt>
      <trkpt lat="43.54933" lon="2.1952">
        <ele>190.96</ele>
        <time>2014-11-16T09:07:54Z</time>
      </trkpt>
      <trkpt lat="43.54922" lon="2.19518">
        <ele>190.96</ele>
        <time>2014-11-16T09:07:56Z</time>
      </trkpt>
      <trkpt lat="43.54911" lon="2.19516">
        <ele>190.96</ele>
        <time>2014-11-16T09:07:58Z</time>
      </trkpt>
      <trkpt lat="43.549" lon="2.19515">
        <ele>190.96</ele>
        <time>2014-11-16T09:08:00Z</time>
      </trkpt>
      <trkpt lat="43.5489" lon="2.19513">
        <ele>191.44</ele>
        <time>2014-11-16T09:08:02Z</time>
      </trkpt>
      <trkpt lat="43.54882" lon="2.19512">
        <ele>190.96</ele>
        <time>2014-11-16T09:08:04Z</time>
      </trkpt>
      <trkpt lat="43.54868" lon="2.1951">
        <ele>190.96</ele>
        <time>2014-11-16T09:08:07Z</time>
      </trkpt>
      <trkpt lat="43.54859" lon="2.19509">
        <ele>191.44</ele>
        <time>2014-11-16T09:08:09Z</time>
      </trkpt>
      <trkpt lat="43.5485" lon="2.19507">
        <ele>190.96</ele>
        <time>2014-11-16T09:08:11Z</time>
      </trkpt>
      <trkpt lat="43.5484" lon="2.19506">
        <ele>190.96</ele>
        <time>2014-11-16T09:08:13Z</time>
      </trkpt>
      <trkpt lat="43.54831" lon="2.19505">
        <ele>190.96</ele>
        <time>2014-11-16T09:08:15Z</time>
      </trkpt>
      <trkpt lat="43.54822" lon="2.19504">
        <ele>190.96</ele>
        <time>2014-11-16T09:08:17Z</time>
      </trkpt>
      <trkpt lat="43.54813" lon="2.19502">
        <ele>190.96</ele>
        <time>2014-11-16T09:08:19Z</time>
      </trkpt>
      <trkpt lat="43.54803" lon="2.19501">
        <ele>190.96</ele>
        <time>2014-11-16T09:08:21Z</time>
      </trkpt>
      <trkpt lat="43.54794" lon="2.195">
        <ele>191.44</ele>
        <time>2014-11-16T09:08:23Z</time>
      </trkpt>
      <trkpt lat="43.54785" lon="2.195">
        <ele>191.44</ele>
        <time>2014-11-16T09:08:25Z</time>
      </trkpt>
      <trkpt lat="43.54773" lon="2.19498">
        <ele>191.44</ele>
        <time>2014-11-16T09:08:28Z</time>
      </trkpt>
      <trkpt lat="43.5476" lon="2.19496">
        <ele>191.44</ele>
        <time>2014-11-16T09:08:31Z</time>
      </trkpt>
      <trkpt lat="43.54748" lon="2.19493">
        <ele>191.92</ele>
        <time>2014-11-16T09:08:34Z</time>
      </trkpt>
      <trkpt lat="43.54741" lon="2.19484">
        <ele>192.4</ele>
        <time>2014-11-16T09:08:37Z</time>
      </trkpt>
      <trkpt lat="43.54743" lon="2.19468">
        <ele>192.4</ele>
        <time>2014-11-16T09:08:40Z</time>
      </trkpt>
      <trkpt lat="43.54746" lon="2.19452">
        <ele>191.92</ele>
        <time>2014-11-16T09:08:43Z</time>
      </trkpt>
      <trkpt lat="43.54749" lon="2.19435">
        <ele>192.4</ele>
        <time>2014-11-16T09:08:46Z</time>
      </trkpt>
      <trkpt lat="43.54754" lon="2.19418">
        <ele>191.92</ele>
        <time>2014-11-16T09:08:49Z</time>
      </trkpt>
      <trkpt lat="43.54758" lon="2.19407">
        <ele>192.4</ele>
        <time>2014-11-16T09:08:51Z</time>
      </trkpt>
      <trkpt lat="43.54762" lon="2.19396">
        <ele>191.92</ele>
        <time>2014-11-16T09:08:53Z</time>
      </trkpt>
      <trkpt lat="43.54767" lon="2.19385">
        <ele>191.92</ele>
        <time>2014-11-16T09:08:55Z</time>
      </trkpt>
      <trkpt lat="43.54772" lon="2.19374">
        <ele>191.92</ele>
        <time>2014-11-16T09:08:57Z</time>
      </trkpt>
      <trkpt lat="43.54777" lon="2.19362">
        <ele>191.92</ele>
        <time>2014-11-16T09:08:59Z</time>
      </trkpt>
      <trkpt lat="43.54782" lon="2.19351">
        <ele>191.92</ele>
        <time>2014-11-16T09:09:01Z</time>
      </trkpt>
      <trkpt lat="43.54787" lon="2.19339">
        <ele>191.92</ele>
        <time>2014-11-16T09:09:03Z</time>
      </trkpt>
      <trkpt lat="43.54792" lon="2.19329">
        <ele>191.92</ele>
        <time>2014-11-16T09:09:05Z</time>
      </trkpt>
      <trkpt lat="43.54799" lon="2.19315">
        <ele>191.92</ele>
        <time>2014-11-16T09:09:08Z</time>
      </trkpt>
      <trkpt lat="43.54803" lon="2.19301">
        <ele>191.92</ele>
        <time>2014-11-16T09:09:11Z</time>
      </trkpt>
      <trkpt lat="43.54806" lon="2.19286">
        <ele>191.92</ele>
        <time>2014-11-16T09:09:14Z</time>
      </trkpt>
      <trkpt lat="43.5481" lon="2.19272">
        <ele>191.92</ele>
        <time>2014-11-16T09:09:17Z</time>
      </trkpt>
      <trkpt lat="43.54814" lon="2.19259">
        <ele>191.92</ele>
        <time>2014-11-16T09:09:20Z</time>
      </trkpt>
      <trkpt lat="43.54819" lon="2.19248">
        <ele>191.92</ele>
        <time>2014-11-16T09:09:24Z</time>
      </trkpt>
      <trkpt lat="43.54821" lon="2.19234">
        <ele>191.92</ele>
        <time>2014-11-16T09:09:29Z</time>
      </trkpt>
      <trkpt lat="43.54824" lon="2.19221">
        <ele>191.92</ele>
        <time>2014-11-16T09:09:33Z</time>
      </trkpt>
      <trkpt lat="43.54827" lon="2.19207">
        <ele>191.92</ele>
        <time>2014-11-16T09:09:37Z</time>
      </trkpt>
      <trkpt lat="43.54828" lon="2.19192">
        <ele>191.92</ele>
        <time>2014-11-16T09:09:41Z</time>
      </trkpt>
      <trkpt lat="43.54823" lon="2.19182">
        <ele>192.4</ele>
        <time>2014-11-16T09:09:45Z</time>
      </trkpt>
      <trkpt lat="43.54813" lon="2.1918">
        <ele>191.92</ele>
        <time>2014-11-16T09:09:50Z</time>
      </trkpt>
      <trkpt lat="43.54802" lon="2.19181">
        <ele>191.92</ele>
        <time>2014-11-16T09:09:54Z</time>
      </trkpt>
      <trkpt lat="43.54791" lon="2.19181">
        <ele>191.92</ele>
        <time>2014-11-16T09:09:57Z</time>
      </trkpt>
      <trkpt lat="43.54779" lon="2.19181">
        <ele>191.92</ele>
        <time>2014-11-16T09:10:00Z</time>
      </trkpt>
      <trkpt lat="43.54767" lon="2.19181">
        <ele>191.92</ele>
        <time>2014-11-16T09:10:03Z</time>
      </trkpt>
      <trkpt lat="43.54755" lon="2.19182">
        <ele>190.96</ele>
        <time>2014-11-16T09:10:06Z</time>
      </trkpt>
      <trkpt lat="43.54743" lon="2.19181">
        <ele>191.92</ele>
        <time>2014-11-16T09:10:09Z</time>
      </trkpt>
      <trkpt lat="43.54731" lon="2.19181">
        <ele>191.92</ele>
        <time>2014-11-16T09:10:12Z</time>
      </trkpt>
      <trkpt lat="43.54719" lon="2.1918">
        <ele>191.92</ele>
        <time>2014-11-16T09:10:15Z</time>
      </trkpt>
      <trkpt lat="43.54706" lon="2.19179">
        <ele>191.92</ele>
        <time>2014-11-16T09:10:18Z</time>
      </trkpt>
      <trkpt lat="43.54693" lon="2.19178">
        <ele>192.4</ele>
        <time>2014-11-16T09:10:21Z</time>
      </trkpt>
      <trkpt lat="43.5468" lon="2.19179">
        <ele>192.4</ele>
        <time>2014-11-16T09:10:24Z</time>
      </trkpt>
      <trkpt lat="43.54669" lon="2.19186">
        <ele>192.88</ele>
        <time>2014-11-16T09:10:27Z</time>
      </trkpt>
      <trkpt lat="43.54659" lon="2.19191">
        <ele>192.88</ele>
        <time>2014-11-16T09:10:30Z</time>
      </trkpt>
      <trkpt lat="43.54654" lon="2.19182">
        <ele>192.88</ele>
        <time>2014-11-16T09:10:33Z</time>
      </trkpt>
      <trkpt lat="43.54653" lon="2.19166">
        <ele>192.88</ele>
        <time>2014-11-16T09:10:36Z</time>
      </trkpt>
      <trkpt lat="43.54651" lon="2.19149">
        <ele>192.4</ele>
        <time>2014-11-16T09:10:39Z</time>
      </trkpt>
      <trkpt lat="43.54648" lon="2.19137">
        <ele>192.4</ele>
        <time>2014-11-16T09:10:41Z</time>
      </trkpt>
      <trkpt lat="43.54642" lon="2.19126">
        <ele>191.92</ele>
        <time>2014-11-16T09:10:43Z</time>
      </trkpt>
      <trkpt lat="43.54635" lon="2.19119">
        <ele>192.4</ele>
        <time>2014-11-16T09:10:45Z</time>
      </trkpt>
      <trkpt lat="43.54626" lon="2.19115">
        <ele>191.92</ele>
        <time>2014-11-16T09:10:47Z</time>
      </trkpt>
      <trkpt lat="43.54612" lon="2.19114">
        <ele>191.92</ele>
        <time>2014-11-16T09:10:50Z</time>
      </trkpt>
      <trkpt lat="43.54599" lon="2.19114">
        <ele>191.92</ele>
        <time>2014-11-16T09:10:53Z</time>
      </trkpt>
      <trkpt lat="43.54586" lon="2.19114">
        <ele>192.4</ele>
        <time>2014-11-16T09:10:56Z</time>
      </trkpt>
      <trkpt lat="43.54572" lon="2.19114">
        <ele>192.4</ele>
        <time>2014-11-16T09:10:59Z</time>
      </trkpt>
      <trkpt lat="43.54559" lon="2.19114">
        <ele>192.4</ele>
        <time>2014-11-16T09:11:02Z</time>
      </trkpt>
      <trkpt lat="43.54545" lon="2.19115">
        <ele>192.4</ele>
        <time>2014-11-16T09:11:05Z</time>
      </trkpt>
      <trkpt lat="43.54537" lon="2.19114">
        <ele>192.4</ele>
        <time>2014-11-16T09:11:07Z</time>
      </trkpt>
      <trkpt lat="43.54523" lon="2.19113">
        <ele>192.4</ele>
        <time>2014-11-16T09:11:10Z</time>
      </trkpt>
      <trkpt lat="43.54514" lon="2.19113">
        <ele>192.4</ele>
        <time>2014-11-16T09:11:12Z</time>
      </trkpt>
      <trkpt lat="43.54505" lon="2.19112">
        <ele>192.4</ele>
        <time>2014-11-16T09:11:14Z</time>
      </trkpt>
      <trkpt lat="43.54496" lon="2.19111">
        <ele>192.4</ele>
        <time>2014-11-16T09:11:16Z</time>
      </trkpt>
      <trkpt lat="43.54487" lon="2.19109">
        <ele>192.4</ele>
        <time>2014-11-16T09:11:18Z</time>
      </trkpt>
      <trkpt lat="43.54478" lon="2.19108">
        <ele>192.88</ele>
        <time>2014-11-16T09:11:20Z</time>
      </trkpt>
      <trkpt lat="43.54469" lon="2.19107">
        <ele>192.4</ele>
        <time>2014-11-16T09:11:22Z</time>
      </trkpt>
      <trkpt lat="43.54455" lon="2.19105">
        <ele>192.88</ele>
        <time>2014-11-16T09:11:25Z</time>
      </trkpt>
      <trkpt lat="43.54446" lon="2.19104">
        <ele>192.88</ele>
        <time>2014-11-16T09:11:27Z</time>
      </trkpt>
      <trkpt lat="43.54437" lon="2.19103">
        <ele>192.88</ele>
        <time>2014-11-16T09:11:29Z</time>
      </trkpt>
      <trkpt lat="43.54428" lon="2.19102">
        <ele>192.88</ele>
        <time>2014-11-16T09:11:31Z</time>
      </trkpt>
      <trkpt lat="43.54415" lon="2.191">
        <ele>193.36</ele>
        <time>2014-11-16T09:11:34Z</time>
      </trkpt>
      <trkpt lat="43.54403" lon="2.19099">
        <ele>193.36</ele>
        <time>2014-11-16T09:11:37Z</time>
      </trkpt>
      <trkpt lat="43.5439" lon="2.19098">
        <ele>193.84</ele>
        <time>2014-11-16T09:11:40Z</time>
      </trkpt>
      <trkpt lat="43.54378" lon="2.19097">
        <ele>194.32</ele>
        <time>2014-11-16T09:11:43Z</time>
      </trkpt>
      <trkpt lat="43.54367" lon="2.19096">
        <ele>195.28</ele>
        <time>2014-11-16T09:11:46Z</time>
      </trkpt>
      <trkpt lat="43.54356" lon="2.19095">
        <ele>195.28</ele>
        <time>2014-11-16T09:11:49Z</time>
      </trkpt>
      <trkpt lat="43.54345" lon="2.19093">
        <ele>195.77</ele>
        <time>2014-11-16T09:11:52Z</time>
      </trkpt>
      <trkpt lat="43.54336" lon="2.19089">
        <ele>195.77</ele>
        <time>2014-11-16T09:11:55Z</time>
      </trkpt>
      <trkpt lat="43.54336" lon="2.19077">
        <ele>195.77</ele>
        <time>2014-11-16T09:11:58Z</time>
      </trkpt>
      <trkpt lat="43.54341" lon="2.19065">
        <ele>195.77</ele>
        <time>2014-11-16T09:12:01Z</time>
      </trkpt>
      <trkpt lat="43.54346" lon="2.19049">
        <ele>195.77</ele>
        <time>2014-11-16T09:12:04Z</time>
      </trkpt>
      <trkpt lat="43.54351" lon="2.19032">
        <ele>195.28</ele>
        <time>2014-11-16T09:12:07Z</time>
      </trkpt>
      <trkpt lat="43.54355" lon="2.19019">
        <ele>195.28</ele>
        <time>2014-11-16T09:12:09Z</time>
      </trkpt>
      <trkpt lat="43.54358" lon="2.19006">
        <ele>194.8</ele>
        <time>2014-11-16T09:12:11Z</time>
      </trkpt>
      <trkpt lat="43.54361" lon="2.18992">
        <ele>194.8</ele>
        <time>2014-11-16T09:12:13Z</time>
      </trkpt>
      <trkpt lat="43.54363" lon="2.18978">
        <ele>194.32</ele>
        <time>2014-11-16T09:12:15Z</time>
      </trkpt>
      <trkpt lat="43.54365" lon="2.18963">
        <ele>194.32</ele>
        <time>2014-11-16T09:12:17Z</time>
      </trkpt>
      <trkpt lat="43.54367" lon="2.18949">
        <ele>194.32</ele>
        <time>2014-11-16T09:12:19Z</time>
      </trkpt>
      <trkpt lat="43.5437" lon="2.18935">
        <ele>194.32</ele>
        <time>2014-11-16T09:12:21Z</time>
      </trkpt>
      <trkpt lat="43.54372" lon="2.18921">
        <ele>193.84</ele>
        <time>2014-11-16T09:12:23Z</time>
      </trkpt>
      <trkpt lat="43.54374" lon="2.18907">
        <ele>193.84</ele>
        <time>2014-11-16T09:12:25Z</time>
      </trkpt>
      <trkpt lat="43.54376" lon="2.18894">
        <ele>193.84</ele>
        <time>2014-11-16T09:12:27Z</time>
      </trkpt>
      <trkpt lat="43.54379" lon="2.1888">
        <ele>193.84</ele>
        <time>2014-11-16T09:12:29Z</time>
      </trkpt>
      <trkpt lat="43.54381" lon="2.18866">
        <ele>193.84</ele>
        <time>2014-11-16T09:12:31Z</time>
      </trkpt>
      <trkpt lat="43.54384" lon="2.18852">
        <ele>193.84</ele>
        <time>2014-11-16T09:12:33Z</time>
      </trkpt>
      <trkpt lat="43.54387" lon="2.18839">
        <ele>193.84</ele>
        <time>2014-11-16T09:12:35Z</time>
      </trkpt>
      <trkpt lat="43.54389" lon="2.18827">
        <ele>193.84</ele>
        <time>2014-11-16T09:12:37Z</time>
      </trkpt>
      <trkpt lat="43.54391" lon="2.18814">
        <ele>193.84</ele>
        <time>2014-11-16T09:12:39Z</time>
      </trkpt>
      <trkpt lat="43.54393" lon="2.18796">
        <ele>194.32</ele>
        <time>2014-11-16T09:12:42Z</time>
      </trkpt>
      <trkpt lat="43.54396" lon="2.18784">
        <ele>194.32</ele>
        <time>2014-11-16T09:12:44Z</time>
      </trkpt>
      <trkpt lat="43.54398" lon="2.18771">
        <ele>194.32</ele>
        <time>2014-11-16T09:12:46Z</time>
      </trkpt>
      <trkpt lat="43.544" lon="2.18759">
        <ele>194.32</ele>
        <time>2014-11-16T09:12:48Z</time>
      </trkpt>
      <trkpt lat="43.54403" lon="2.18741">
        <ele>194.32</ele>
        <time>2014-11-16T09:12:51Z</time>
      </trkpt>
      <trkpt lat="43.54407" lon="2.18724">
        <ele>194.8</ele>
        <time>2014-11-16T09:12:54Z</time>
      </trkpt>
      <trkpt lat="43.54409" lon="2.18707">
        <ele>194.8</ele>
        <time>2014-11-16T09:12:57Z</time>
      </trkpt>
      <trkpt lat="43.54403" lon="2.18694">
        <ele>195.28</ele>
        <time>2014-11-16T09:13:00Z</time>
      </trkpt>
      <trkpt lat="43.54391" lon="2.18686">
        <ele>195.77</ele>
        <time>2014-11-16T09:13:03Z</time>
      </trkpt>
      <trkpt lat="43.54379" lon="2.18679">
        <ele>196.25</ele>
        <time>2014-11-16T09:13:06Z</time>
      </trkpt>
      <trkpt lat="43.54369" lon="2.18671">
        <ele>196.25</ele>
        <time>2014-11-16T09:13:09Z</time>
      </trkpt>
      <trkpt lat="43.54358" lon="2.18664">
        <ele>196.73</ele>
        <time>2014-11-16T09:13:12Z</time>
      </trkpt>
      <trkpt lat="43.54347" lon="2.18657">
        <ele>196.73</ele>
        <time>2014-11-16T09:13:15Z</time>
      </trkpt>
      <trkpt lat="43.54335" lon="2.18651">
        <ele>197.21</ele>
        <time>2014-11-16T09:13:18Z</time>
      </trkpt>
      <trkpt lat="43.54324" lon="2.18646">
        <ele>197.69</ele>
        <time>2014-11-16T09:13:21Z</time>
      </trkpt>
      <trkpt lat="43.54313" lon="2.18642">
        <ele>197.69</ele>
        <time>2014-11-16T09:13:24Z</time>
      </trkpt>
      <trkpt lat="43.54302" lon="2.18639">
        <ele>198.17</ele>
        <time>2014-11-16T09:13:27Z</time>
      </trkpt>
      <trkpt lat="43.5429" lon="2.18635">
        <ele>198.65</ele>
        <time>2014-11-16T09:13:30Z</time>
      </trkpt>
      <trkpt lat="43.54279" lon="2.18631">
        <ele>198.65</ele>
        <time>2014-11-16T09:13:33Z</time>
      </trkpt>
      <trkpt lat="43.54267" lon="2.18628">
        <ele>199.13</ele>
        <time>2014-11-16T09:13:36Z</time>
      </trkpt>
      <trkpt lat="43.54256" lon="2.18625">
        <ele>199.13</ele>
        <time>2014-11-16T09:13:39Z</time>
      </trkpt>
      <trkpt lat="43.54245" lon="2.18622">
        <ele>200.09</ele>
        <time>2014-11-16T09:13:42Z</time>
      </trkpt>
      <trkpt lat="43.54234" lon="2.1862">
        <ele>200.09</ele>
        <time>2014-11-16T09:13:45Z</time>
      </trkpt>
      <trkpt lat="43.54223" lon="2.18618">
        <ele>200.57</ele>
        <time>2014-11-16T09:13:48Z</time>
      </trkpt>
      <trkpt lat="43.54211" lon="2.18615">
        <ele>201.05</ele>
        <time>2014-11-16T09:13:51Z</time>
      </trkpt>
      <trkpt lat="43.54206" lon="2.18602">
        <ele>201.05</ele>
        <time>2014-11-16T09:13:54Z</time>
      </trkpt>
      <trkpt lat="43.54204" lon="2.18585">
        <ele>201.05</ele>
        <time>2014-11-16T09:13:57Z</time>
      </trkpt>
      <trkpt lat="43.54203" lon="2.18569">
        <ele>201.05</ele>
        <time>2014-11-16T09:14:00Z</time>
      </trkpt>
      <trkpt lat="43.54202" lon="2.18552">
        <ele>201.53</ele>
        <time>2014-11-16T09:14:03Z</time>
      </trkpt>
      <trkpt lat="43.54203" lon="2.18534">
        <ele>201.05</ele>
        <time>2014-11-16T09:14:06Z</time>
      </trkpt>
      <trkpt lat="43.54206" lon="2.18521">
        <ele>200.57</ele>
        <time>2014-11-16T09:14:08Z</time>
      </trkpt>
      <trkpt lat="43.54209" lon="2.18506">
        <ele>200.09</ele>
        <time>2014-11-16T09:14:10Z</time>
      </trkpt>
      <trkpt lat="43.54212" lon="2.18491">
        <ele>199.61</ele>
        <time>2014-11-16T09:14:12Z</time>
      </trkpt>
      <trkpt lat="43.54216" lon="2.18475">
        <ele>199.13</ele>
        <time>2014-11-16T09:14:14Z</time>
      </trkpt>
      <trkpt lat="43.54219" lon="2.18459">
        <ele>198.65</ele>
        <time>2014-11-16T09:14:16Z</time>
      </trkpt>
      <trkpt lat="43.54222" lon="2.18441">
        <ele>198.17</ele>
        <time>2014-11-16T09:14:18Z</time>
      </trkpt>
      <trkpt lat="43.54225" lon="2.18423">
        <ele>197.69</ele>
        <time>2014-11-16T09:14:20Z</time>
      </trkpt>
      <trkpt lat="43.54226" lon="2.18405">
        <ele>197.21</ele>
        <time>2014-11-16T09:14:22Z</time>
      </trkpt>
      <trkpt lat="43.54228" lon="2.18388">
        <ele>197.21</ele>
        <time>2014-11-16T09:14:24Z</time>
      </trkpt>
      <trkpt lat="43.5423" lon="2.18371">
        <ele>197.21</ele>
        <time>2014-11-16T09:14:26Z</time>
      </trkpt>
      <trkpt lat="43.54234" lon="2.18354">
        <ele>196.73</ele>
        <time>2014-11-16T09:14:28Z</time>
      </trkpt>
      <trkpt lat="43.54239" lon="2.18337">
        <ele>196.25</ele>
        <time>2014-11-16T09:14:30Z</time>
      </trkpt>
      <trkpt lat="43.54243" lon="2.18319">
        <ele>195.77</ele>
        <time>2014-11-16T09:14:32Z</time>
      </trkpt>
      <trkpt lat="43.54246" lon="2.18301">
        <ele>195.28</ele>
        <time>2014-11-16T09:14:34Z</time>
      </trkpt>
      <trkpt lat="43.5425" lon="2.18284">
        <ele>195.77</ele>
        <time>2014-11-16T09:14:36Z</time>
      </trkpt>
      <trkpt lat="43.54254" lon="2.18266">
        <ele>195.28</ele>
        <time>2014-11-16T09:14:38Z</time>
      </trkpt>
      <trkpt lat="43.54256" lon="2.18249">
        <ele>195.28</ele>
        <time>2014-11-16T09:14:40Z</time>
      </trkpt>
      <trkpt lat="43.54256" lon="2.18231">
        <ele>195.28</ele>
        <time>2014-11-16T09:14:42Z</time>
      </trkpt>
      <trkpt lat="43.54255" lon="2.18214">
        <ele>195.77</ele>
        <time>2014-11-16T09:14:44Z</time>
      </trkpt>
      <trkpt lat="43.54255" lon="2.18198">
        <ele>195.77</ele>
        <time>2014-11-16T09:14:46Z</time>
      </trkpt>
      <trkpt lat="43.54254" lon="2.18181">
        <ele>195.77</ele>
        <time>2014-11-16T09:14:48Z</time>
      </trkpt>
      <trkpt lat="43.54253" lon="2.18165">
        <ele>195.77</ele>
        <time>2014-11-16T09:14:50Z</time>
      </trkpt>
      <trkpt lat="43.54253" lon="2.18149">
        <ele>196.25</ele>
        <time>2014-11-16T09:14:52Z</time>
      </trkpt>
      <trkpt lat="43.54252" lon="2.18134">
        <ele>196.73</ele>
        <time>2014-11-16T09:14:54Z</time>
      </trkpt>
      <trkpt lat="43.54251" lon="2.1812">
        <ele>196.25</ele>
        <time>2014-11-16T09:14:56Z</time>
      </trkpt>
      <trkpt lat="43.5425" lon="2.18104">
        <ele>196.73</ele>
        <time>2014-11-16T09:14:58Z</time>
      </trkpt>
      <trkpt lat="43.54249" lon="2.1809">
        <ele>196.73</ele>
        <time>2014-11-16T09:15:00Z</time>
      </trkpt>
      <trkpt lat="43.54249" lon="2.18075">
        <ele>196.25</ele>
        <time>2014-11-16T09:15:02Z</time>
      </trkpt>
      <trkpt lat="43.54248" lon="2.1806">
        <ele>196.25</ele>
        <time>2014-11-16T09:15:04Z</time>
      </trkpt>
      <trkpt lat="43.54247" lon="2.18045">
        <ele>196.25</ele>
        <time>2014-11-16T09:15:06Z</time>
      </trkpt>
      <trkpt lat="43.54246" lon="2.1803">
        <ele>196.25</ele>
        <time>2014-11-16T09:15:08Z</time>
      </trkpt>
      <trkpt lat="43.54246" lon="2.18015">
        <ele>196.25</ele>
        <time>2014-11-16T09:15:10Z</time>
      </trkpt>
      <trkpt lat="43.54246" lon="2.18">
        <ele>195.77</ele>
        <time>2014-11-16T09:15:12Z</time>
      </trkpt>
      <trkpt lat="43.54246" lon="2.17985">
        <ele>196.25</ele>
        <time>2014-11-16T09:15:14Z</time>
      </trkpt>
      <trkpt lat="43.54245" lon="2.1797">
        <ele>195.77</ele>
        <time>2014-11-16T09:15:16Z</time>
      </trkpt>
      <trkpt lat="43.54246" lon="2.17956">
        <ele>195.77</ele>
        <time>2014-11-16T09:15:18Z</time>
      </trkpt>
      <trkpt lat="43.54246" lon="2.17942">
        <ele>195.77</ele>
        <time>2014-11-16T09:15:20Z</time>
      </trkpt>
      <trkpt lat="43.54246" lon="2.17927">
        <ele>195.77</ele>
        <time>2014-11-16T09:15:22Z</time>
      </trkpt>
      <trkpt lat="43.54246" lon="2.17913">
        <ele>195.77</ele>
        <time>2014-11-16T09:15:24Z</time>
      </trkpt>
      <trkpt lat="43.54244" lon="2.17899">
        <ele>195.77</ele>
        <time>2014-11-16T09:15:26Z</time>
      </trkpt>
      <trkpt lat="43.54237" lon="2.1789">
        <ele>195.77</ele>
        <time>2014-11-16T09:15:28Z</time>
      </trkpt>
      <trkpt lat="43.54229" lon="2.17884">
        <ele>196.25</ele>
        <time>2014-11-16T09:15:30Z</time>
      </trkpt>
      <trkpt lat="43.54229" lon="2.17868">
        <ele>196.25</ele>
        <time>2014-11-16T09:15:33Z</time>
      </trkpt>
      <trkpt lat="43.54236" lon="2.17851">
        <ele>196.25</ele>
        <time>2014-11-16T09:15:36Z</time>
      </trkpt>
      <trkpt lat="43.54244" lon="2.17837">
        <ele>196.25</ele>
        <time>2014-11-16T09:15:39Z</time>
      </trkpt>
      <trkpt lat="43.54252" lon="2.17822">
        <ele>196.25</ele>
        <time>2014-11-16T09:15:42Z</time>
      </trkpt>
      <trkpt lat="43.54259" lon="2.17806">
        <ele>196.25</ele>
        <time>2014-11-16T09:15:45Z</time>
      </trkpt>
      <trkpt lat="43.54263" lon="2.17795">
        <ele>197.69</ele>
        <time>2014-11-16T09:15:47Z</time>
      </trkpt>
      <trkpt lat="43.54266" lon="2.17783">
        <ele>196.25</ele>
        <time>2014-11-16T09:15:49Z</time>
      </trkpt>
      <trkpt lat="43.5427" lon="2.17766">
        <ele>196.73</ele>
        <time>2014-11-16T09:15:52Z</time>
      </trkpt>
      <trkpt lat="43.54273" lon="2.17751">
        <ele>197.21</ele>
        <time>2014-11-16T09:15:55Z</time>
      </trkpt>
      <trkpt lat="43.54276" lon="2.17737">
        <ele>197.21</ele>
        <time>2014-11-16T09:15:58Z</time>
      </trkpt>
      <trkpt lat="43.5428" lon="2.17723">
        <ele>197.69</ele>
        <time>2014-11-16T09:16:01Z</time>
      </trkpt>
      <trkpt lat="43.54285" lon="2.17712">
        <ele>198.65</ele>
        <time>2014-11-16T09:16:04Z</time>
      </trkpt>
      <trkpt lat="43.54289" lon="2.17697">
        <ele>198.17</ele>
        <time>2014-11-16T09:16:07Z</time>
      </trkpt>
      <trkpt lat="43.54295" lon="2.17683">
        <ele>198.17</ele>
        <time>2014-11-16T09:16:10Z</time>
      </trkpt>
      <trkpt lat="43.54302" lon="2.17669">
        <ele>197.69</ele>
        <time>2014-11-16T09:16:13Z</time>
      </trkpt>
      <trkpt lat="43.5431" lon="2.17655">
        <ele>198.17</ele>
        <time>2014-11-16T09:16:16Z</time>
      </trkpt>
      <trkpt lat="43.54319" lon="2.17643">
        <ele>198.17</ele>
        <time>2014-11-16T09:16:19Z</time>
      </trkpt>
      <trkpt lat="43.54329" lon="2.17632">
        <ele>197.69</ele>
        <time>2014-11-16T09:16:22Z</time>
      </trkpt>
      <trkpt lat="43.54339" lon="2.17621">
        <ele>198.17</ele>
        <time>2014-11-16T09:16:25Z</time>
      </trkpt>
      <trkpt lat="43.54348" lon="2.17611">
        <ele>198.17</ele>
        <time>2014-11-16T09:16:28Z</time>
      </trkpt>
      <trkpt lat="43.54356" lon="2.17603">
        <ele>198.65</ele>
        <time>2014-11-16T09:16:31Z</time>
      </trkpt>
      <trkpt lat="43.54363" lon="2.17594">
        <ele>199.13</ele>
        <time>2014-11-16T09:16:34Z</time>
      </trkpt>
      <trkpt lat="43.5437" lon="2.17586">
        <ele>199.61</ele>
        <time>2014-11-16T09:16:37Z</time>
      </trkpt>
      <trkpt lat="43.54378" lon="2.17576">
        <ele>199.61</ele>
        <time>2014-11-16T09:16:40Z</time>
      </trkpt>
      <trkpt lat="43.54384" lon="2.17564">
        <ele>199.61</ele>
        <time>2014-11-16T09:16:43Z</time>
      </trkpt>
      <trkpt lat="43.5439" lon="2.17551">
        <ele>199.61</ele>
        <time>2014-11-16T09:16:46Z</time>
      </trkpt>
      <trkpt lat="43.54396" lon="2.17537">
        <ele>199.61</ele>
        <time>2014-11-16T09:16:49Z</time>
      </trkpt>
      <trkpt lat="43.54401" lon="2.17522">
        <ele>199.61</ele>
        <time>2014-11-16T09:16:52Z</time>
      </trkpt>
      <trkpt lat="43.54404" lon="2.17507">
        <ele>199.61</ele>
        <time>2014-11-16T09:16:55Z</time>
      </trkpt>
      <trkpt lat="43.54408" lon="2.17492">
        <ele>199.61</ele>
        <time>2014-11-16T09:16:58Z</time>
      </trkpt>
      <trkpt lat="43.54412" lon="2.17475">
        <ele>199.61</ele>
        <time>2014-11-16T09:17:01Z</time>
      </trkpt>
      <trkpt lat="43.54416" lon="2.17458">
        <ele>199.61</ele>
        <time>2014-11-16T09:17:04Z</time>
      </trkpt>
      <trkpt lat="43.5442" lon="2.17441">
        <ele>200.09</ele>
        <time>2014-11-16T09:17:07Z</time>
      </trkpt>
      <trkpt lat="43.54424" lon="2.17424">
        <ele>199.61</ele>
        <time>2014-11-16T09:17:10Z</time>
      </trkpt>
      <trkpt lat="43.54427" lon="2.17406">
        <ele>199.61</ele>
        <time>2014-11-16T09:17:13Z</time>
      </trkpt>
      <trkpt lat="43.5443" lon="2.17387">
        <ele>199.61</ele>
        <time>2014-11-16T09:17:16Z</time>
      </trkpt>
      <trkpt lat="43.54431" lon="2.17368">
        <ele>199.61</ele>
        <time>2014-11-16T09:17:19Z</time>
      </trkpt>
      <trkpt lat="43.54432" lon="2.17355">
        <ele>199.61</ele>
        <time>2014-11-16T09:17:21Z</time>
      </trkpt>
      <trkpt lat="43.54433" lon="2.17343">
        <ele>199.61</ele>
        <time>2014-11-16T09:17:23Z</time>
      </trkpt>
      <trkpt lat="43.54435" lon="2.1733">
        <ele>199.61</ele>
        <time>2014-11-16T09:17:25Z</time>
      </trkpt>
      <trkpt lat="43.54438" lon="2.17317">
        <ele>199.61</ele>
        <time>2014-11-16T09:17:27Z</time>
      </trkpt>
      <trkpt lat="43.54442" lon="2.17305">
        <ele>199.61</ele>
        <time>2014-11-16T09:17:29Z</time>
      </trkpt>
      <trkpt lat="43.54447" lon="2.17292">
        <ele>199.13</ele>
        <time>2014-11-16T09:17:31Z</time>
      </trkpt>
      <trkpt lat="43.54452" lon="2.17279">
        <ele>199.13</ele>
        <time>2014-11-16T09:17:33Z</time>
      </trkpt>
      <trkpt lat="43.54457" lon="2.17265">
        <ele>198.65</ele>
        <time>2014-11-16T09:17:35Z</time>
      </trkpt>
      <trkpt lat="43.54464" lon="2.17251">
        <ele>198.17</ele>
        <time>2014-11-16T09:17:37Z</time>
      </trkpt>
      <trkpt lat="43.54473" lon="2.17235">
        <ele>196.73</ele>
        <time>2014-11-16T09:17:39Z</time>
      </trkpt>
      <trkpt lat="43.54483" lon="2.17217">
        <ele>194.8</ele>
        <time>2014-11-16T09:17:41Z</time>
      </trkpt>
      <trkpt lat="43.54495" lon="2.17198">
        <ele>193.36</ele>
        <time>2014-11-16T09:17:43Z</time>
      </trkpt>
      <trkpt lat="43.545" lon="2.17188">
        <ele>192.88</ele>
        <time>2014-11-16T09:17:44Z</time>
      </trkpt>
      <trkpt lat="43.54506" lon="2.17179">
        <ele>192.88</ele>
        <time>2014-11-16T09:17:45Z</time>
      </trkpt>
      <trkpt lat="43.54518" lon="2.17159">
        <ele>193.36</ele>
        <time>2014-11-16T09:17:47Z</time>
      </trkpt>
      <trkpt lat="43.54524" lon="2.17149">
        <ele>191.92</ele>
        <time>2014-11-16T09:17:48Z</time>
      </trkpt>
      <trkpt lat="43.5453" lon="2.17139">
        <ele>191.92</ele>
        <time>2014-11-16T09:17:49Z</time>
      </trkpt>
      <trkpt lat="43.54536" lon="2.17129">
        <ele>191.92</ele>
        <time>2014-11-16T09:17:50Z</time>
      </trkpt>
      <trkpt lat="43.54542" lon="2.17119">
        <ele>191.44</ele>
        <time>2014-11-16T09:17:51Z</time>
      </trkpt>
      <trkpt lat="43.54548" lon="2.1711">
        <ele>190.96</ele>
        <time>2014-11-16T09:17:52Z</time>
      </trkpt>
      <trkpt lat="43.54554" lon="2.171">
        <ele>190.96</ele>
        <time>2014-11-16T09:17:53Z</time>
      </trkpt>
      <trkpt lat="43.54565" lon="2.1708">
        <ele>190</ele>
        <time>2014-11-16T09:17:55Z</time>
      </trkpt>
      <trkpt lat="43.54569" lon="2.17069">
        <ele>190.48</ele>
        <time>2014-11-16T09:17:56Z</time>
      </trkpt>
      <trkpt lat="43.54573" lon="2.17058">
        <ele>190.96</ele>
        <time>2014-11-16T09:17:57Z</time>
      </trkpt>
      <trkpt lat="43.54577" lon="2.17046">
        <ele>190.96</ele>
        <time>2014-11-16T09:17:58Z</time>
      </trkpt>
      <trkpt lat="43.54581" lon="2.17035">
        <ele>191.44</ele>
        <time>2014-11-16T09:17:59Z</time>
      </trkpt>
      <trkpt lat="43.54588" lon="2.17013">
        <ele>191.92</ele>
        <time>2014-11-16T09:18:01Z</time>
      </trkpt>
      <trkpt lat="43.54596" lon="2.16992">
        <ele>193.36</ele>
        <time>2014-11-16T09:18:03Z</time>
      </trkpt>
      <trkpt lat="43.54602" lon="2.16974">
        <ele>194.32</ele>
        <time>2014-11-16T09:18:05Z</time>
      </trkpt>
      <trkpt lat="43.54608" lon="2.16957">
        <ele>195.28</ele>
        <time>2014-11-16T09:18:07Z</time>
      </trkpt>
      <trkpt lat="43.54613" lon="2.1694">
        <ele>195.77</ele>
        <time>2014-11-16T09:18:09Z</time>
      </trkpt>
      <trkpt lat="43.54617" lon="2.16923">
        <ele>195.77</ele>
        <time>2014-11-16T09:18:11Z</time>
      </trkpt>
      <trkpt lat="43.5462" lon="2.16909">
        <ele>196.25</ele>
        <time>2014-11-16T09:18:13Z</time>
      </trkpt>
      <trkpt lat="43.54623" lon="2.16897">
        <ele>197.21</ele>
        <time>2014-11-16T09:18:15Z</time>
      </trkpt>
      <trkpt lat="43.54627" lon="2.16881">
        <ele>197.69</ele>
        <time>2014-11-16T09:18:18Z</time>
      </trkpt>
      <trkpt lat="43.54631" lon="2.16866">
        <ele>198.17</ele>
        <time>2014-11-16T09:18:21Z</time>
      </trkpt>
      <trkpt lat="43.54635" lon="2.16849">
        <ele>198.65</ele>
        <time>2014-11-16T09:18:25Z</time>
      </trkpt>
      <trkpt lat="43.54638" lon="2.16836">
        <ele>199.13</ele>
        <time>2014-11-16T09:18:28Z</time>
      </trkpt>
      <trkpt lat="43.5464" lon="2.16822">
        <ele>198.65</ele>
        <time>2014-11-16T09:18:31Z</time>
      </trkpt>
      <trkpt lat="43.54639" lon="2.16807">
        <ele>198.65</ele>
        <time>2014-11-16T09:18:34Z</time>
      </trkpt>
      <trkpt lat="43.54642" lon="2.16793">
        <ele>198.65</ele>
        <time>2014-11-16T09:18:37Z</time>
      </trkpt>
      <trkpt lat="43.54644" lon="2.16778">
        <ele>199.13</ele>
        <time>2014-11-16T09:18:40Z</time>
      </trkpt>
      <trkpt lat="43.54646" lon="2.1676">
        <ele>199.13</ele>
        <time>2014-11-16T09:18:43Z</time>
      </trkpt>
      <trkpt lat="43.54648" lon="2.16745">
        <ele>199.13</ele>
        <time>2014-11-16T09:18:45Z</time>
      </trkpt>
      <trkpt lat="43.5465" lon="2.16729">
        <ele>199.13</ele>
        <time>2014-11-16T09:18:47Z</time>
      </trkpt>
      <trkpt lat="43.54653" lon="2.16715">
        <ele>199.13</ele>
        <time>2014-11-16T09:18:49Z</time>
      </trkpt>
      <trkpt lat="43.54656" lon="2.16701">
        <ele>198.65</ele>
        <time>2014-11-16T09:18:51Z</time>
      </trkpt>
      <trkpt lat="43.54658" lon="2.16687">
        <ele>198.65</ele>
        <time>2014-11-16T09:18:53Z</time>
      </trkpt>
      <trkpt lat="43.54661" lon="2.16673">
        <ele>198.65</ele>
        <time>2014-11-16T09:18:55Z</time>
      </trkpt>
      <trkpt lat="43.54664" lon="2.1666">
        <ele>198.65</ele>
        <time>2014-11-16T09:18:57Z</time>
      </trkpt>
      <trkpt lat="43.54666" lon="2.16646">
        <ele>198.65</ele>
        <time>2014-11-16T09:18:59Z</time>
      </trkpt>
      <trkpt lat="43.54669" lon="2.16632">
        <ele>198.17</ele>
        <time>2014-11-16T09:19:01Z</time>
      </trkpt>
      <trkpt lat="43.54672" lon="2.16618">
        <ele>198.17</ele>
        <time>2014-11-16T09:19:03Z</time>
      </trkpt>
      <trkpt lat="43.54674" lon="2.16604">
        <ele>198.17</ele>
        <time>2014-11-16T09:19:05Z</time>
      </trkpt>
      <trkpt lat="43.54677" lon="2.16589">
        <ele>198.17</ele>
        <time>2014-11-16T09:19:07Z</time>
      </trkpt>
      <trkpt lat="43.5468" lon="2.16575">
        <ele>198.17</ele>
        <time>2014-11-16T09:19:09Z</time>
      </trkpt>
      <trkpt lat="43.54682" lon="2.1656">
        <ele>198.17</ele>
        <time>2014-11-16T09:19:11Z</time>
      </trkpt>
      <trkpt lat="43.54685" lon="2.16545">
        <ele>197.69</ele>
        <time>2014-11-16T09:19:13Z</time>
      </trkpt>
      <trkpt lat="43.54688" lon="2.1653">
        <ele>197.69</ele>
        <time>2014-11-16T09:19:15Z</time>
      </trkpt>
      <trkpt lat="43.54692" lon="2.16515">
        <ele>197.21</ele>
        <time>2014-11-16T09:19:17Z</time>
      </trkpt>
      <trkpt lat="43.54698" lon="2.16499">
        <ele>196.73</ele>
        <time>2014-11-16T09:19:19Z</time>
      </trkpt>
      <trkpt lat="43.54705" lon="2.16482">
        <ele>195.77</ele>
        <time>2014-11-16T09:19:21Z</time>
      </trkpt>
      <trkpt lat="43.54713" lon="2.16466">
        <ele>195.28</ele>
        <time>2014-11-16T09:19:23Z</time>
      </trkpt>
      <trkpt lat="43.54723" lon="2.16453">
        <ele>194.8</ele>
        <time>2014-11-16T09:19:25Z</time>
      </trkpt>
      <trkpt lat="43.54733" lon="2.1644">
        <ele>194.8</ele>
        <time>2014-11-16T09:19:27Z</time>
      </trkpt>
      <trkpt lat="43.54743" lon="2.16429">
        <ele>195.28</ele>
        <time>2014-11-16T09:19:29Z</time>
      </trkpt>
      <trkpt lat="43.54752" lon="2.16417">
        <ele>195.77</ele>
        <time>2014-11-16T09:19:31Z</time>
      </trkpt>
      <trkpt lat="43.54759" lon="2.16405">
        <ele>196.25</ele>
        <time>2014-11-16T09:19:33Z</time>
      </trkpt>
      <trkpt lat="43.54766" lon="2.16392">
        <ele>196.73</ele>
        <time>2014-11-16T09:19:35Z</time>
      </trkpt>
      <trkpt lat="43.54773" lon="2.1638">
        <ele>196.73</ele>
        <time>2014-11-16T09:19:37Z</time>
      </trkpt>
      <trkpt lat="43.54781" lon="2.16368">
        <ele>196.25</ele>
        <time>2014-11-16T09:19:39Z</time>
      </trkpt>
      <trkpt lat="43.54789" lon="2.16356">
        <ele>196.25</ele>
        <time>2014-11-16T09:19:41Z</time>
      </trkpt>
      <trkpt lat="43.54797" lon="2.16342">
        <ele>196.25</ele>
        <time>2014-11-16T09:19:43Z</time>
      </trkpt>
      <trkpt lat="43.54804" lon="2.16329">
        <ele>195.77</ele>
        <time>2014-11-16T09:19:45Z</time>
      </trkpt>
      <trkpt lat="43.54812" lon="2.16317">
        <ele>196.25</ele>
        <time>2014-11-16T09:19:47Z</time>
      </trkpt>
      <trkpt lat="43.5482" lon="2.16306">
        <ele>195.77</ele>
        <time>2014-11-16T09:19:49Z</time>
      </trkpt>
      <trkpt lat="43.54828" lon="2.16294">
        <ele>195.28</ele>
        <time>2014-11-16T09:19:51Z</time>
      </trkpt>
      <trkpt lat="43.54837" lon="2.16282">
        <ele>195.28</ele>
        <time>2014-11-16T09:19:53Z</time>
      </trkpt>
      <trkpt lat="43.54846" lon="2.16271">
        <ele>194.8</ele>
        <time>2014-11-16T09:19:55Z</time>
      </trkpt>
      <trkpt lat="43.54856" lon="2.16259">
        <ele>194.8</ele>
        <time>2014-11-16T09:19:57Z</time>
      </trkpt>
      <trkpt lat="43.54866" lon="2.16247">
        <ele>194.32</ele>
        <time>2014-11-16T09:19:59Z</time>
      </trkpt>
      <trkpt lat="43.54875" lon="2.16234">
        <ele>193.84</ele>
        <time>2014-11-16T09:20:01Z</time>
      </trkpt>
      <trkpt lat="43.54884" lon="2.16222">
        <ele>193.36</ele>
        <time>2014-11-16T09:20:03Z</time>
      </trkpt>
      <trkpt lat="43.54893" lon="2.16207">
        <ele>192.88</ele>
        <time>2014-11-16T09:20:05Z</time>
      </trkpt>
      <trkpt lat="43.54901" lon="2.16191">
        <ele>192.4</ele>
        <time>2014-11-16T09:20:07Z</time>
      </trkpt>
      <trkpt lat="43.5491" lon="2.16177">
        <ele>192.4</ele>
        <time>2014-11-16T09:20:09Z</time>
      </trkpt>
      <trkpt lat="43.54922" lon="2.16167">
        <ele>192.4</ele>
        <time>2014-11-16T09:20:11Z</time>
      </trkpt>
      <trkpt lat="43.54933" lon="2.1616">
        <ele>192.4</ele>
        <time>2014-11-16T09:20:13Z</time>
      </trkpt>
      <trkpt lat="43.54944" lon="2.16154">
        <ele>192.4</ele>
        <time>2014-11-16T09:20:15Z</time>
      </trkpt>
      <trkpt lat="43.54953" lon="2.16148">
        <ele>192.88</ele>
        <time>2014-11-16T09:20:17Z</time>
      </trkpt>
      <trkpt lat="43.54964" lon="2.1614">
        <ele>193.36</ele>
        <time>2014-11-16T09:20:19Z</time>
      </trkpt>
      <trkpt lat="43.54973" lon="2.1613">
        <ele>193.36</ele>
        <time>2014-11-16T09:20:21Z</time>
      </trkpt>
      <trkpt lat="43.54981" lon="2.16117">
        <ele>193.36</ele>
        <time>2014-11-16T09:20:23Z</time>
      </trkpt>
      <trkpt lat="43.54989" lon="2.16104">
        <ele>193.36</ele>
        <time>2014-11-16T09:20:25Z</time>
      </trkpt>
      <trkpt lat="43.54996" lon="2.16089">
        <ele>194.32</ele>
        <time>2014-11-16T09:20:27Z</time>
      </trkpt>
      <trkpt lat="43.55004" lon="2.16076">
        <ele>194.8</ele>
        <time>2014-11-16T09:20:29Z</time>
      </trkpt>
      <trkpt lat="43.5501" lon="2.16062">
        <ele>195.28</ele>
        <time>2014-11-16T09:20:31Z</time>
      </trkpt>
      <trkpt lat="43.55017" lon="2.1605">
        <ele>195.28</ele>
        <time>2014-11-16T09:20:33Z</time>
      </trkpt>
      <trkpt lat="43.55024" lon="2.16037">
        <ele>195.28</ele>
        <time>2014-11-16T09:20:35Z</time>
      </trkpt>
      <trkpt lat="43.5503" lon="2.16025">
        <ele>195.28</ele>
        <time>2014-11-16T09:20:37Z</time>
      </trkpt>
      <trkpt lat="43.55036" lon="2.16012">
        <ele>195.77</ele>
        <time>2014-11-16T09:20:39Z</time>
      </trkpt>
      <trkpt lat="43.55043" lon="2.15999">
        <ele>195.28</ele>
        <time>2014-11-16T09:20:41Z</time>
      </trkpt>
      <trkpt lat="43.5505" lon="2.15986">
        <ele>195.28</ele>
        <time>2014-11-16T09:20:43Z</time>
      </trkpt>
      <trkpt lat="43.55057" lon="2.15974">
        <ele>195.28</ele>
        <time>2014-11-16T09:20:45Z</time>
      </trkpt>
      <trkpt lat="43.55064" lon="2.15962">
        <ele>195.28</ele>
        <time>2014-11-16T09:20:47Z</time>
      </trkpt>
      <trkpt lat="43.55072" lon="2.15951">
        <ele>195.77</ele>
        <time>2014-11-16T09:20:49Z</time>
      </trkpt>
      <trkpt lat="43.55079" lon="2.15939">
        <ele>195.77</ele>
        <time>2014-11-16T09:20:51Z</time>
      </trkpt>
      <trkpt lat="43.55085" lon="2.15928">
        <ele>195.77</ele>
        <time>2014-11-16T09:20:53Z</time>
      </trkpt>
      <trkpt lat="43.55092" lon="2.15916">
        <ele>195.77</ele>
        <time>2014-11-16T09:20:55Z</time>
      </trkpt>
      <trkpt lat="43.55098" lon="2.15904">
        <ele>195.77</ele>
        <time>2014-11-16T09:20:57Z</time>
      </trkpt>
      <trkpt lat="43.55104" lon="2.15892">
        <ele>196.25</ele>
        <time>2014-11-16T09:20:59Z</time>
      </trkpt>
      <trkpt lat="43.5511" lon="2.1588">
        <ele>196.25</ele>
        <time>2014-11-16T09:21:01Z</time>
      </trkpt>
      <trkpt lat="43.55116" lon="2.15868">
        <ele>196.25</ele>
        <time>2014-11-16T09:21:03Z</time>
      </trkpt>
      <trkpt lat="43.55121" lon="2.15855">
        <ele>196.25</ele>
        <time>2014-11-16T09:21:05Z</time>
      </trkpt>
      <trkpt lat="43.55126" lon="2.15841">
        <ele>196.25</ele>
        <time>2014-11-16T09:21:07Z</time>
      </trkpt>
      <trkpt lat="43.55131" lon="2.15828">
        <ele>196.25</ele>
        <time>2014-11-16T09:21:09Z</time>
      </trkpt>
      <trkpt lat="43.55137" lon="2.15814">
        <ele>195.77</ele>
        <time>2014-11-16T09:21:11Z</time>
      </trkpt>
      <trkpt lat="43.55145" lon="2.15802">
        <ele>195.77</ele>
        <time>2014-11-16T09:21:13Z</time>
      </trkpt>
      <trkpt lat="43.55152" lon="2.1579">
        <ele>195.77</ele>
        <time>2014-11-16T09:21:15Z</time>
      </trkpt>
      <trkpt lat="43.55159" lon="2.15778">
        <ele>195.28</ele>
        <time>2014-11-16T09:21:17Z</time>
      </trkpt>
      <trkpt lat="43.55167" lon="2.15767">
        <ele>195.28</ele>
        <time>2014-11-16T09:21:19Z</time>
      </trkpt>
      <trkpt lat="43.55174" lon="2.15755">
        <ele>195.28</ele>
        <time>2014-11-16T09:21:21Z</time>
      </trkpt>
      <trkpt lat="43.55181" lon="2.15743">
        <ele>195.28</ele>
        <time>2014-11-16T09:21:23Z</time>
      </trkpt>
      <trkpt lat="43.55188" lon="2.15732">
        <ele>194.8</ele>
        <time>2014-11-16T09:21:25Z</time>
      </trkpt>
      <trkpt lat="43.55196" lon="2.15721">
        <ele>194.8</ele>
        <time>2014-11-16T09:21:27Z</time>
      </trkpt>
      <trkpt lat="43.55204" lon="2.15711">
        <ele>194.8</ele>
        <time>2014-11-16T09:21:29Z</time>
      </trkpt>
      <trkpt lat="43.55213" lon="2.15703">
        <ele>194.8</ele>
        <time>2014-11-16T09:21:31Z</time>
      </trkpt>
      <trkpt lat="43.55222" lon="2.15696">
        <ele>194.8</ele>
        <time>2014-11-16T09:21:33Z</time>
      </trkpt>
      <trkpt lat="43.55231" lon="2.15689">
        <ele>194.32</ele>
        <time>2014-11-16T09:21:35Z</time>
      </trkpt>
      <trkpt lat="43.55241" lon="2.15683">
        <ele>193.84</ele>
        <time>2014-11-16T09:21:37Z</time>
      </trkpt>
      <trkpt lat="43.55252" lon="2.15677">
        <ele>192.88</ele>
        <time>2014-11-16T09:21:39Z</time>
      </trkpt>
      <trkpt lat="43.55263" lon="2.1567">
        <ele>192.4</ele>
        <time>2014-11-16T09:21:41Z</time>
      </trkpt>
      <trkpt lat="43.55274" lon="2.15662">
        <ele>191.44</ele>
        <time>2014-11-16T09:21:43Z</time>
      </trkpt>
      <trkpt lat="43.55286" lon="2.15655">
        <ele>190.48</ele>
        <time>2014-11-16T09:21:45Z</time>
      </trkpt>
      <trkpt lat="43.55297" lon="2.15649">
        <ele>189.52</ele>
        <time>2014-11-16T09:21:47Z</time>
      </trkpt>
      <trkpt lat="43.55307" lon="2.15643">
        <ele>190</ele>
        <time>2014-11-16T09:21:49Z</time>
      </trkpt>
      <trkpt lat="43.55316" lon="2.15638">
        <ele>188.56</ele>
        <time>2014-11-16T09:21:51Z</time>
      </trkpt>
      <trkpt lat="43.55324" lon="2.15625">
        <ele>188.08</ele>
        <time>2014-11-16T09:21:54Z</time>
      </trkpt>
      <trkpt lat="43.55329" lon="2.15613">
        <ele>188.08</ele>
        <time>2014-11-16T09:21:56Z</time>
      </trkpt>
      <trkpt lat="43.55331" lon="2.15599">
        <ele>188.08</ele>
        <time>2014-11-16T09:21:58Z</time>
      </trkpt>
      <trkpt lat="43.55332" lon="2.15584">
        <ele>188.08</ele>
        <time>2014-11-16T09:22:00Z</time>
      </trkpt>
      <trkpt lat="43.55333" lon="2.15569">
        <ele>188.08</ele>
        <time>2014-11-16T09:22:02Z</time>
      </trkpt>
      <trkpt lat="43.55334" lon="2.15554">
        <ele>188.08</ele>
        <time>2014-11-16T09:22:04Z</time>
      </trkpt>
      <trkpt lat="43.55335" lon="2.15538">
        <ele>188.56</ele>
        <time>2014-11-16T09:22:06Z</time>
      </trkpt>
      <trkpt lat="43.55336" lon="2.15522">
        <ele>188.56</ele>
        <time>2014-11-16T09:22:08Z</time>
      </trkpt>
      <trkpt lat="43.55337" lon="2.15507">
        <ele>189.04</ele>
        <time>2014-11-16T09:22:10Z</time>
      </trkpt>
      <trkpt lat="43.55338" lon="2.15491">
        <ele>189.04</ele>
        <time>2014-11-16T09:22:12Z</time>
      </trkpt>
      <trkpt lat="43.55339" lon="2.15476">
        <ele>189.04</ele>
        <time>2014-11-16T09:22:14Z</time>
      </trkpt>
      <trkpt lat="43.55341" lon="2.1546">
        <ele>189.52</ele>
        <time>2014-11-16T09:22:16Z</time>
      </trkpt>
      <trkpt lat="43.55342" lon="2.15444">
        <ele>189.52</ele>
        <time>2014-11-16T09:22:18Z</time>
      </trkpt>
      <trkpt lat="43.55343" lon="2.15429">
        <ele>190</ele>
        <time>2014-11-16T09:22:20Z</time>
      </trkpt>
      <trkpt lat="43.55344" lon="2.15413">
        <ele>190.48</ele>
        <time>2014-11-16T09:22:22Z</time>
      </trkpt>
      <trkpt lat="43.55345" lon="2.15398">
        <ele>190.48</ele>
        <time>2014-11-16T09:22:24Z</time>
      </trkpt>
      <trkpt lat="43.55346" lon="2.15383">
        <ele>190.48</ele>
        <time>2014-11-16T09:22:26Z</time>
      </trkpt>
      <trkpt lat="43.55347" lon="2.15368">
        <ele>190.96</ele>
        <time>2014-11-16T09:22:28Z</time>
      </trkpt>
      <trkpt lat="43.55349" lon="2.15354">
        <ele>191.44</ele>
        <time>2014-11-16T09:22:30Z</time>
      </trkpt>
      <trkpt lat="43.55349" lon="2.15339">
        <ele>191.44</ele>
        <time>2014-11-16T09:22:32Z</time>
      </trkpt>
      <trkpt lat="43.5535" lon="2.15323">
        <ele>191.92</ele>
        <time>2014-11-16T09:22:34Z</time>
      </trkpt>
      <trkpt lat="43.55351" lon="2.15307">
        <ele>191.92</ele>
        <time>2014-11-16T09:22:36Z</time>
      </trkpt>
      <trkpt lat="43.55352" lon="2.1529">
        <ele>192.4</ele>
        <time>2014-11-16T09:22:38Z</time>
      </trkpt>
      <trkpt lat="43.55354" lon="2.15273">
        <ele>192.4</ele>
        <time>2014-11-16T09:22:40Z</time>
      </trkpt>
      <trkpt lat="43.55355" lon="2.15257">
        <ele>192.88</ele>
        <time>2014-11-16T09:22:42Z</time>
      </trkpt>
      <trkpt lat="43.55356" lon="2.15241">
        <ele>193.36</ele>
        <time>2014-11-16T09:22:44Z</time>
      </trkpt>
      <trkpt lat="43.55357" lon="2.15224">
        <ele>193.36</ele>
        <time>2014-11-16T09:22:46Z</time>
      </trkpt>
      <trkpt lat="43.55358" lon="2.15208">
        <ele>193.36</ele>
        <time>2014-11-16T09:22:48Z</time>
      </trkpt>
      <trkpt lat="43.55359" lon="2.15192">
        <ele>193.36</ele>
        <time>2014-11-16T09:22:50Z</time>
      </trkpt>
      <trkpt lat="43.55361" lon="2.15175">
        <ele>193.84</ele>
        <time>2014-11-16T09:22:52Z</time>
      </trkpt>
      <trkpt lat="43.55362" lon="2.15159">
        <ele>193.84</ele>
        <time>2014-11-16T09:22:54Z</time>
      </trkpt>
      <trkpt lat="43.55363" lon="2.15143">
        <ele>193.84</ele>
        <time>2014-11-16T09:22:56Z</time>
      </trkpt>
      <trkpt lat="43.55364" lon="2.15127">
        <ele>193.84</ele>
        <time>2014-11-16T09:22:58Z</time>
      </trkpt>
      <trkpt lat="43.55365" lon="2.15111">
        <ele>194.32</ele>
        <time>2014-11-16T09:23:00Z</time>
      </trkpt>
      <trkpt lat="43.55367" lon="2.15096">
        <ele>194.32</ele>
        <time>2014-11-16T09:23:02Z</time>
      </trkpt>
      <trkpt lat="43.55368" lon="2.1508">
        <ele>194.32</ele>
        <time>2014-11-16T09:23:04Z</time>
      </trkpt>
      <trkpt lat="43.55369" lon="2.15065">
        <ele>194.32</ele>
        <time>2014-11-16T09:23:06Z</time>
      </trkpt>
      <trkpt lat="43.5537" lon="2.1505">
        <ele>194.32</ele>
        <time>2014-11-16T09:23:08Z</time>
      </trkpt>
      <trkpt lat="43.55371" lon="2.15035">
        <ele>194.32</ele>
        <time>2014-11-16T09:23:10Z</time>
      </trkpt>
      <trkpt lat="43.55372" lon="2.15019">
        <ele>194.8</ele>
        <time>2014-11-16T09:23:12Z</time>
      </trkpt>
      <trkpt lat="43.55373" lon="2.15004">
        <ele>194.8</ele>
        <time>2014-11-16T09:23:14Z</time>
      </trkpt>
      <trkpt lat="43.55375" lon="2.14989">
        <ele>194.32</ele>
        <time>2014-11-16T09:23:16Z</time>
      </trkpt>
      <trkpt lat="43.55376" lon="2.14974">
        <ele>194.8</ele>
        <time>2014-11-16T09:23:18Z</time>
      </trkpt>
      <trkpt lat="43.55377" lon="2.14958">
        <ele>194.8</ele>
        <time>2014-11-16T09:23:20Z</time>
      </trkpt>
      <trkpt lat="43.55378" lon="2.14943">
        <ele>194.8</ele>
        <time>2014-11-16T09:23:22Z</time>
      </trkpt>
      <trkpt lat="43.55379" lon="2.14929">
        <ele>194.8</ele>
        <time>2014-11-16T09:23:24Z</time>
      </trkpt>
      <trkpt lat="43.5538" lon="2.14916">
        <ele>194.8</ele>
        <time>2014-11-16T09:23:26Z</time>
      </trkpt>
      <trkpt lat="43.55385" lon="2.14905">
        <ele>194.8</ele>
        <time>2014-11-16T09:23:28Z</time>
      </trkpt>
      <trkpt lat="43.55394" lon="2.14905">
        <ele>194.32</ele>
        <time>2014-11-16T09:23:30Z</time>
      </trkpt>
      <trkpt lat="43.55406" lon="2.14913">
        <ele>194.32</ele>
        <time>2014-11-16T09:23:33Z</time>
      </trkpt>
      <trkpt lat="43.55418" lon="2.14919">
        <ele>194.32</ele>
        <time>2014-11-16T09:23:36Z</time>
      </trkpt>
      <trkpt lat="43.55429" lon="2.14926">
        <ele>194.32</ele>
        <time>2014-11-16T09:23:39Z</time>
      </trkpt>
      <trkpt lat="43.5544" lon="2.14932">
        <ele>194.32</ele>
        <time>2014-11-16T09:23:42Z</time>
      </trkpt>
      <trkpt lat="43.55451" lon="2.14939">
        <ele>193.84</ele>
        <time>2014-11-16T09:23:45Z</time>
      </trkpt>
      <trkpt lat="43.55462" lon="2.14945">
        <ele>193.84</ele>
        <time>2014-11-16T09:23:48Z</time>
      </trkpt>
      <trkpt lat="43.55473" lon="2.14951">
        <ele>194.32</ele>
        <time>2014-11-16T09:23:51Z</time>
      </trkpt>
      <trkpt lat="43.55483" lon="2.14957">
        <ele>194.32</ele>
        <time>2014-11-16T09:23:54Z</time>
      </trkpt>
      <trkpt lat="43.55493" lon="2.14965">
        <ele>194.32</ele>
        <time>2014-11-16T09:23:57Z</time>
      </trkpt>
      <trkpt lat="43.55502" lon="2.14977">
        <ele>193.84</ele>
        <time>2014-11-16T09:24:00Z</time>
      </trkpt>
      <trkpt lat="43.55508" lon="2.1499">
        <ele>193.84</ele>
        <time>2014-11-16T09:24:03Z</time>
      </trkpt>
      <trkpt lat="43.55513" lon="2.15003">
        <ele>193.84</ele>
        <time>2014-11-16T09:24:06Z</time>
      </trkpt>
      <trkpt lat="43.55519" lon="2.15016">
        <ele>193.84</ele>
        <time>2014-11-16T09:24:09Z</time>
      </trkpt>
      <trkpt lat="43.55524" lon="2.1503">
        <ele>193.84</ele>
        <time>2014-11-16T09:24:12Z</time>
      </trkpt>
      <trkpt lat="43.5553" lon="2.15043">
        <ele>193.84</ele>
        <time>2014-11-16T09:24:15Z</time>
      </trkpt>
      <trkpt lat="43.55536" lon="2.15056">
        <ele>193.84</ele>
        <time>2014-11-16T09:24:18Z</time>
      </trkpt>
      <trkpt lat="43.55541" lon="2.1507">
        <ele>193.84</ele>
        <time>2014-11-16T09:24:21Z</time>
      </trkpt>
      <trkpt lat="43.55547" lon="2.15084">
        <ele>193.84</ele>
        <time>2014-11-16T09:24:24Z</time>
      </trkpt>
      <trkpt lat="43.55553" lon="2.15098">
        <ele>193.84</ele>
        <time>2014-11-16T09:24:27Z</time>
      </trkpt>
      <trkpt lat="43.55558" lon="2.15113">
        <ele>193.84</ele>
        <time>2014-11-16T09:24:30Z</time>
      </trkpt>
      <trkpt lat="43.55562" lon="2.1513">
        <ele>193.36</ele>
        <time>2014-11-16T09:24:33Z</time>
      </trkpt>
      <trkpt lat="43.55566" lon="2.15142">
        <ele>192.88</ele>
        <time>2014-11-16T09:24:35Z</time>
      </trkpt>
      <trkpt lat="43.55568" lon="2.15155">
        <ele>192.4</ele>
        <time>2014-11-16T09:24:37Z</time>
      </trkpt>
      <trkpt lat="43.55572" lon="2.15168">
        <ele>191.44</ele>
        <time>2014-11-16T09:24:39Z</time>
      </trkpt>
      <trkpt lat="43.55575" lon="2.15182">
        <ele>190.96</ele>
        <time>2014-11-16T09:24:41Z</time>
      </trkpt>
      <trkpt lat="43.55578" lon="2.15197">
        <ele>190.48</ele>
        <time>2014-11-16T09:24:43Z</time>
      </trkpt>
      <trkpt lat="43.55582" lon="2.15211">
        <ele>190</ele>
        <time>2014-11-16T09:24:45Z</time>
      </trkpt>
      <trkpt lat="43.55585" lon="2.15226">
        <ele>189.04</ele>
        <time>2014-11-16T09:24:47Z</time>
      </trkpt>
      <trkpt lat="43.5559" lon="2.15242">
        <ele>188.56</ele>
        <time>2014-11-16T09:24:49Z</time>
      </trkpt>
      <trkpt lat="43.55593" lon="2.15258">
        <ele>188.08</ele>
        <time>2014-11-16T09:24:51Z</time>
      </trkpt>
      <trkpt lat="43.55597" lon="2.15273">
        <ele>187.11</ele>
        <time>2014-11-16T09:24:53Z</time>
      </trkpt>
      <trkpt lat="43.55601" lon="2.15289">
        <ele>186.63</ele>
        <time>2014-11-16T09:24:55Z</time>
      </trkpt>
      <trkpt lat="43.55605" lon="2.15305">
        <ele>185.67</ele>
        <time>2014-11-16T09:24:57Z</time>
      </trkpt>
      <trkpt lat="43.55609" lon="2.15321">
        <ele>185.19</ele>
        <time>2014-11-16T09:24:59Z</time>
      </trkpt>
      <trkpt lat="43.55612" lon="2.15338">
        <ele>184.71</ele>
        <time>2014-11-16T09:25:01Z</time>
      </trkpt>
      <trkpt lat="43.55614" lon="2.15353">
        <ele>184.71</ele>
        <time>2014-11-16T09:25:03Z</time>
      </trkpt>
      <trkpt lat="43.55616" lon="2.15369">
        <ele>184.71</ele>
        <time>2014-11-16T09:25:05Z</time>
      </trkpt>
      <trkpt lat="43.55618" lon="2.15384">
        <ele>184.71</ele>
        <time>2014-11-16T09:25:07Z</time>
      </trkpt>
      <trkpt lat="43.55621" lon="2.15399">
        <ele>184.71</ele>
        <time>2014-11-16T09:25:09Z</time>
      </trkpt>
      <trkpt lat="43.55623" lon="2.15413">
        <ele>184.71</ele>
        <time>2014-11-16T09:25:11Z</time>
      </trkpt>
      <trkpt lat="43.55625" lon="2.15429">
        <ele>184.71</ele>
        <time>2014-11-16T09:25:14Z</time>
      </trkpt>
      <trkpt lat="43.55629" lon="2.15445">
        <ele>184.71</ele>
        <time>2014-11-16T09:25:17Z</time>
      </trkpt>
      <trkpt lat="43.55632" lon="2.15462">
        <ele>184.71</ele>
        <time>2014-11-16T09:25:20Z</time>
      </trkpt>
      <trkpt lat="43.55636" lon="2.15479">
        <ele>185.19</ele>
        <time>2014-11-16T09:25:23Z</time>
      </trkpt>
      <trkpt lat="43.55639" lon="2.15491">
        <ele>185.19</ele>
        <time>2014-11-16T09:25:25Z</time>
      </trkpt>
      <trkpt lat="43.55643" lon="2.15504">
        <ele>185.19</ele>
        <time>2014-11-16T09:25:27Z</time>
      </trkpt>
      <trkpt lat="43.55647" lon="2.15517">
        <ele>185.19</ele>
        <time>2014-11-16T09:25:29Z</time>
      </trkpt>
      <trkpt lat="43.55651" lon="2.15529">
        <ele>185.19</ele>
        <time>2014-11-16T09:25:31Z</time>
      </trkpt>
      <trkpt lat="43.55655" lon="2.15541">
        <ele>185.19</ele>
        <time>2014-11-16T09:25:33Z</time>
      </trkpt>
      <trkpt lat="43.55659" lon="2.15553">
        <ele>185.19</ele>
        <time>2014-11-16T09:25:35Z</time>
      </trkpt>
      <trkpt lat="43.55663" lon="2.15564">
        <ele>185.19</ele>
        <time>2014-11-16T09:25:37Z</time>
      </trkpt>
      <trkpt lat="43.55667" lon="2.15576">
        <ele>185.19</ele>
        <time>2014-11-16T09:25:39Z</time>
      </trkpt>
      <trkpt lat="43.55671" lon="2.15588">
        <ele>184.71</ele>
        <time>2014-11-16T09:25:41Z</time>
      </trkpt>
      <trkpt lat="43.55675" lon="2.15601">
        <ele>184.71</ele>
        <time>2014-11-16T09:25:43Z</time>
      </trkpt>
      <trkpt lat="43.55678" lon="2.15613">
        <ele>184.71</ele>
        <time>2014-11-16T09:25:45Z</time>
      </trkpt>
      <trkpt lat="43.55682" lon="2.15624">
        <ele>184.71</ele>
        <time>2014-11-16T09:25:47Z</time>
      </trkpt>
      <trkpt lat="43.55686" lon="2.15636">
        <ele>184.71</ele>
        <time>2014-11-16T09:25:49Z</time>
      </trkpt>
      <trkpt lat="43.55691" lon="2.15652">
        <ele>185.19</ele>
        <time>2014-11-16T09:25:52Z</time>
      </trkpt>
      <trkpt lat="43.55696" lon="2.15668">
        <ele>184.71</ele>
        <time>2014-11-16T09:25:55Z</time>
      </trkpt>
      <trkpt lat="43.55701" lon="2.15684">
        <ele>184.71</ele>
        <time>2014-11-16T09:25:58Z</time>
      </trkpt>
      <trkpt lat="43.55706" lon="2.15701">
        <ele>184.71</ele>
        <time>2014-11-16T09:26:01Z</time>
      </trkpt>
      <trkpt lat="43.55711" lon="2.15718">
        <ele>184.71</ele>
        <time>2014-11-16T09:26:04Z</time>
      </trkpt>
      <trkpt lat="43.55714" lon="2.15729">
        <ele>184.71</ele>
        <time>2014-11-16T09:26:06Z</time>
      </trkpt>
      <trkpt lat="43.55718" lon="2.15741">
        <ele>184.71</ele>
        <time>2014-11-16T09:26:08Z</time>
      </trkpt>
      <trkpt lat="43.55722" lon="2.15754">
        <ele>184.23</ele>
        <time>2014-11-16T09:26:10Z</time>
      </trkpt>
      <trkpt lat="43.55726" lon="2.15767">
        <ele>184.23</ele>
        <time>2014-11-16T09:26:12Z</time>
      </trkpt>
      <trkpt lat="43.5573" lon="2.15781">
        <ele>183.27</ele>
        <time>2014-11-16T09:26:14Z</time>
      </trkpt>
      <trkpt lat="43.55734" lon="2.15796">
        <ele>182.79</ele>
        <time>2014-11-16T09:26:16Z</time>
      </trkpt>
      <trkpt lat="43.55738" lon="2.1581">
        <ele>182.31</ele>
        <time>2014-11-16T09:26:18Z</time>
      </trkpt>
      <trkpt lat="43.55742" lon="2.15825">
        <ele>181.83</ele>
        <time>2014-11-16T09:26:20Z</time>
      </trkpt>
      <trkpt lat="43.55746" lon="2.1584">
        <ele>181.83</ele>
        <time>2014-11-16T09:26:22Z</time>
      </trkpt>
      <trkpt lat="43.5575" lon="2.15855">
        <ele>181.35</ele>
        <time>2014-11-16T09:26:24Z</time>
      </trkpt>
      <trkpt lat="43.55754" lon="2.1587">
        <ele>181.35</ele>
        <time>2014-11-16T09:26:26Z</time>
      </trkpt>
      <trkpt lat="43.55758" lon="2.15884">
        <ele>181.35</ele>
        <time>2014-11-16T09:26:28Z</time>
      </trkpt>
      <trkpt lat="43.55761" lon="2.15899">
        <ele>181.35</ele>
        <time>2014-11-16T09:26:30Z</time>
      </trkpt>
      <trkpt lat="43.55764" lon="2.15914">
        <ele>181.35</ele>
        <time>2014-11-16T09:26:32Z</time>
      </trkpt>
      <trkpt lat="43.55766" lon="2.15929">
        <ele>181.35</ele>
        <time>2014-11-16T09:26:34Z</time>
      </trkpt>
      <trkpt lat="43.55766" lon="2.15944">
        <ele>181.35</ele>
        <time>2014-11-16T09:26:36Z</time>
      </trkpt>
      <trkpt lat="43.55766" lon="2.15958">
        <ele>181.83</ele>
        <time>2014-11-16T09:26:38Z</time>
      </trkpt>
      <trkpt lat="43.55766" lon="2.15973">
        <ele>181.35</ele>
        <time>2014-11-16T09:26:40Z</time>
      </trkpt>
      <trkpt lat="43.55766" lon="2.15988">
        <ele>181.35</ele>
        <time>2014-11-16T09:26:42Z</time>
      </trkpt>
      <trkpt lat="43.55765" lon="2.16003">
        <ele>181.35</ele>
        <time>2014-11-16T09:26:44Z</time>
      </trkpt>
      <trkpt lat="43.55762" lon="2.16017">
        <ele>181.35</ele>
        <time>2014-11-16T09:26:46Z</time>
      </trkpt>
      <trkpt lat="43.55759" lon="2.16031">
        <ele>180.87</ele>
        <time>2014-11-16T09:26:48Z</time>
      </trkpt>
      <trkpt lat="43.55755" lon="2.16045">
        <ele>180.87</ele>
        <time>2014-11-16T09:26:50Z</time>
      </trkpt>
      <trkpt lat="43.55752" lon="2.1606">
        <ele>181.35</ele>
        <time>2014-11-16T09:26:52Z</time>
      </trkpt>
      <trkpt lat="43.5575" lon="2.16073">
        <ele>181.35</ele>
        <time>2014-11-16T09:26:54Z</time>
      </trkpt>
      <trkpt lat="43.55748" lon="2.16087">
        <ele>181.35</ele>
        <time>2014-11-16T09:26:56Z</time>
      </trkpt>
      <trkpt lat="43.55747" lon="2.161">
        <ele>181.35</ele>
        <time>2014-11-16T09:26:58Z</time>
      </trkpt>
      <trkpt lat="43.55749" lon="2.16114">
        <ele>181.35</ele>
        <time>2014-11-16T09:27:00Z</time>
      </trkpt>
      <trkpt lat="43.55751" lon="2.16128">
        <ele>181.35</ele>
        <time>2014-11-16T09:27:02Z</time>
      </trkpt>
      <trkpt lat="43.55754" lon="2.16141">
        <ele>181.35</ele>
        <time>2014-11-16T09:27:04Z</time>
      </trkpt>
      <trkpt lat="43.55758" lon="2.16155">
        <ele>181.35</ele>
        <time>2014-11-16T09:27:06Z</time>
      </trkpt>
      <trkpt lat="43.55763" lon="2.16166">
        <ele>181.35</ele>
        <time>2014-11-16T09:27:08Z</time>
      </trkpt>
      <trkpt lat="43.55769" lon="2.16178">
        <ele>181.35</ele>
        <time>2014-11-16T09:27:10Z</time>
      </trkpt>
      <trkpt lat="43.55775" lon="2.16187">
        <ele>181.35</ele>
        <time>2014-11-16T09:27:12Z</time>
      </trkpt>
      <trkpt lat="43.55782" lon="2.16197">
        <ele>181.35</ele>
        <time>2014-11-16T09:27:14Z</time>
      </trkpt>
      <trkpt lat="43.5579" lon="2.16205">
        <ele>181.35</ele>
        <time>2014-11-16T09:27:16Z</time>
      </trkpt>
      <trkpt lat="43.55799" lon="2.16212">
        <ele>181.35</ele>
        <time>2014-11-16T09:27:18Z</time>
      </trkpt>
      <trkpt lat="43.55808" lon="2.16217">
        <ele>181.35</ele>
        <time>2014-11-16T09:27:20Z</time>
      </trkpt>
      <trkpt lat="43.55817" lon="2.16223">
        <ele>181.35</ele>
        <time>2014-11-16T09:27:22Z</time>
      </trkpt>
      <trkpt lat="43.55826" lon="2.1623">
        <ele>181.35</ele>
        <time>2014-11-16T09:27:24Z</time>
      </trkpt>
      <trkpt lat="43.55834" lon="2.16236">
        <ele>181.83</ele>
        <time>2014-11-16T09:27:26Z</time>
      </trkpt>
      <trkpt lat="43.55843" lon="2.16243">
        <ele>181.83</ele>
        <time>2014-11-16T09:27:28Z</time>
      </trkpt>
      <trkpt lat="43.55851" lon="2.16251">
        <ele>181.83</ele>
        <time>2014-11-16T09:27:30Z</time>
      </trkpt>
      <trkpt lat="43.55857" lon="2.16261">
        <ele>181.35</ele>
        <time>2014-11-16T09:27:32Z</time>
      </trkpt>
      <trkpt lat="43.55862" lon="2.16273">
        <ele>181.35</ele>
        <time>2014-11-16T09:27:34Z</time>
      </trkpt>
      <trkpt lat="43.55867" lon="2.16285">
        <ele>181.35</ele>
        <time>2014-11-16T09:27:36Z</time>
      </trkpt>
      <trkpt lat="43.55871" lon="2.16298">
        <ele>181.35</ele>
        <time>2014-11-16T09:27:38Z</time>
      </trkpt>
      <trkpt lat="43.55876" lon="2.1631">
        <ele>181.35</ele>
        <time>2014-11-16T09:27:40Z</time>
      </trkpt>
      <trkpt lat="43.55879" lon="2.16323">
        <ele>181.35</ele>
        <time>2014-11-16T09:27:42Z</time>
      </trkpt>
      <trkpt lat="43.55884" lon="2.16335">
        <ele>181.35</ele>
        <time>2014-11-16T09:27:44Z</time>
      </trkpt>
      <trkpt lat="43.55888" lon="2.16347">
        <ele>181.35</ele>
        <time>2014-11-16T09:27:46Z</time>
      </trkpt>
      <trkpt lat="43.55891" lon="2.16359">
        <ele>181.35</ele>
        <time>2014-11-16T09:27:48Z</time>
      </trkpt>
      <trkpt lat="43.55894" lon="2.16371">
        <ele>181.35</ele>
        <time>2014-11-16T09:27:50Z</time>
      </trkpt>
      <trkpt lat="43.55896" lon="2.16384">
        <ele>182.79</ele>
        <time>2014-11-16T09:27:52Z</time>
      </trkpt>
      <trkpt lat="43.55897" lon="2.16397">
        <ele>181.35</ele>
        <time>2014-11-16T09:27:54Z</time>
      </trkpt>
      <trkpt lat="43.55897" lon="2.1641">
        <ele>181.35</ele>
        <time>2014-11-16T09:27:56Z</time>
      </trkpt>
      <trkpt lat="43.55897" lon="2.16423">
        <ele>181.35</ele>
        <time>2014-11-16T09:27:58Z</time>
      </trkpt>
      <trkpt lat="43.55896" lon="2.16437">
        <ele>181.35</ele>
        <time>2014-11-16T09:28:00Z</time>
      </trkpt>
      <trkpt lat="43.55895" lon="2.1645">
        <ele>181.35</ele>
        <time>2014-11-16T09:28:02Z</time>
      </trkpt>
      <trkpt lat="43.55893" lon="2.16463">
        <ele>181.35</ele>
        <time>2014-11-16T09:28:04Z</time>
      </trkpt>
      <trkpt lat="43.55891" lon="2.16476">
        <ele>181.35</ele>
        <time>2014-11-16T09:28:06Z</time>
      </trkpt>
      <trkpt lat="43.5589" lon="2.1649">
        <ele>181.35</ele>
        <time>2014-11-16T09:28:08Z</time>
      </trkpt>
      <trkpt lat="43.55887" lon="2.16503">
        <ele>181.35</ele>
        <time>2014-11-16T09:28:10Z</time>
      </trkpt>
      <trkpt lat="43.55884" lon="2.16516">
        <ele>181.35</ele>
        <time>2014-11-16T09:28:12Z</time>
      </trkpt>
      <trkpt lat="43.55881" lon="2.16529">
        <ele>181.35</ele>
        <time>2014-11-16T09:28:14Z</time>
      </trkpt>
      <trkpt lat="43.55878" lon="2.16542">
        <ele>181.35</ele>
        <time>2014-11-16T09:28:16Z</time>
      </trkpt>
      <trkpt lat="43.55875" lon="2.16555">
        <ele>181.35</ele>
        <time>2014-11-16T09:28:18Z</time>
      </trkpt>
      <trkpt lat="43.55873" lon="2.16569">
        <ele>181.35</ele>
        <time>2014-11-16T09:28:20Z</time>
      </trkpt>
      <trkpt lat="43.55871" lon="2.16582">
        <ele>181.35</ele>
        <time>2014-11-16T09:28:22Z</time>
      </trkpt>
      <trkpt lat="43.55869" lon="2.16595">
        <ele>181.35</ele>
        <time>2014-11-16T09:28:24Z</time>
      </trkpt>
      <trkpt lat="43.55867" lon="2.16607">
        <ele>181.35</ele>
        <time>2014-11-16T09:28:26Z</time>
      </trkpt>
      <trkpt lat="43.55865" lon="2.1662">
        <ele>181.35</ele>
        <time>2014-11-16T09:28:28Z</time>
      </trkpt>
      <trkpt lat="43.55863" lon="2.16633">
        <ele>181.83</ele>
        <time>2014-11-16T09:28:30Z</time>
      </trkpt>
      <trkpt lat="43.55861" lon="2.16646">
        <ele>181.35</ele>
        <time>2014-11-16T09:28:32Z</time>
      </trkpt>
      <trkpt lat="43.5586" lon="2.16659">
        <ele>181.35</ele>
        <time>2014-11-16T09:28:34Z</time>
      </trkpt>
      <trkpt lat="43.55858" lon="2.16672">
        <ele>181.35</ele>
        <time>2014-11-16T09:28:36Z</time>
      </trkpt>
      <trkpt lat="43.55857" lon="2.16686">
        <ele>181.83</ele>
        <time>2014-11-16T09:28:38Z</time>
      </trkpt>
      <trkpt lat="43.55856" lon="2.16699">
        <ele>181.83</ele>
        <time>2014-11-16T09:28:40Z</time>
      </trkpt>
      <trkpt lat="43.55855" lon="2.16713">
        <ele>181.83</ele>
        <time>2014-11-16T09:28:42Z</time>
      </trkpt>
      <trkpt lat="43.55854" lon="2.16727">
        <ele>181.83</ele>
        <time>2014-11-16T09:28:44Z</time>
      </trkpt>
      <trkpt lat="43.55852" lon="2.16742">
        <ele>181.83</ele>
        <time>2014-11-16T09:28:46Z</time>
      </trkpt>
      <trkpt lat="43.5585" lon="2.16757">
        <ele>181.83</ele>
        <time>2014-11-16T09:28:48Z</time>
      </trkpt>
      <trkpt lat="43.55848" lon="2.16772">
        <ele>181.83</ele>
        <time>2014-11-16T09:28:50Z</time>
      </trkpt>
      <trkpt lat="43.55845" lon="2.16786">
        <ele>182.31</ele>
        <time>2014-11-16T09:28:52Z</time>
      </trkpt>
      <trkpt lat="43.55842" lon="2.168">
        <ele>182.31</ele>
        <time>2014-11-16T09:28:54Z</time>
      </trkpt>
      <trkpt lat="43.55839" lon="2.16813">
        <ele>182.31</ele>
        <time>2014-11-16T09:28:56Z</time>
      </trkpt>
      <trkpt lat="43.55836" lon="2.16826">
        <ele>182.79</ele>
        <time>2014-11-16T09:28:58Z</time>
      </trkpt>
      <trkpt lat="43.55834" lon="2.16839">
        <ele>182.31</ele>
        <time>2014-11-16T09:29:00Z</time>
      </trkpt>
      <trkpt lat="43.55832" lon="2.16853">
        <ele>182.79</ele>
        <time>2014-11-16T09:29:02Z</time>
      </trkpt>
      <trkpt lat="43.5583" lon="2.16866">
        <ele>182.79</ele>
        <time>2014-11-16T09:29:04Z</time>
      </trkpt>
      <trkpt lat="43.55826" lon="2.16882">
        <ele>182.79</ele>
        <time>2014-11-16T09:29:07Z</time>
      </trkpt>
      <trkpt lat="43.55825" lon="2.16897">
        <ele>183.75</ele>
        <time>2014-11-16T09:29:11Z</time>
      </trkpt>
      <trkpt lat="43.55827" lon="2.16912">
        <ele>183.75</ele>
        <time>2014-11-16T09:29:16Z</time>
      </trkpt>
      <trkpt lat="43.55836" lon="2.16913">
        <ele>183.27</ele>
        <time>2014-11-16T09:29:19Z</time>
      </trkpt>
      <trkpt lat="43.55845" lon="2.16902">
        <ele>183.27</ele>
        <time>2014-11-16T09:29:22Z</time>
      </trkpt>
      <trkpt lat="43.55852" lon="2.16895">
        <ele>182.79</ele>
        <time>2014-11-16T09:29:24Z</time>
      </trkpt>
      <trkpt lat="43.55861" lon="2.16889">
        <ele>182.79</ele>
        <time>2014-11-16T09:29:26Z</time>
      </trkpt>
      <trkpt lat="43.5587" lon="2.16881">
        <ele>182.79</ele>
        <time>2014-11-16T09:29:28Z</time>
      </trkpt>
      <trkpt lat="43.5588" lon="2.16875">
        <ele>182.31</ele>
        <time>2014-11-16T09:29:30Z</time>
      </trkpt>
      <trkpt lat="43.55889" lon="2.16869">
        <ele>182.31</ele>
        <time>2014-11-16T09:29:32Z</time>
      </trkpt>
      <trkpt lat="43.55898" lon="2.16862">
        <ele>182.31</ele>
        <time>2014-11-16T09:29:34Z</time>
      </trkpt>
      <trkpt lat="43.55907" lon="2.16855">
        <ele>181.83</ele>
        <time>2014-11-16T09:29:36Z</time>
      </trkpt>
      <trkpt lat="43.55913" lon="2.16842">
        <ele>181.83</ele>
        <time>2014-11-16T09:29:38Z</time>
      </trkpt>
      <trkpt lat="43.55921" lon="2.16831">
        <ele>181.83</ele>
        <time>2014-11-16T09:29:40Z</time>
      </trkpt>
      <trkpt lat="43.5593" lon="2.16824">
        <ele>181.83</ele>
        <time>2014-11-16T09:29:42Z</time>
      </trkpt>
      <trkpt lat="43.5594" lon="2.16818">
        <ele>181.35</ele>
        <time>2014-11-16T09:29:44Z</time>
      </trkpt>
      <trkpt lat="43.55949" lon="2.16813">
        <ele>181.83</ele>
        <time>2014-11-16T09:29:46Z</time>
      </trkpt>
      <trkpt lat="43.5596" lon="2.16808">
        <ele>181.35</ele>
        <time>2014-11-16T09:29:48Z</time>
      </trkpt>
      <trkpt lat="43.55971" lon="2.16804">
        <ele>181.35</ele>
        <time>2014-11-16T09:29:50Z</time>
      </trkpt>
      <trkpt lat="43.55981" lon="2.16799">
        <ele>181.35</ele>
        <time>2014-11-16T09:29:52Z</time>
      </trkpt>
      <trkpt lat="43.55991" lon="2.16794">
        <ele>181.35</ele>
        <time>2014-11-16T09:29:54Z</time>
      </trkpt>
      <trkpt lat="43.56001" lon="2.16786">
        <ele>181.35</ele>
        <time>2014-11-16T09:29:56Z</time>
      </trkpt>
      <trkpt lat="43.56008" lon="2.16777">
        <ele>181.35</ele>
        <time>2014-11-16T09:29:58Z</time>
      </trkpt>
      <trkpt lat="43.56015" lon="2.16766">
        <ele>180.87</ele>
        <time>2014-11-16T09:30:00Z</time>
      </trkpt>
      <trkpt lat="43.56021" lon="2.16754">
        <ele>180.87</ele>
        <time>2014-11-16T09:30:02Z</time>
      </trkpt>
      <trkpt lat="43.56027" lon="2.16744">
        <ele>180.87</ele>
        <time>2014-11-16T09:30:04Z</time>
      </trkpt>
      <trkpt lat="43.56037" lon="2.16742">
        <ele>181.35</ele>
        <time>2014-11-16T09:30:06Z</time>
      </trkpt>
      <trkpt lat="43.56046" lon="2.16739">
        <ele>181.35</ele>
        <time>2014-11-16T09:30:08Z</time>
      </trkpt>
      <trkpt lat="43.56056" lon="2.16734">
        <ele>181.35</ele>
        <time>2014-11-16T09:30:10Z</time>
      </trkpt>
      <trkpt lat="43.56065" lon="2.16727">
        <ele>181.35</ele>
        <time>2014-11-16T09:30:12Z</time>
      </trkpt>
      <trkpt lat="43.56073" lon="2.1672">
        <ele>180.87</ele>
        <time>2014-11-16T09:30:14Z</time>
      </trkpt>
      <trkpt lat="43.56083" lon="2.16707">
        <ele>181.35</ele>
        <time>2014-11-16T09:30:17Z</time>
      </trkpt>
      <trkpt lat="43.56092" lon="2.16694">
        <ele>181.83</ele>
        <time>2014-11-16T09:30:20Z</time>
      </trkpt>
      <trkpt lat="43.56101" lon="2.1668">
        <ele>181.35</ele>
        <time>2014-11-16T09:30:23Z</time>
      </trkpt>
      <trkpt lat="43.56111" lon="2.16666">
        <ele>181.35</ele>
        <time>2014-11-16T09:30:26Z</time>
      </trkpt>
      <trkpt lat="43.56118" lon="2.16657">
        <ele>181.35</ele>
        <time>2014-11-16T09:30:28Z</time>
      </trkpt>
      <trkpt lat="43.56124" lon="2.16647">
        <ele>181.35</ele>
        <time>2014-11-16T09:30:30Z</time>
      </trkpt>
      <trkpt lat="43.56131" lon="2.16637">
        <ele>180.87</ele>
        <time>2014-11-16T09:30:32Z</time>
      </trkpt>
      <trkpt lat="43.56138" lon="2.16626">
        <ele>181.35</ele>
        <time>2014-11-16T09:30:34Z</time>
      </trkpt>
      <trkpt lat="43.56145" lon="2.16615">
        <ele>180.87</ele>
        <time>2014-11-16T09:30:36Z</time>
      </trkpt>
      <trkpt lat="43.56151" lon="2.16604">
        <ele>180.87</ele>
        <time>2014-11-16T09:30:38Z</time>
      </trkpt>
      <trkpt lat="43.56156" lon="2.16592">
        <ele>180.87</ele>
        <time>2014-11-16T09:30:40Z</time>
      </trkpt>
      <trkpt lat="43.56161" lon="2.16579">
        <ele>180.87</ele>
        <time>2014-11-16T09:30:42Z</time>
      </trkpt>
      <trkpt lat="43.56166" lon="2.16566">
        <ele>180.87</ele>
        <time>2014-11-16T09:30:44Z</time>
      </trkpt>
      <trkpt lat="43.56172" lon="2.16554">
        <ele>180.87</ele>
        <time>2014-11-16T09:30:46Z</time>
      </trkpt>
      <trkpt lat="43.56178" lon="2.16541">
        <ele>180.38</ele>
        <time>2014-11-16T09:30:48Z</time>
      </trkpt>
      <trkpt lat="43.56183" lon="2.16529">
        <ele>180.38</ele>
        <time>2014-11-16T09:30:50Z</time>
      </trkpt>
      <trkpt lat="43.56188" lon="2.16516">
        <ele>180.38</ele>
        <time>2014-11-16T09:30:52Z</time>
      </trkpt>
      <trkpt lat="43.56193" lon="2.16503">
        <ele>180.38</ele>
        <time>2014-11-16T09:30:54Z</time>
      </trkpt>
      <trkpt lat="43.56199" lon="2.1649">
        <ele>180.38</ele>
        <time>2014-11-16T09:30:56Z</time>
      </trkpt>
      <trkpt lat="43.56205" lon="2.16478">
        <ele>180.38</ele>
        <time>2014-11-16T09:30:58Z</time>
      </trkpt>
      <trkpt lat="43.5621" lon="2.16465">
        <ele>180.38</ele>
        <time>2014-11-16T09:31:00Z</time>
      </trkpt>
      <trkpt lat="43.56216" lon="2.16453">
        <ele>179.9</ele>
        <time>2014-11-16T09:31:02Z</time>
      </trkpt>
      <trkpt lat="43.56221" lon="2.1644">
        <ele>179.9</ele>
        <time>2014-11-16T09:31:04Z</time>
      </trkpt>
      <trkpt lat="43.56227" lon="2.16427">
        <ele>179.9</ele>
        <time>2014-11-16T09:31:06Z</time>
      </trkpt>
      <trkpt lat="43.56233" lon="2.16414">
        <ele>179.9</ele>
        <time>2014-11-16T09:31:08Z</time>
      </trkpt>
      <trkpt lat="43.56239" lon="2.16402">
        <ele>179.9</ele>
        <time>2014-11-16T09:31:10Z</time>
      </trkpt>
      <trkpt lat="43.56244" lon="2.16389">
        <ele>179.9</ele>
        <time>2014-11-16T09:31:12Z</time>
      </trkpt>
      <trkpt lat="43.56245" lon="2.16374">
        <ele>179.9</ele>
        <time>2014-11-16T09:31:14Z</time>
      </trkpt>
      <trkpt lat="43.56243" lon="2.1636">
        <ele>179.9</ele>
        <time>2014-11-16T09:31:16Z</time>
      </trkpt>
      <trkpt lat="43.5624" lon="2.16347">
        <ele>179.9</ele>
        <time>2014-11-16T09:31:18Z</time>
      </trkpt>
      <trkpt lat="43.56238" lon="2.16333">
        <ele>179.9</ele>
        <time>2014-11-16T09:31:20Z</time>
      </trkpt>
      <trkpt lat="43.56237" lon="2.16319">
        <ele>179.9</ele>
        <time>2014-11-16T09:31:22Z</time>
      </trkpt>
      <trkpt lat="43.56236" lon="2.16305">
        <ele>179.9</ele>
        <time>2014-11-16T09:31:24Z</time>
      </trkpt>
      <trkpt lat="43.56237" lon="2.1629">
        <ele>179.9</ele>
        <time>2014-11-16T09:31:26Z</time>
      </trkpt>
      <trkpt lat="43.56238" lon="2.16275">
        <ele>179.9</ele>
        <time>2014-11-16T09:31:28Z</time>
      </trkpt>
      <trkpt lat="43.56239" lon="2.16261">
        <ele>179.42</ele>
        <time>2014-11-16T09:31:30Z</time>
      </trkpt>
      <trkpt lat="43.5624" lon="2.16246">
        <ele>179.42</ele>
        <time>2014-11-16T09:31:32Z</time>
      </trkpt>
      <trkpt lat="43.56242" lon="2.16232">
        <ele>179.42</ele>
        <time>2014-11-16T09:31:34Z</time>
      </trkpt>
      <trkpt lat="43.56245" lon="2.16217">
        <ele>179.42</ele>
        <time>2014-11-16T09:31:36Z</time>
      </trkpt>
      <trkpt lat="43.56248" lon="2.16202">
        <ele>179.42</ele>
        <time>2014-11-16T09:31:38Z</time>
      </trkpt>
      <trkpt lat="43.56253" lon="2.16189">
        <ele>179.42</ele>
        <time>2014-11-16T09:31:40Z</time>
      </trkpt>
      <trkpt lat="43.56259" lon="2.16176">
        <ele>179.42</ele>
        <time>2014-11-16T09:31:42Z</time>
      </trkpt>
      <trkpt lat="43.56264" lon="2.16162">
        <ele>179.42</ele>
        <time>2014-11-16T09:31:44Z</time>
      </trkpt>
      <trkpt lat="43.56269" lon="2.16149">
        <ele>178.94</ele>
        <time>2014-11-16T09:31:46Z</time>
      </trkpt>
      <trkpt lat="43.56275" lon="2.16134">
        <ele>178.94</ele>
        <time>2014-11-16T09:31:48Z</time>
      </trkpt>
      <trkpt lat="43.56281" lon="2.16121">
        <ele>178.94</ele>
        <time>2014-11-16T09:31:50Z</time>
      </trkpt>
      <trkpt lat="43.56287" lon="2.16107">
        <ele>178.94</ele>
        <time>2014-11-16T09:31:52Z</time>
      </trkpt>
      <trkpt lat="43.56292" lon="2.16093">
        <ele>180.38</ele>
        <time>2014-11-16T09:31:54Z</time>
      </trkpt>
      <trkpt lat="43.56298" lon="2.1608">
        <ele>178.94</ele>
        <time>2014-11-16T09:31:56Z</time>
      </trkpt>
      <trkpt lat="43.56304" lon="2.16066">
        <ele>178.94</ele>
        <time>2014-11-16T09:31:58Z</time>
      </trkpt>
      <trkpt lat="43.56309" lon="2.16053">
        <ele>178.94</ele>
        <time>2014-11-16T09:32:00Z</time>
      </trkpt>
      <trkpt lat="43.56315" lon="2.1604">
        <ele>178.94</ele>
        <time>2014-11-16T09:32:02Z</time>
      </trkpt>
      <trkpt lat="43.56321" lon="2.16027">
        <ele>178.94</ele>
        <time>2014-11-16T09:32:04Z</time>
      </trkpt>
      <trkpt lat="43.56326" lon="2.16014">
        <ele>178.94</ele>
        <time>2014-11-16T09:32:06Z</time>
      </trkpt>
      <trkpt lat="43.56332" lon="2.16001">
        <ele>178.94</ele>
        <time>2014-11-16T09:32:08Z</time>
      </trkpt>
      <trkpt lat="43.56337" lon="2.15988">
        <ele>178.46</ele>
        <time>2014-11-16T09:32:10Z</time>
      </trkpt>
      <trkpt lat="43.56342" lon="2.15974">
        <ele>178.46</ele>
        <time>2014-11-16T09:32:12Z</time>
      </trkpt>
      <trkpt lat="43.56348" lon="2.1596">
        <ele>178.46</ele>
        <time>2014-11-16T09:32:14Z</time>
      </trkpt>
      <trkpt lat="43.56352" lon="2.15947">
        <ele>178.46</ele>
        <time>2014-11-16T09:32:16Z</time>
      </trkpt>
      <trkpt lat="43.56357" lon="2.15933">
        <ele>178.46</ele>
        <time>2014-11-16T09:32:18Z</time>
      </trkpt>
      <trkpt lat="43.56363" lon="2.1592">
        <ele>178.46</ele>
        <time>2014-11-16T09:32:20Z</time>
      </trkpt>
      <trkpt lat="43.56368" lon="2.15905">
        <ele>178.46</ele>
        <time>2014-11-16T09:32:22Z</time>
      </trkpt>
      <trkpt lat="43.56374" lon="2.15891">
        <ele>177.98</ele>
        <time>2014-11-16T09:32:24Z</time>
      </trkpt>
      <trkpt lat="43.5638" lon="2.15878">
        <ele>177.98</ele>
        <time>2014-11-16T09:32:26Z</time>
      </trkpt>
      <trkpt lat="43.56387" lon="2.15865">
        <ele>177.98</ele>
        <time>2014-11-16T09:32:28Z</time>
      </trkpt>
      <trkpt lat="43.56392" lon="2.15851">
        <ele>177.98</ele>
        <time>2014-11-16T09:32:30Z</time>
      </trkpt>
      <trkpt lat="43.56397" lon="2.15837">
        <ele>177.5</ele>
        <time>2014-11-16T09:32:32Z</time>
      </trkpt>
      <trkpt lat="43.56402" lon="2.15822">
        <ele>177.98</ele>
        <time>2014-11-16T09:32:34Z</time>
      </trkpt>
      <trkpt lat="43.56407" lon="2.15809">
        <ele>177.98</ele>
        <time>2014-11-16T09:32:36Z</time>
      </trkpt>
      <trkpt lat="43.56413" lon="2.15795">
        <ele>177.5</ele>
        <time>2014-11-16T09:32:38Z</time>
      </trkpt>
      <trkpt lat="43.56418" lon="2.15782">
        <ele>177.98</ele>
        <time>2014-11-16T09:32:40Z</time>
      </trkpt>
      <trkpt lat="43.56423" lon="2.15768">
        <ele>177.98</ele>
        <time>2014-11-16T09:32:42Z</time>
      </trkpt>
      <trkpt lat="43.56428" lon="2.15753">
        <ele>177.98</ele>
        <time>2014-11-16T09:32:44Z</time>
      </trkpt>
      <trkpt lat="43.56434" lon="2.15739">
        <ele>177.98</ele>
        <time>2014-11-16T09:32:46Z</time>
      </trkpt>
      <trkpt lat="43.5644" lon="2.15726">
        <ele>177.98</ele>
        <time>2014-11-16T09:32:48Z</time>
      </trkpt>
      <trkpt lat="43.56446" lon="2.15712">
        <ele>177.98</ele>
        <time>2014-11-16T09:32:50Z</time>
      </trkpt>
      <trkpt lat="43.56452" lon="2.15699">
        <ele>177.98</ele>
        <time>2014-11-16T09:32:52Z</time>
      </trkpt>
      <trkpt lat="43.56457" lon="2.15684">
        <ele>177.5</ele>
        <time>2014-11-16T09:32:54Z</time>
      </trkpt>
      <trkpt lat="43.56463" lon="2.1567">
        <ele>177.5</ele>
        <time>2014-11-16T09:32:56Z</time>
      </trkpt>
      <trkpt lat="43.56468" lon="2.15655">
        <ele>177.5</ele>
        <time>2014-11-16T09:32:58Z</time>
      </trkpt>
      <trkpt lat="43.56472" lon="2.15642">
        <ele>177.5</ele>
        <time>2014-11-16T09:33:00Z</time>
      </trkpt>
      <trkpt lat="43.56476" lon="2.15629">
        <ele>177.5</ele>
        <time>2014-11-16T09:33:02Z</time>
      </trkpt>
      <trkpt lat="43.56479" lon="2.15617">
        <ele>177.5</ele>
        <time>2014-11-16T09:33:04Z</time>
      </trkpt>
      <trkpt lat="43.56484" lon="2.15601">
        <ele>177.02</ele>
        <time>2014-11-16T09:33:07Z</time>
      </trkpt>
      <trkpt lat="43.56488" lon="2.15587">
        <ele>177.02</ele>
        <time>2014-11-16T09:33:10Z</time>
      </trkpt>
      <trkpt lat="43.56492" lon="2.15573">
        <ele>177.02</ele>
        <time>2014-11-16T09:33:13Z</time>
      </trkpt>
      <trkpt lat="43.56495" lon="2.1556">
        <ele>177.02</ele>
        <time>2014-11-16T09:33:16Z</time>
      </trkpt>
      <trkpt lat="43.56499" lon="2.15546">
        <ele>177.02</ele>
        <time>2014-11-16T09:33:19Z</time>
      </trkpt>
      <trkpt lat="43.56503" lon="2.15531">
        <ele>177.02</ele>
        <time>2014-11-16T09:33:22Z</time>
      </trkpt>
      <trkpt lat="43.56508" lon="2.15518">
        <ele>176.54</ele>
        <time>2014-11-16T09:33:25Z</time>
      </trkpt>
      <trkpt lat="43.56512" lon="2.15504">
        <ele>176.54</ele>
        <time>2014-11-16T09:33:28Z</time>
      </trkpt>
      <trkpt lat="43.56516" lon="2.15489">
        <ele>176.54</ele>
        <time>2014-11-16T09:33:31Z</time>
      </trkpt>
      <trkpt lat="43.5652" lon="2.15473">
        <ele>176.54</ele>
        <time>2014-11-16T09:33:34Z</time>
      </trkpt>
      <trkpt lat="43.56524" lon="2.15458">
        <ele>176.54</ele>
        <time>2014-11-16T09:33:37Z</time>
      </trkpt>
      <trkpt lat="43.56527" lon="2.15443">
        <ele>176.54</ele>
        <time>2014-11-16T09:33:40Z</time>
      </trkpt>
      <trkpt lat="43.5653" lon="2.15427">
        <ele>176.54</ele>
        <time>2014-11-16T09:33:43Z</time>
      </trkpt>
      <trkpt lat="43.56533" lon="2.15411">
        <ele>176.54</ele>
        <time>2014-11-16T09:33:46Z</time>
      </trkpt>
      <trkpt lat="43.56536" lon="2.15394">
        <ele>176.54</ele>
        <time>2014-11-16T09:33:49Z</time>
      </trkpt>
      <trkpt lat="43.56539" lon="2.15378">
        <ele>176.54</ele>
        <time>2014-11-16T09:33:52Z</time>
      </trkpt>
      <trkpt lat="43.56542" lon="2.15361">
        <ele>176.54</ele>
        <time>2014-11-16T09:33:55Z</time>
      </trkpt>
      <trkpt lat="43.56545" lon="2.15344">
        <ele>176.06</ele>
        <time>2014-11-16T09:33:58Z</time>
      </trkpt>
      <trkpt lat="43.56548" lon="2.15328">
        <ele>176.06</ele>
        <time>2014-11-16T09:34:01Z</time>
      </trkpt>
      <trkpt lat="43.56551" lon="2.15311">
        <ele>176.06</ele>
        <time>2014-11-16T09:34:04Z</time>
      </trkpt>
      <trkpt lat="43.56554" lon="2.15295">
        <ele>176.06</ele>
        <time>2014-11-16T09:34:07Z</time>
      </trkpt>
      <trkpt lat="43.56556" lon="2.15278">
        <ele>176.06</ele>
        <time>2014-11-16T09:34:10Z</time>
      </trkpt>
      <trkpt lat="43.5656" lon="2.1526">
        <ele>176.06</ele>
        <time>2014-11-16T09:34:13Z</time>
      </trkpt>
      <trkpt lat="43.56565" lon="2.15243">
        <ele>176.06</ele>
        <time>2014-11-16T09:34:16Z</time>
      </trkpt>
      <trkpt lat="43.56569" lon="2.15232">
        <ele>176.06</ele>
        <time>2014-11-16T09:34:18Z</time>
      </trkpt>
      <trkpt lat="43.56574" lon="2.15221">
        <ele>176.06</ele>
        <time>2014-11-16T09:34:20Z</time>
      </trkpt>
      <trkpt lat="43.56578" lon="2.15211">
        <ele>176.06</ele>
        <time>2014-11-16T09:34:22Z</time>
      </trkpt>
      <trkpt lat="43.56583" lon="2.152">
        <ele>176.06</ele>
        <time>2014-11-16T09:34:24Z</time>
      </trkpt>
      <trkpt lat="43.56589" lon="2.15188">
        <ele>176.06</ele>
        <time>2014-11-16T09:34:26Z</time>
      </trkpt>
      <trkpt lat="43.56594" lon="2.15177">
        <ele>176.06</ele>
        <time>2014-11-16T09:34:28Z</time>
      </trkpt>
      <trkpt lat="43.566" lon="2.15165">
        <ele>175.58</ele>
        <time>2014-11-16T09:34:30Z</time>
      </trkpt>
      <trkpt lat="43.56605" lon="2.15154">
        <ele>175.58</ele>
        <time>2014-11-16T09:34:32Z</time>
      </trkpt>
      <trkpt lat="43.5661" lon="2.15142">
        <ele>175.58</ele>
        <time>2014-11-16T09:34:34Z</time>
      </trkpt>
      <trkpt lat="43.56615" lon="2.1513">
        <ele>175.58</ele>
        <time>2014-11-16T09:34:36Z</time>
      </trkpt>
      <trkpt lat="43.5662" lon="2.15118">
        <ele>175.58</ele>
        <time>2014-11-16T09:34:38Z</time>
      </trkpt>
      <trkpt lat="43.56626" lon="2.15106">
        <ele>175.1</ele>
        <time>2014-11-16T09:34:40Z</time>
      </trkpt>
      <trkpt lat="43.56632" lon="2.15095">
        <ele>175.1</ele>
        <time>2014-11-16T09:34:42Z</time>
      </trkpt>
      <trkpt lat="43.56638" lon="2.15085">
        <ele>175.1</ele>
        <time>2014-11-16T09:34:44Z</time>
      </trkpt>
      <trkpt lat="43.56645" lon="2.15074">
        <ele>175.1</ele>
        <time>2014-11-16T09:34:46Z</time>
      </trkpt>
      <trkpt lat="43.56651" lon="2.15062">
        <ele>175.1</ele>
        <time>2014-11-16T09:34:48Z</time>
      </trkpt>
      <trkpt lat="43.56657" lon="2.15051">
        <ele>175.1</ele>
        <time>2014-11-16T09:34:50Z</time>
      </trkpt>
      <trkpt lat="43.56664" lon="2.1504">
        <ele>175.1</ele>
        <time>2014-11-16T09:34:52Z</time>
      </trkpt>
      <trkpt lat="43.5667" lon="2.15028">
        <ele>174.62</ele>
        <time>2014-11-16T09:34:54Z</time>
      </trkpt>
      <trkpt lat="43.56676" lon="2.15017">
        <ele>174.62</ele>
        <time>2014-11-16T09:34:56Z</time>
      </trkpt>
      <trkpt lat="43.56683" lon="2.15006">
        <ele>174.62</ele>
        <time>2014-11-16T09:34:58Z</time>
      </trkpt>
      <trkpt lat="43.5669" lon="2.14996">
        <ele>175.1</ele>
        <time>2014-11-16T09:35:00Z</time>
      </trkpt>
      <trkpt lat="43.56697" lon="2.14986">
        <ele>175.1</ele>
        <time>2014-11-16T09:35:02Z</time>
      </trkpt>
      <trkpt lat="43.56704" lon="2.14977">
        <ele>175.1</ele>
        <time>2014-11-16T09:35:04Z</time>
      </trkpt>
      <trkpt lat="43.56712" lon="2.14968">
        <ele>175.1</ele>
        <time>2014-11-16T09:35:06Z</time>
      </trkpt>
      <trkpt lat="43.5672" lon="2.14959">
        <ele>175.1</ele>
        <time>2014-11-16T09:35:08Z</time>
      </trkpt>
      <trkpt lat="43.56727" lon="2.14949">
        <ele>175.1</ele>
        <time>2014-11-16T09:35:10Z</time>
      </trkpt>
      <trkpt lat="43.56734" lon="2.14938">
        <ele>175.58</ele>
        <time>2014-11-16T09:35:12Z</time>
      </trkpt>
      <trkpt lat="43.56741" lon="2.14928">
        <ele>175.58</ele>
        <time>2014-11-16T09:35:14Z</time>
      </trkpt>
      <trkpt lat="43.56747" lon="2.14917">
        <ele>175.58</ele>
        <time>2014-11-16T09:35:16Z</time>
      </trkpt>
      <trkpt lat="43.56754" lon="2.14907">
        <ele>175.1</ele>
        <time>2014-11-16T09:35:18Z</time>
      </trkpt>
      <trkpt lat="43.56761" lon="2.14898">
        <ele>175.1</ele>
        <time>2014-11-16T09:35:20Z</time>
      </trkpt>
      <trkpt lat="43.56768" lon="2.14888">
        <ele>174.62</ele>
        <time>2014-11-16T09:35:22Z</time>
      </trkpt>
      <trkpt lat="43.56775" lon="2.14879">
        <ele>174.62</ele>
        <time>2014-11-16T09:35:24Z</time>
      </trkpt>
      <trkpt lat="43.56783" lon="2.1487">
        <ele>174.62</ele>
        <time>2014-11-16T09:35:26Z</time>
      </trkpt>
      <trkpt lat="43.56792" lon="2.14861">
        <ele>174.62</ele>
        <time>2014-11-16T09:35:28Z</time>
      </trkpt>
      <trkpt lat="43.56802" lon="2.14854">
        <ele>174.14</ele>
        <time>2014-11-16T09:35:30Z</time>
      </trkpt>
      <trkpt lat="43.56812" lon="2.14849">
        <ele>174.62</ele>
        <time>2014-11-16T09:35:32Z</time>
      </trkpt>
      <trkpt lat="43.56822" lon="2.14844">
        <ele>174.62</ele>
        <time>2014-11-16T09:35:34Z</time>
      </trkpt>
      <trkpt lat="43.56833" lon="2.1484">
        <ele>174.14</ele>
        <time>2014-11-16T09:35:36Z</time>
      </trkpt>
      <trkpt lat="43.56844" lon="2.14836">
        <ele>174.14</ele>
        <time>2014-11-16T09:35:38Z</time>
      </trkpt>
      <trkpt lat="43.56854" lon="2.14832">
        <ele>174.14</ele>
        <time>2014-11-16T09:35:40Z</time>
      </trkpt>
      <trkpt lat="43.56865" lon="2.14828">
        <ele>174.14</ele>
        <time>2014-11-16T09:35:42Z</time>
      </trkpt>
      <trkpt lat="43.56874" lon="2.14819">
        <ele>174.14</ele>
        <time>2014-11-16T09:35:44Z</time>
      </trkpt>
      <trkpt lat="43.56882" lon="2.14809">
        <ele>174.14</ele>
        <time>2014-11-16T09:35:46Z</time>
      </trkpt>
      <trkpt lat="43.5689" lon="2.14798">
        <ele>174.14</ele>
        <time>2014-11-16T09:35:48Z</time>
      </trkpt>
      <trkpt lat="43.56898" lon="2.14785">
        <ele>174.14</ele>
        <time>2014-11-16T09:35:50Z</time>
      </trkpt>
      <trkpt lat="43.56905" lon="2.14773">
        <ele>174.14</ele>
        <time>2014-11-16T09:35:52Z</time>
      </trkpt>
      <trkpt lat="43.56911" lon="2.14762">
        <ele>174.14</ele>
        <time>2014-11-16T09:35:54Z</time>
      </trkpt>
      <trkpt lat="43.56918" lon="2.14749">
        <ele>174.62</ele>
        <time>2014-11-16T09:35:56Z</time>
      </trkpt>
      <trkpt lat="43.56925" lon="2.14737">
        <ele>174.14</ele>
        <time>2014-11-16T09:35:58Z</time>
      </trkpt>
      <trkpt lat="43.56932" lon="2.14725">
        <ele>174.14</ele>
        <time>2014-11-16T09:36:00Z</time>
      </trkpt>
      <trkpt lat="43.56939" lon="2.14713">
        <ele>174.14</ele>
        <time>2014-11-16T09:36:02Z</time>
      </trkpt>
      <trkpt lat="43.56946" lon="2.14701">
        <ele>173.66</ele>
        <time>2014-11-16T09:36:04Z</time>
      </trkpt>
      <trkpt lat="43.56953" lon="2.14687">
        <ele>173.17</ele>
        <time>2014-11-16T09:36:06Z</time>
      </trkpt>
      <trkpt lat="43.56962" lon="2.14669">
        <ele>172.69</ele>
        <time>2014-11-16T09:36:08Z</time>
      </trkpt>
      <trkpt lat="43.56973" lon="2.14651">
        <ele>172.69</ele>
        <time>2014-11-16T09:36:10Z</time>
      </trkpt>
      <trkpt lat="43.56983" lon="2.14631">
        <ele>173.17</ele>
        <time>2014-11-16T09:36:12Z</time>
      </trkpt>
      <trkpt lat="43.56993" lon="2.14611">
        <ele>172.69</ele>
        <time>2014-11-16T09:36:14Z</time>
      </trkpt>
      <trkpt lat="43.57003" lon="2.14592">
        <ele>172.21</ele>
        <time>2014-11-16T09:36:16Z</time>
      </trkpt>
      <trkpt lat="43.57013" lon="2.14572">
        <ele>172.21</ele>
        <time>2014-11-16T09:36:18Z</time>
      </trkpt>
      <trkpt lat="43.57022" lon="2.14551">
        <ele>172.21</ele>
        <time>2014-11-16T09:36:20Z</time>
      </trkpt>
      <trkpt lat="43.57032" lon="2.14531">
        <ele>172.21</ele>
        <time>2014-11-16T09:36:22Z</time>
      </trkpt>
      <trkpt lat="43.57039" lon="2.1451">
        <ele>172.21</ele>
        <time>2014-11-16T09:36:24Z</time>
      </trkpt>
      <trkpt lat="43.57043" lon="2.14486">
        <ele>172.21</ele>
        <time>2014-11-16T09:36:26Z</time>
      </trkpt>
      <trkpt lat="43.57044" lon="2.14462">
        <ele>172.21</ele>
        <time>2014-11-16T09:36:28Z</time>
      </trkpt>
      <trkpt lat="43.57041" lon="2.14438">
        <ele>172.21</ele>
        <time>2014-11-16T09:36:30Z</time>
      </trkpt>
      <trkpt lat="43.57039" lon="2.14415">
        <ele>171.73</ele>
        <time>2014-11-16T09:36:32Z</time>
      </trkpt>
      <trkpt lat="43.57036" lon="2.14393">
        <ele>172.21</ele>
        <time>2014-11-16T09:36:34Z</time>
      </trkpt>
      <trkpt lat="43.57034" lon="2.14372">
        <ele>172.21</ele>
        <time>2014-11-16T09:36:36Z</time>
      </trkpt>
      <trkpt lat="43.57032" lon="2.14352">
        <ele>172.21</ele>
        <time>2014-11-16T09:36:38Z</time>
      </trkpt>
      <trkpt lat="43.5703" lon="2.14333">
        <ele>172.21</ele>
        <time>2014-11-16T09:36:40Z</time>
      </trkpt>
      <trkpt lat="43.57029" lon="2.14314">
        <ele>172.21</ele>
        <time>2014-11-16T09:36:42Z</time>
      </trkpt>
      <trkpt lat="43.57029" lon="2.14297">
        <ele>172.21</ele>
        <time>2014-11-16T09:36:44Z</time>
      </trkpt>
      <trkpt lat="43.5703" lon="2.1428">
        <ele>172.21</ele>
        <time>2014-11-16T09:36:46Z</time>
      </trkpt>
      <trkpt lat="43.57032" lon="2.14263">
        <ele>172.21</ele>
        <time>2014-11-16T09:36:48Z</time>
      </trkpt>
      <trkpt lat="43.57036" lon="2.14248">
        <ele>172.21</ele>
        <time>2014-11-16T09:36:50Z</time>
      </trkpt>
      <trkpt lat="43.57041" lon="2.14233">
        <ele>172.21</ele>
        <time>2014-11-16T09:36:52Z</time>
      </trkpt>
      <trkpt lat="43.57047" lon="2.1422">
        <ele>172.21</ele>
        <time>2014-11-16T09:36:54Z</time>
      </trkpt>
      <trkpt lat="43.57053" lon="2.14207">
        <ele>172.21</ele>
        <time>2014-11-16T09:36:56Z</time>
      </trkpt>
      <trkpt lat="43.57059" lon="2.14195">
        <ele>172.21</ele>
        <time>2014-11-16T09:36:58Z</time>
      </trkpt>
      <trkpt lat="43.57064" lon="2.14183">
        <ele>172.21</ele>
        <time>2014-11-16T09:37:00Z</time>
      </trkpt>
      <trkpt lat="43.5707" lon="2.14171">
        <ele>172.21</ele>
        <time>2014-11-16T09:37:02Z</time>
      </trkpt>
      <trkpt lat="43.57075" lon="2.1416">
        <ele>172.21</ele>
        <time>2014-11-16T09:37:04Z</time>
      </trkpt>
      <trkpt lat="43.5708" lon="2.14149">
        <ele>172.21</ele>
        <time>2014-11-16T09:37:06Z</time>
      </trkpt>
      <trkpt lat="43.57086" lon="2.14137">
        <ele>172.21</ele>
        <time>2014-11-16T09:37:08Z</time>
      </trkpt>
      <trkpt lat="43.57091" lon="2.14126">
        <ele>172.21</ele>
        <time>2014-11-16T09:37:10Z</time>
      </trkpt>
      <trkpt lat="43.57096" lon="2.14115">
        <ele>172.21</ele>
        <time>2014-11-16T09:37:12Z</time>
      </trkpt>
      <trkpt lat="43.57102" lon="2.14104">
        <ele>171.73</ele>
        <time>2014-11-16T09:37:14Z</time>
      </trkpt>
      <trkpt lat="43.57106" lon="2.14092">
        <ele>171.73</ele>
        <time>2014-11-16T09:37:16Z</time>
      </trkpt>
      <trkpt lat="43.5711" lon="2.1408">
        <ele>171.73</ele>
        <time>2014-11-16T09:37:18Z</time>
      </trkpt>
      <trkpt lat="43.57113" lon="2.14068">
        <ele>171.73</ele>
        <time>2014-11-16T09:37:20Z</time>
      </trkpt>
      <trkpt lat="43.57116" lon="2.14054">
        <ele>171.73</ele>
        <time>2014-11-16T09:37:22Z</time>
      </trkpt>
      <trkpt lat="43.57118" lon="2.14041">
        <ele>171.73</ele>
        <time>2014-11-16T09:37:24Z</time>
      </trkpt>
      <trkpt lat="43.57122" lon="2.14025">
        <ele>171.73</ele>
        <time>2014-11-16T09:37:26Z</time>
      </trkpt>
      <trkpt lat="43.57125" lon="2.14007">
        <ele>171.25</ele>
        <time>2014-11-16T09:37:28Z</time>
      </trkpt>
      <trkpt lat="43.57129" lon="2.13989">
        <ele>171.73</ele>
        <time>2014-11-16T09:37:30Z</time>
      </trkpt>
      <trkpt lat="43.57133" lon="2.13971">
        <ele>171.25</ele>
        <time>2014-11-16T09:37:32Z</time>
      </trkpt>
      <trkpt lat="43.57137" lon="2.13953">
        <ele>171.25</ele>
        <time>2014-11-16T09:37:34Z</time>
      </trkpt>
      <trkpt lat="43.57141" lon="2.13936">
        <ele>171.25</ele>
        <time>2014-11-16T09:37:36Z</time>
      </trkpt>
      <trkpt lat="43.57145" lon="2.13918">
        <ele>171.25</ele>
        <time>2014-11-16T09:37:38Z</time>
      </trkpt>
      <trkpt lat="43.57149" lon="2.139">
        <ele>170.77</ele>
        <time>2014-11-16T09:37:40Z</time>
      </trkpt>
      <trkpt lat="43.57153" lon="2.13882">
        <ele>170.77</ele>
        <time>2014-11-16T09:37:42Z</time>
      </trkpt>
      <trkpt lat="43.57156" lon="2.13864">
        <ele>170.77</ele>
        <time>2014-11-16T09:37:44Z</time>
      </trkpt>
      <trkpt lat="43.57158" lon="2.13846">
        <ele>170.29</ele>
        <time>2014-11-16T09:37:46Z</time>
      </trkpt>
      <trkpt lat="43.57161" lon="2.1383">
        <ele>170.29</ele>
        <time>2014-11-16T09:37:48Z</time>
      </trkpt>
      <trkpt lat="43.57163" lon="2.13814">
        <ele>170.29</ele>
        <time>2014-11-16T09:37:50Z</time>
      </trkpt>
      <trkpt lat="43.57166" lon="2.13799">
        <ele>170.29</ele>
        <time>2014-11-16T09:37:52Z</time>
      </trkpt>
      <trkpt lat="43.57169" lon="2.13784">
        <ele>170.29</ele>
        <time>2014-11-16T09:37:54Z</time>
      </trkpt>
      <trkpt lat="43.57171" lon="2.1377">
        <ele>171.73</ele>
        <time>2014-11-16T09:37:56Z</time>
      </trkpt>
      <trkpt lat="43.57173" lon="2.13757">
        <ele>170.29</ele>
        <time>2014-11-16T09:37:58Z</time>
      </trkpt>
      <trkpt lat="43.57177" lon="2.13741">
        <ele>170.77</ele>
        <time>2014-11-16T09:38:01Z</time>
      </trkpt>
      <trkpt lat="43.57181" lon="2.13729">
        <ele>170.77</ele>
        <time>2014-11-16T09:38:04Z</time>
      </trkpt>
      <trkpt lat="43.57185" lon="2.13717">
        <ele>171.25</ele>
        <time>2014-11-16T09:38:08Z</time>
      </trkpt>
      <trkpt lat="43.57192" lon="2.13706">
        <ele>171.25</ele>
        <time>2014-11-16T09:38:13Z</time>
      </trkpt>
      <trkpt lat="43.57197" lon="2.13699">
        <ele>172.21</ele>
        <time>2014-11-16T09:38:20Z</time>
      </trkpt>
      <trkpt lat="43.57194" lon="2.13695">
        <ele>172.21</ele>
        <time>2014-11-16T09:38:28Z</time>
      </trkpt>
      <trkpt lat="43.57202" lon="2.13691">
        <ele>172.21</ele>
        <time>2014-11-16T09:38:33Z</time>
      </trkpt>
      <trkpt lat="43.572" lon="2.13678">
        <ele>171.73</ele>
        <time>2014-11-16T09:38:35Z</time>
      </trkpt>
      <trkpt lat="43.57203" lon="2.13666">
        <ele>171.25</ele>
        <time>2014-11-16T09:38:37Z</time>
      </trkpt>
      <trkpt lat="43.5721" lon="2.1365">
        <ele>171.25</ele>
        <time>2014-11-16T09:38:40Z</time>
      </trkpt>
      <trkpt lat="43.57216" lon="2.13634">
        <ele>171.25</ele>
        <time>2014-11-16T09:38:43Z</time>
      </trkpt>
      <trkpt lat="43.57222" lon="2.13619">
        <ele>171.25</ele>
        <time>2014-11-16T09:38:46Z</time>
      </trkpt>
      <trkpt lat="43.57229" lon="2.13604">
        <ele>170.77</ele>
        <time>2014-11-16T09:38:49Z</time>
      </trkpt>
      <trkpt lat="43.57236" lon="2.1359">
        <ele>170.77</ele>
        <time>2014-11-16T09:38:52Z</time>
      </trkpt>
      <trkpt lat="43.57242" lon="2.13575">
        <ele>170.77</ele>
        <time>2014-11-16T09:38:55Z</time>
      </trkpt>
      <trkpt lat="43.57248" lon="2.13562">
        <ele>170.77</ele>
        <time>2014-11-16T09:38:58Z</time>
      </trkpt>
      <trkpt lat="43.57254" lon="2.13549">
        <ele>170.77</ele>
        <time>2014-11-16T09:39:01Z</time>
      </trkpt>
      <trkpt lat="43.57261" lon="2.13535">
        <ele>171.25</ele>
        <time>2014-11-16T09:39:04Z</time>
      </trkpt>
      <trkpt lat="43.57267" lon="2.13519">
        <ele>170.77</ele>
        <time>2014-11-16T09:39:07Z</time>
      </trkpt>
      <trkpt lat="43.57273" lon="2.13503">
        <ele>170.77</ele>
        <time>2014-11-16T09:39:10Z</time>
      </trkpt>
      <trkpt lat="43.57278" lon="2.13487">
        <ele>170.77</ele>
        <time>2014-11-16T09:39:13Z</time>
      </trkpt>
      <trkpt lat="43.57283" lon="2.13471">
        <ele>170.77</ele>
        <time>2014-11-16T09:39:16Z</time>
      </trkpt>
      <trkpt lat="43.57289" lon="2.13454">
        <ele>170.77</ele>
        <time>2014-11-16T09:39:19Z</time>
      </trkpt>
      <trkpt lat="43.57292" lon="2.13442">
        <ele>171.25</ele>
        <time>2014-11-16T09:39:21Z</time>
      </trkpt>
      <trkpt lat="43.57294" lon="2.13429">
        <ele>170.77</ele>
        <time>2014-11-16T09:39:23Z</time>
      </trkpt>
      <trkpt lat="43.57299" lon="2.13417">
        <ele>170.77</ele>
        <time>2014-11-16T09:39:25Z</time>
      </trkpt>
      <trkpt lat="43.57307" lon="2.13409">
        <ele>170.77</ele>
        <time>2014-11-16T09:39:27Z</time>
      </trkpt>
      <trkpt lat="43.57316" lon="2.13405">
        <ele>171.73</ele>
        <time>2014-11-16T09:39:29Z</time>
      </trkpt>
      <trkpt lat="43.57325" lon="2.13407">
        <ele>171.73</ele>
        <time>2014-11-16T09:39:31Z</time>
      </trkpt>
      <trkpt lat="43.57336" lon="2.13412">
        <ele>171.73</ele>
        <time>2014-11-16T09:39:34Z</time>
      </trkpt>
      <trkpt lat="43.57347" lon="2.13417">
        <ele>171.25</ele>
        <time>2014-11-16T09:39:37Z</time>
      </trkpt>
      <trkpt lat="43.57358" lon="2.1342">
        <ele>171.25</ele>
        <time>2014-11-16T09:39:40Z</time>
      </trkpt>
      <trkpt lat="43.5737" lon="2.13424">
        <ele>171.25</ele>
        <time>2014-11-16T09:39:43Z</time>
      </trkpt>
      <trkpt lat="43.57382" lon="2.13429">
        <ele>171.25</ele>
        <time>2014-11-16T09:39:46Z</time>
      </trkpt>
      <trkpt lat="43.57393" lon="2.13434">
        <ele>171.25</ele>
        <time>2014-11-16T09:39:49Z</time>
      </trkpt>
      <trkpt lat="43.57405" lon="2.13438">
        <ele>171.25</ele>
        <time>2014-11-16T09:39:52Z</time>
      </trkpt>
      <trkpt lat="43.57417" lon="2.13443">
        <ele>171.25</ele>
        <time>2014-11-16T09:39:55Z</time>
      </trkpt>
      <trkpt lat="43.5743" lon="2.13448">
        <ele>171.73</ele>
        <time>2014-11-16T09:39:58Z</time>
      </trkpt>
      <trkpt lat="43.57443" lon="2.13453">
        <ele>171.25</ele>
        <time>2014-11-16T09:40:01Z</time>
      </trkpt>
      <trkpt lat="43.57452" lon="2.13456">
        <ele>171.25</ele>
        <time>2014-11-16T09:40:03Z</time>
      </trkpt>
      <trkpt lat="43.57465" lon="2.1346">
        <ele>171.25</ele>
        <time>2014-11-16T09:40:06Z</time>
      </trkpt>
      <trkpt lat="43.57478" lon="2.13464">
        <ele>171.25</ele>
        <time>2014-11-16T09:40:09Z</time>
      </trkpt>
      <trkpt lat="43.57491" lon="2.13469">
        <ele>171.25</ele>
        <time>2014-11-16T09:40:12Z</time>
      </trkpt>
      <trkpt lat="43.57504" lon="2.13473">
        <ele>171.25</ele>
        <time>2014-11-16T09:40:15Z</time>
      </trkpt>
      <trkpt lat="43.57516" lon="2.13478">
        <ele>170.77</ele>
        <time>2014-11-16T09:40:18Z</time>
      </trkpt>
      <trkpt lat="43.57528" lon="2.13483">
        <ele>170.77</ele>
        <time>2014-11-16T09:40:21Z</time>
      </trkpt>
      <trkpt lat="43.57541" lon="2.13487">
        <ele>170.77</ele>
        <time>2014-11-16T09:40:24Z</time>
      </trkpt>
      <trkpt lat="43.57554" lon="2.13491">
        <ele>170.77</ele>
        <time>2014-11-16T09:40:27Z</time>
      </trkpt>
      <trkpt lat="43.57566" lon="2.13496">
        <ele>170.77</ele>
        <time>2014-11-16T09:40:30Z</time>
      </trkpt>
      <trkpt lat="43.57577" lon="2.13502">
        <ele>170.77</ele>
        <time>2014-11-16T09:40:33Z</time>
      </trkpt>
      <trkpt lat="43.57588" lon="2.13506">
        <ele>170.77</ele>
        <time>2014-11-16T09:40:36Z</time>
      </trkpt>
      <trkpt lat="43.57599" lon="2.13511">
        <ele>170.77</ele>
        <time>2014-11-16T09:40:39Z</time>
      </trkpt>
      <trkpt lat="43.57608" lon="2.13516">
        <ele>170.77</ele>
        <time>2014-11-16T09:40:42Z</time>
      </trkpt>
      <trkpt lat="43.57619" lon="2.13519">
        <ele>170.77</ele>
        <time>2014-11-16T09:40:45Z</time>
      </trkpt>
      <trkpt lat="43.5763" lon="2.13525">
        <ele>170.77</ele>
        <time>2014-11-16T09:40:48Z</time>
      </trkpt>
      <trkpt lat="43.57641" lon="2.1353">
        <ele>170.77</ele>
        <time>2014-11-16T09:40:51Z</time>
      </trkpt>
      <trkpt lat="43.57653" lon="2.13535">
        <ele>170.77</ele>
        <time>2014-11-16T09:40:54Z</time>
      </trkpt>
      <trkpt lat="43.57664" lon="2.1354">
        <ele>170.29</ele>
        <time>2014-11-16T09:40:57Z</time>
      </trkpt>
      <trkpt lat="43.57677" lon="2.13544">
        <ele>170.29</ele>
        <time>2014-11-16T09:41:00Z</time>
      </trkpt>
      <trkpt lat="43.57689" lon="2.13549">
        <ele>170.29</ele>
        <time>2014-11-16T09:41:03Z</time>
      </trkpt>
      <trkpt lat="43.57699" lon="2.13553">
        <ele>170.29</ele>
        <time>2014-11-16T09:41:06Z</time>
      </trkpt>
      <trkpt lat="43.5771" lon="2.13558">
        <ele>170.29</ele>
        <time>2014-11-16T09:41:09Z</time>
      </trkpt>
      <trkpt lat="43.57723" lon="2.13561">
        <ele>170.29</ele>
        <time>2014-11-16T09:41:13Z</time>
      </trkpt>
      <trkpt lat="43.57738" lon="2.1356">
        <ele>170.29</ele>
        <time>2014-11-16T09:41:17Z</time>
      </trkpt>
      <trkpt lat="43.57745" lon="2.13546">
        <ele>170.29</ele>
        <time>2014-11-16T09:41:21Z</time>
      </trkpt>
      <trkpt lat="43.57754" lon="2.13534">
        <ele>169.81</ele>
        <time>2014-11-16T09:41:25Z</time>
      </trkpt>
      <trkpt lat="43.57763" lon="2.13526">
        <ele>169.81</ele>
        <time>2014-11-16T09:41:29Z</time>
      </trkpt>
      <trkpt lat="43.57771" lon="2.13518">
        <ele>169.81</ele>
        <time>2014-11-16T09:41:32Z</time>
      </trkpt>
      <trkpt lat="43.57781" lon="2.13511">
        <ele>169.81</ele>
        <time>2014-11-16T09:41:35Z</time>
      </trkpt>
      <trkpt lat="43.57792" lon="2.13507">
        <ele>169.33</ele>
        <time>2014-11-16T09:41:38Z</time>
      </trkpt>
      <trkpt lat="43.57803" lon="2.13503">
        <ele>169.33</ele>
        <time>2014-11-16T09:41:41Z</time>
      </trkpt>
      <trkpt lat="43.57813" lon="2.13498">
        <ele>169.33</ele>
        <time>2014-11-16T09:41:44Z</time>
      </trkpt>
      <trkpt lat="43.57824" lon="2.13494">
        <ele>169.33</ele>
        <time>2014-11-16T09:41:47Z</time>
      </trkpt>
      <trkpt lat="43.57835" lon="2.13489">
        <ele>169.33</ele>
        <time>2014-11-16T09:41:50Z</time>
      </trkpt>
      <trkpt lat="43.57846" lon="2.13485">
        <ele>169.33</ele>
        <time>2014-11-16T09:41:53Z</time>
      </trkpt>
      <trkpt lat="43.57859" lon="2.1348">
        <ele>169.33</ele>
        <time>2014-11-16T09:41:56Z</time>
      </trkpt>
      <trkpt lat="43.57871" lon="2.13473">
        <ele>169.33</ele>
        <time>2014-11-16T09:41:59Z</time>
      </trkpt>
      <trkpt lat="43.57883" lon="2.13467">
        <ele>169.33</ele>
        <time>2014-11-16T09:42:02Z</time>
      </trkpt>
      <trkpt lat="43.57894" lon="2.1346">
        <ele>168.85</ele>
        <time>2014-11-16T09:42:05Z</time>
      </trkpt>
      <trkpt lat="43.57906" lon="2.13453">
        <ele>169.33</ele>
        <time>2014-11-16T09:42:08Z</time>
      </trkpt>
      <trkpt lat="43.57919" lon="2.13446">
        <ele>168.85</ele>
        <time>2014-11-16T09:42:11Z</time>
      </trkpt>
      <trkpt lat="43.57927" lon="2.13441">
        <ele>168.85</ele>
        <time>2014-11-16T09:42:13Z</time>
      </trkpt>
      <trkpt lat="43.57936" lon="2.13437">
        <ele>168.85</ele>
        <time>2014-11-16T09:42:15Z</time>
      </trkpt>
      <trkpt lat="43.57944" lon="2.13433">
        <ele>168.85</ele>
        <time>2014-11-16T09:42:17Z</time>
      </trkpt>
      <trkpt lat="43.57957" lon="2.13427">
        <ele>168.85</ele>
        <time>2014-11-16T09:42:20Z</time>
      </trkpt>
      <trkpt lat="43.5797" lon="2.13421">
        <ele>168.85</ele>
        <time>2014-11-16T09:42:23Z</time>
      </trkpt>
      <trkpt lat="43.57978" lon="2.13418">
        <ele>168.85</ele>
        <time>2014-11-16T09:42:25Z</time>
      </trkpt>
      <trkpt lat="43.57987" lon="2.13414">
        <ele>168.85</ele>
        <time>2014-11-16T09:42:27Z</time>
      </trkpt>
      <trkpt lat="43.57997" lon="2.13411">
        <ele>168.37</ele>
        <time>2014-11-16T09:42:29Z</time>
      </trkpt>
      <trkpt lat="43.58006" lon="2.13407">
        <ele>168.37</ele>
        <time>2014-11-16T09:42:31Z</time>
      </trkpt>
      <trkpt lat="43.58014" lon="2.13403">
        <ele>168.37</ele>
        <time>2014-11-16T09:42:33Z</time>
      </trkpt>
      <trkpt lat="43.58023" lon="2.13399">
        <ele>168.37</ele>
        <time>2014-11-16T09:42:35Z</time>
      </trkpt>
      <trkpt lat="43.58032" lon="2.13396">
        <ele>168.37</ele>
        <time>2014-11-16T09:42:37Z</time>
      </trkpt>
      <trkpt lat="43.58045" lon="2.13391">
        <ele>168.37</ele>
        <time>2014-11-16T09:42:40Z</time>
      </trkpt>
      <trkpt lat="43.58058" lon="2.13386">
        <ele>168.37</ele>
        <time>2014-11-16T09:42:43Z</time>
      </trkpt>
      <trkpt lat="43.5807" lon="2.1338">
        <ele>168.37</ele>
        <time>2014-11-16T09:42:46Z</time>
      </trkpt>
      <trkpt lat="43.58083" lon="2.13376">
        <ele>168.37</ele>
        <time>2014-11-16T09:42:49Z</time>
      </trkpt>
      <trkpt lat="43.58095" lon="2.13371">
        <ele>168.85</ele>
        <time>2014-11-16T09:42:52Z</time>
      </trkpt>
      <trkpt lat="43.58108" lon="2.13365">
        <ele>168.37</ele>
        <time>2014-11-16T09:42:55Z</time>
      </trkpt>
      <trkpt lat="43.5812" lon="2.13359">
        <ele>168.37</ele>
        <time>2014-11-16T09:42:58Z</time>
      </trkpt>
      <trkpt lat="43.58129" lon="2.13355">
        <ele>168.37</ele>
        <time>2014-11-16T09:43:00Z</time>
      </trkpt>
      <trkpt lat="43.58137" lon="2.13351">
        <ele>168.37</ele>
        <time>2014-11-16T09:43:02Z</time>
      </trkpt>
      <trkpt lat="43.58146" lon="2.13347">
        <ele>168.37</ele>
        <time>2014-11-16T09:43:04Z</time>
      </trkpt>
      <trkpt lat="43.58155" lon="2.13343">
        <ele>168.37</ele>
        <time>2014-11-16T09:43:06Z</time>
      </trkpt>
      <trkpt lat="43.58164" lon="2.1334">
        <ele>168.37</ele>
        <time>2014-11-16T09:43:08Z</time>
      </trkpt>
      <trkpt lat="43.58177" lon="2.13336">
        <ele>168.37</ele>
        <time>2014-11-16T09:43:11Z</time>
      </trkpt>
      <trkpt lat="43.5819" lon="2.13332">
        <ele>168.37</ele>
        <time>2014-11-16T09:43:14Z</time>
      </trkpt>
      <trkpt lat="43.58202" lon="2.1333">
        <ele>168.85</ele>
        <time>2014-11-16T09:43:17Z</time>
      </trkpt>
      <trkpt lat="43.58211" lon="2.1333">
        <ele>168.37</ele>
        <time>2014-11-16T09:43:19Z</time>
      </trkpt>
      <trkpt lat="43.58225" lon="2.13333">
        <ele>168.37</ele>
        <time>2014-11-16T09:43:22Z</time>
      </trkpt>
      <trkpt lat="43.58237" lon="2.13341">
        <ele>168.37</ele>
        <time>2014-11-16T09:43:25Z</time>
      </trkpt>
      <trkpt lat="43.58248" lon="2.13351">
        <ele>168.85</ele>
        <time>2014-11-16T09:43:28Z</time>
      </trkpt>
      <trkpt lat="43.58259" lon="2.13355">
        <ele>168.37</ele>
        <time>2014-11-16T09:43:31Z</time>
      </trkpt>
      <trkpt lat="43.58269" lon="2.13346">
        <ele>168.37</ele>
        <time>2014-11-16T09:43:34Z</time>
      </trkpt>
      <trkpt lat="43.58277" lon="2.13332">
        <ele>168.37</ele>
        <time>2014-11-16T09:43:37Z</time>
      </trkpt>
      <trkpt lat="43.58284" lon="2.13319">
        <ele>168.37</ele>
        <time>2014-11-16T09:43:40Z</time>
      </trkpt>
      <trkpt lat="43.5829" lon="2.13305">
        <ele>168.37</ele>
        <time>2014-11-16T09:43:43Z</time>
      </trkpt>
      <trkpt lat="43.58296" lon="2.13291">
        <ele>168.37</ele>
        <time>2014-11-16T09:43:46Z</time>
      </trkpt>
      <trkpt lat="43.58302" lon="2.13277">
        <ele>168.37</ele>
        <time>2014-11-16T09:43:49Z</time>
      </trkpt>
      <trkpt lat="43.58309" lon="2.13261">
        <ele>168.37</ele>
        <time>2014-11-16T09:43:52Z</time>
      </trkpt>
      <trkpt lat="43.58316" lon="2.13244">
        <ele>168.37</ele>
        <time>2014-11-16T09:43:55Z</time>
      </trkpt>
      <trkpt lat="43.58321" lon="2.13233">
        <ele>168.37</ele>
        <time>2014-11-16T09:43:57Z</time>
      </trkpt>
      <trkpt lat="43.58326" lon="2.13222">
        <ele>169.81</ele>
        <time>2014-11-16T09:43:59Z</time>
      </trkpt>
      <trkpt lat="43.5833" lon="2.13211">
        <ele>168.37</ele>
        <time>2014-11-16T09:44:01Z</time>
      </trkpt>
      <trkpt lat="43.58334" lon="2.132">
        <ele>168.37</ele>
        <time>2014-11-16T09:44:03Z</time>
      </trkpt>
      <trkpt lat="43.5834" lon="2.13183">
        <ele>168.37</ele>
        <time>2014-11-16T09:44:06Z</time>
      </trkpt>
      <trkpt lat="43.58344" lon="2.13172">
        <ele>168.37</ele>
        <time>2014-11-16T09:44:08Z</time>
      </trkpt>
      <trkpt lat="43.58348" lon="2.1316">
        <ele>168.37</ele>
        <time>2014-11-16T09:44:10Z</time>
      </trkpt>
      <trkpt lat="43.58355" lon="2.13144">
        <ele>168.37</ele>
        <time>2014-11-16T09:44:13Z</time>
      </trkpt>
      <trkpt lat="43.58361" lon="2.13134">
        <ele>168.37</ele>
        <time>2014-11-16T09:44:15Z</time>
      </trkpt>
      <trkpt lat="43.58367" lon="2.13124">
        <ele>168.37</ele>
        <time>2014-11-16T09:44:17Z</time>
      </trkpt>
      <trkpt lat="43.58373" lon="2.13114">
        <ele>168.37</ele>
        <time>2014-11-16T09:44:19Z</time>
      </trkpt>
      <trkpt lat="43.58379" lon="2.13104">
        <ele>167.89</ele>
        <time>2014-11-16T09:44:21Z</time>
      </trkpt>
      <trkpt lat="43.58386" lon="2.13094">
        <ele>167.89</ele>
        <time>2014-11-16T09:44:23Z</time>
      </trkpt>
      <trkpt lat="43.58392" lon="2.13084">
        <ele>167.89</ele>
        <time>2014-11-16T09:44:25Z</time>
      </trkpt>
      <trkpt lat="43.58398" lon="2.13073">
        <ele>168.37</ele>
        <time>2014-11-16T09:44:27Z</time>
      </trkpt>
      <trkpt lat="43.58404" lon="2.13063">
        <ele>167.89</ele>
        <time>2014-11-16T09:44:29Z</time>
      </trkpt>
      <trkpt lat="43.5841" lon="2.13052">
        <ele>167.89</ele>
        <time>2014-11-16T09:44:31Z</time>
      </trkpt>
      <trkpt lat="43.58416" lon="2.13041">
        <ele>167.89</ele>
        <time>2014-11-16T09:44:33Z</time>
      </trkpt>
      <trkpt lat="43.58422" lon="2.13031">
        <ele>167.89</ele>
        <time>2014-11-16T09:44:35Z</time>
      </trkpt>
      <trkpt lat="43.58427" lon="2.13019">
        <ele>167.89</ele>
        <time>2014-11-16T09:44:37Z</time>
      </trkpt>
      <trkpt lat="43.58432" lon="2.13008">
        <ele>167.89</ele>
        <time>2014-11-16T09:44:39Z</time>
      </trkpt>
      <trkpt lat="43.58437" lon="2.12996">
        <ele>167.89</ele>
        <time>2014-11-16T09:44:41Z</time>
      </trkpt>
      <trkpt lat="43.58442" lon="2.12984">
        <ele>167.89</ele>
        <time>2014-11-16T09:44:43Z</time>
      </trkpt>
      <trkpt lat="43.58447" lon="2.12972">
        <ele>167.89</ele>
        <time>2014-11-16T09:44:45Z</time>
      </trkpt>
      <trkpt lat="43.58451" lon="2.12961">
        <ele>167.89</ele>
        <time>2014-11-16T09:44:47Z</time>
      </trkpt>
      <trkpt lat="43.58458" lon="2.12945">
        <ele>167.89</ele>
        <time>2014-11-16T09:44:50Z</time>
      </trkpt>
      <trkpt lat="43.58465" lon="2.1293">
        <ele>167.89</ele>
        <time>2014-11-16T09:44:53Z</time>
      </trkpt>
      <trkpt lat="43.58474" lon="2.1292">
        <ele>167.41</ele>
        <time>2014-11-16T09:44:56Z</time>
      </trkpt>
      <trkpt lat="43.58484" lon="2.1293">
        <ele>167.89</ele>
        <time>2014-11-16T09:44:59Z</time>
      </trkpt>
      <trkpt lat="43.5849" lon="2.12945">
        <ele>167.89</ele>
        <time>2014-11-16T09:45:02Z</time>
      </trkpt>
      <trkpt lat="43.58497" lon="2.12961">
        <ele>167.89</ele>
        <time>2014-11-16T09:45:05Z</time>
      </trkpt>
      <trkpt lat="43.58501" lon="2.12973">
        <ele>167.89</ele>
        <time>2014-11-16T09:45:07Z</time>
      </trkpt>
      <trkpt lat="43.58506" lon="2.12984">
        <ele>167.89</ele>
        <time>2014-11-16T09:45:09Z</time>
      </trkpt>
      <trkpt lat="43.5851" lon="2.12995">
        <ele>167.89</ele>
        <time>2014-11-16T09:45:11Z</time>
      </trkpt>
      <trkpt lat="43.58515" lon="2.13007">
        <ele>167.89</ele>
        <time>2014-11-16T09:45:13Z</time>
      </trkpt>
      <trkpt lat="43.58519" lon="2.13018">
        <ele>167.89</ele>
        <time>2014-11-16T09:45:15Z</time>
      </trkpt>
      <trkpt lat="43.58523" lon="2.13029">
        <ele>168.37</ele>
        <time>2014-11-16T09:45:17Z</time>
      </trkpt>
      <trkpt lat="43.58528" lon="2.13047">
        <ele>168.37</ele>
        <time>2014-11-16T09:45:20Z</time>
      </trkpt>
      <trkpt lat="43.5853" lon="2.13059">
        <ele>168.37</ele>
        <time>2014-11-16T09:45:22Z</time>
      </trkpt>
      <trkpt lat="43.58532" lon="2.13072">
        <ele>168.37</ele>
        <time>2014-11-16T09:45:24Z</time>
      </trkpt>
      <trkpt lat="43.58535" lon="2.13083">
        <ele>168.37</ele>
        <time>2014-11-16T09:45:26Z</time>
      </trkpt>
      <trkpt lat="43.5854" lon="2.13094">
        <ele>168.37</ele>
        <time>2014-11-16T09:45:28Z</time>
      </trkpt>
      <trkpt lat="43.58544" lon="2.13106">
        <ele>168.37</ele>
        <time>2014-11-16T09:45:30Z</time>
      </trkpt>
      <trkpt lat="43.58548" lon="2.13118">
        <ele>168.37</ele>
        <time>2014-11-16T09:45:32Z</time>
      </trkpt>
      <trkpt lat="43.58552" lon="2.13129">
        <ele>168.37</ele>
        <time>2014-11-16T09:45:34Z</time>
      </trkpt>
      <trkpt lat="43.58557" lon="2.13141">
        <ele>168.37</ele>
        <time>2014-11-16T09:45:36Z</time>
      </trkpt>
      <trkpt lat="43.58563" lon="2.13153">
        <ele>168.37</ele>
        <time>2014-11-16T09:45:38Z</time>
      </trkpt>
      <trkpt lat="43.58566" lon="2.13166">
        <ele>168.37</ele>
        <time>2014-11-16T09:45:40Z</time>
      </trkpt>
      <trkpt lat="43.58568" lon="2.13179">
        <ele>167.89</ele>
        <time>2014-11-16T09:45:42Z</time>
      </trkpt>
      <trkpt lat="43.58573" lon="2.13191">
        <ele>168.37</ele>
        <time>2014-11-16T09:45:44Z</time>
      </trkpt>
      <trkpt lat="43.58576" lon="2.13203">
        <ele>168.37</ele>
        <time>2014-11-16T09:45:46Z</time>
      </trkpt>
      <trkpt lat="43.58582" lon="2.1322">
        <ele>168.37</ele>
        <time>2014-11-16T09:45:49Z</time>
      </trkpt>
      <trkpt lat="43.58588" lon="2.13236">
        <ele>168.85</ele>
        <time>2014-11-16T09:45:52Z</time>
      </trkpt>
      <trkpt lat="43.58595" lon="2.13248">
        <ele>168.85</ele>
        <time>2014-11-16T09:45:55Z</time>
      </trkpt>
      <trkpt lat="43.58601" lon="2.13262">
        <ele>168.37</ele>
        <time>2014-11-16T09:45:58Z</time>
      </trkpt>
      <trkpt lat="43.58607" lon="2.13278">
        <ele>168.85</ele>
        <time>2014-11-16T09:46:01Z</time>
      </trkpt>
      <trkpt lat="43.58612" lon="2.1329">
        <ele>168.37</ele>
        <time>2014-11-16T09:46:03Z</time>
      </trkpt>
      <trkpt lat="43.58617" lon="2.13301">
        <ele>168.37</ele>
        <time>2014-11-16T09:46:05Z</time>
      </trkpt>
      <trkpt lat="43.58622" lon="2.13314">
        <ele>168.37</ele>
        <time>2014-11-16T09:46:07Z</time>
      </trkpt>
      <trkpt lat="43.58626" lon="2.13326">
        <ele>168.37</ele>
        <time>2014-11-16T09:46:09Z</time>
      </trkpt>
      <trkpt lat="43.58631" lon="2.13339">
        <ele>168.37</ele>
        <time>2014-11-16T09:46:11Z</time>
      </trkpt>
      <trkpt lat="43.58635" lon="2.13352">
        <ele>168.37</ele>
        <time>2014-11-16T09:46:13Z</time>
      </trkpt>
      <trkpt lat="43.58641" lon="2.13365">
        <ele>168.37</ele>
        <time>2014-11-16T09:46:15Z</time>
      </trkpt>
      <trkpt lat="43.58646" lon="2.13377">
        <ele>168.37</ele>
        <time>2014-11-16T09:46:17Z</time>
      </trkpt>
      <trkpt lat="43.5865" lon="2.1339">
        <ele>168.37</ele>
        <time>2014-11-16T09:46:19Z</time>
      </trkpt>
      <trkpt lat="43.58654" lon="2.13403">
        <ele>168.37</ele>
        <time>2014-11-16T09:46:21Z</time>
      </trkpt>
      <trkpt lat="43.58659" lon="2.13416">
        <ele>168.37</ele>
        <time>2014-11-16T09:46:23Z</time>
      </trkpt>
      <trkpt lat="43.58664" lon="2.13428">
        <ele>168.37</ele>
        <time>2014-11-16T09:46:25Z</time>
      </trkpt>
      <trkpt lat="43.58669" lon="2.13441">
        <ele>168.37</ele>
        <time>2014-11-16T09:46:27Z</time>
      </trkpt>
      <trkpt lat="43.58673" lon="2.13454">
        <ele>168.37</ele>
        <time>2014-11-16T09:46:29Z</time>
      </trkpt>
      <trkpt lat="43.58675" lon="2.13468">
        <ele>168.37</ele>
        <time>2014-11-16T09:46:31Z</time>
      </trkpt>
      <trkpt lat="43.58674" lon="2.13483">
        <ele>167.89</ele>
        <time>2014-11-16T09:46:33Z</time>
      </trkpt>
      <trkpt lat="43.58671" lon="2.13496">
        <ele>168.37</ele>
        <time>2014-11-16T09:46:35Z</time>
      </trkpt>
      <trkpt lat="43.58668" lon="2.13508">
        <ele>168.37</ele>
        <time>2014-11-16T09:46:37Z</time>
      </trkpt>
      <trkpt lat="43.58665" lon="2.1352">
        <ele>168.37</ele>
        <time>2014-11-16T09:46:39Z</time>
      </trkpt>
      <trkpt lat="43.58665" lon="2.13539">
        <ele>168.85</ele>
        <time>2014-11-16T09:46:42Z</time>
      </trkpt>
      <trkpt lat="43.58664" lon="2.13551">
        <ele>168.85</ele>
        <time>2014-11-16T09:46:44Z</time>
      </trkpt>
      <trkpt lat="43.58661" lon="2.13563">
        <ele>168.37</ele>
        <time>2014-11-16T09:46:46Z</time>
      </trkpt>
      <trkpt lat="43.58658" lon="2.13575">
        <ele>168.37</ele>
        <time>2014-11-16T09:46:48Z</time>
      </trkpt>
      <trkpt lat="43.58653" lon="2.13592">
        <ele>168.85</ele>
        <time>2014-11-16T09:46:51Z</time>
      </trkpt>
      <trkpt lat="43.58644" lon="2.13605">
        <ele>169.33</ele>
        <time>2014-11-16T09:46:54Z</time>
      </trkpt>
      <trkpt lat="43.58641" lon="2.13623">
        <ele>169.33</ele>
        <time>2014-11-16T09:46:57Z</time>
      </trkpt>
      <trkpt lat="43.58637" lon="2.13635">
        <ele>169.33</ele>
        <time>2014-11-16T09:46:59Z</time>
      </trkpt>
      <trkpt lat="43.58634" lon="2.13647">
        <ele>168.85</ele>
        <time>2014-11-16T09:47:01Z</time>
      </trkpt>
      <trkpt lat="43.58628" lon="2.13657">
        <ele>168.85</ele>
        <time>2014-11-16T09:47:03Z</time>
      </trkpt>
      <trkpt lat="43.58623" lon="2.13668">
        <ele>168.85</ele>
        <time>2014-11-16T09:47:05Z</time>
      </trkpt>
      <trkpt lat="43.58616" lon="2.1368">
        <ele>168.85</ele>
        <time>2014-11-16T09:47:07Z</time>
      </trkpt>
      <trkpt lat="43.58611" lon="2.13694">
        <ele>169.33</ele>
        <time>2014-11-16T09:47:10Z</time>
      </trkpt>
      <trkpt lat="43.58604" lon="2.13704">
        <ele>169.33</ele>
        <time>2014-11-16T09:47:13Z</time>
      </trkpt>
      <trkpt lat="43.58595" lon="2.13715">
        <ele>168.85</ele>
        <time>2014-11-16T09:47:16Z</time>
      </trkpt>
      <trkpt lat="43.58586" lon="2.13728">
        <ele>169.33</ele>
        <time>2014-11-16T09:47:19Z</time>
      </trkpt>
      <trkpt lat="43.58579" lon="2.13743">
        <ele>169.33</ele>
        <time>2014-11-16T09:47:22Z</time>
      </trkpt>
      <trkpt lat="43.58568" lon="2.13753">
        <ele>169.81</ele>
        <time>2014-11-16T09:47:25Z</time>
      </trkpt>
      <trkpt lat="43.58561" lon="2.13769">
        <ele>169.33</ele>
        <time>2014-11-16T09:47:28Z</time>
      </trkpt>
      <trkpt lat="43.58552" lon="2.13783">
        <ele>169.33</ele>
        <time>2014-11-16T09:47:31Z</time>
      </trkpt>
      <trkpt lat="43.58547" lon="2.13794">
        <ele>169.81</ele>
        <time>2014-11-16T09:47:33Z</time>
      </trkpt>
      <trkpt lat="43.5854" lon="2.1381">
        <ele>169.81</ele>
        <time>2014-11-16T09:47:36Z</time>
      </trkpt>
      <trkpt lat="43.58535" lon="2.13825">
        <ele>169.81</ele>
        <time>2014-11-16T09:47:39Z</time>
      </trkpt>
      <trkpt lat="43.58539" lon="2.13839">
        <ele>169.81</ele>
        <time>2014-11-16T09:47:42Z</time>
      </trkpt>
      <trkpt lat="43.58539" lon="2.13853">
        <ele>169.81</ele>
        <time>2014-11-16T09:47:45Z</time>
      </trkpt>
      <trkpt lat="43.58549" lon="2.13863">
        <ele>170.29</ele>
        <time>2014-11-16T09:47:48Z</time>
      </trkpt>
      <trkpt lat="43.58561" lon="2.1387">
        <ele>169.81</ele>
        <time>2014-11-16T09:47:51Z</time>
      </trkpt>
      <trkpt lat="43.58573" lon="2.13875">
        <ele>169.81</ele>
        <time>2014-11-16T09:47:54Z</time>
      </trkpt>
      <trkpt lat="43.58581" lon="2.13877">
        <ele>169.81</ele>
        <time>2014-11-16T09:47:59Z</time>
      </trkpt>
      <trkpt lat="43.58584" lon="2.1388">
        <ele>169.33</ele>
        <time>2014-11-16T09:59:47Z</time>
      </trkpt>
      <trkpt lat="43.58594" lon="2.13884">
        <ele>168.85</ele>
        <time>2014-11-16T09:59:55Z</time>
      </trkpt>
      <trkpt lat="43.58605" lon="2.13887">
        <ele>169.33</ele>
        <time>2014-11-16T10:00:02Z</time>
      </trkpt>
      <trkpt lat="43.58614" lon="2.1389">
        <ele>169.33</ele>
        <time>2014-11-16T10:00:07Z</time>
      </trkpt>
      <trkpt lat="43.58625" lon="2.13893">
        <ele>169.33</ele>
        <time>2014-11-16T10:00:12Z</time>
      </trkpt>
      <trkpt lat="43.58636" lon="2.13897">
        <ele>169.33</ele>
        <time>2014-11-16T10:00:17Z</time>
      </trkpt>
      <trkpt lat="43.58648" lon="2.13902">
        <ele>169.33</ele>
        <time>2014-11-16T10:00:22Z</time>
      </trkpt>
      <trkpt lat="43.58658" lon="2.13906">
        <ele>169.33</ele>
        <time>2014-11-16T10:00:26Z</time>
      </trkpt>
      <trkpt lat="43.58668" lon="2.13909">
        <ele>169.33</ele>
        <time>2014-11-16T10:00:30Z</time>
      </trkpt>
      <trkpt lat="43.58678" lon="2.13913">
        <ele>169.81</ele>
        <time>2014-11-16T10:00:35Z</time>
      </trkpt>
      <trkpt lat="43.58689" lon="2.13916">
        <ele>169.81</ele>
        <time>2014-11-16T10:00:40Z</time>
      </trkpt>
      <trkpt lat="43.587" lon="2.13921">
        <ele>169.33</ele>
        <time>2014-11-16T10:00:44Z</time>
      </trkpt>
      <trkpt lat="43.58711" lon="2.13925">
        <ele>169.81</ele>
        <time>2014-11-16T10:00:48Z</time>
      </trkpt>
      <trkpt lat="43.58723" lon="2.1393">
        <ele>169.81</ele>
        <time>2014-11-16T10:00:52Z</time>
      </trkpt>
      <trkpt lat="43.58735" lon="2.13934">
        <ele>169.81</ele>
        <time>2014-11-16T10:00:56Z</time>
      </trkpt>
      <trkpt lat="43.58741" lon="2.13943">
        <ele>169.33</ele>
        <time>2014-11-16T10:00:59Z</time>
      </trkpt>
      <trkpt lat="43.58737" lon="2.13959">
        <ele>168.37</ele>
        <time>2014-11-16T10:01:02Z</time>
      </trkpt>
      <trkpt lat="43.58731" lon="2.13975">
        <ele>167.89</ele>
        <time>2014-11-16T10:01:05Z</time>
      </trkpt>
      <trkpt lat="43.58726" lon="2.13987">
        <ele>167.89</ele>
        <time>2014-11-16T10:01:07Z</time>
      </trkpt>
      <trkpt lat="43.58719" lon="2.14002">
        <ele>168.37</ele>
        <time>2014-11-16T10:01:10Z</time>
      </trkpt>
      <trkpt lat="43.58711" lon="2.14015">
        <ele>168.37</ele>
        <time>2014-11-16T10:01:13Z</time>
      </trkpt>
      <trkpt lat="43.58701" lon="2.14026">
        <ele>168.37</ele>
        <time>2014-11-16T10:01:16Z</time>
      </trkpt>
      <trkpt lat="43.58692" lon="2.14038">
        <ele>167.89</ele>
        <time>2014-11-16T10:01:19Z</time>
      </trkpt>
      <trkpt lat="43.58684" lon="2.14052">
        <ele>168.37</ele>
        <time>2014-11-16T10:01:22Z</time>
      </trkpt>
      <trkpt lat="43.58681" lon="2.14067">
        <ele>168.37</ele>
        <time>2014-11-16T10:01:25Z</time>
      </trkpt>
      <trkpt lat="43.58676" lon="2.1408">
        <ele>168.85</ele>
        <time>2014-11-16T10:01:28Z</time>
      </trkpt>
      <trkpt lat="43.58668" lon="2.14093">
        <ele>168.37</ele>
        <time>2014-11-16T10:01:31Z</time>
      </trkpt>
      <trkpt lat="43.58661" lon="2.14108">
        <ele>168.37</ele>
        <time>2014-11-16T10:01:34Z</time>
      </trkpt>
      <trkpt lat="43.58654" lon="2.14122">
        <ele>168.37</ele>
        <time>2014-11-16T10:01:37Z</time>
      </trkpt>
      <trkpt lat="43.58646" lon="2.14138">
        <ele>168.85</ele>
        <time>2014-11-16T10:01:40Z</time>
      </trkpt>
      <trkpt lat="43.58639" lon="2.14153">
        <ele>168.85</ele>
        <time>2014-11-16T10:01:43Z</time>
      </trkpt>
      <trkpt lat="43.58627" lon="2.14165">
        <ele>168.85</ele>
        <time>2014-11-16T10:01:46Z</time>
      </trkpt>
      <trkpt lat="43.58619" lon="2.14179">
        <ele>168.85</ele>
        <time>2014-11-16T10:01:49Z</time>
      </trkpt>
      <trkpt lat="43.58612" lon="2.14195">
        <ele>168.37</ele>
        <time>2014-11-16T10:01:52Z</time>
      </trkpt>
      <trkpt lat="43.58605" lon="2.1421">
        <ele>168.85</ele>
        <time>2014-11-16T10:01:55Z</time>
      </trkpt>
      <trkpt lat="43.58596" lon="2.14223">
        <ele>168.85</ele>
        <time>2014-11-16T10:01:58Z</time>
      </trkpt>
      <trkpt lat="43.58592" lon="2.14234">
        <ele>168.85</ele>
        <time>2014-11-16T10:02:00Z</time>
      </trkpt>
      <trkpt lat="43.58586" lon="2.14249">
        <ele>168.85</ele>
        <time>2014-11-16T10:02:03Z</time>
      </trkpt>
      <trkpt lat="43.5858" lon="2.1426">
        <ele>168.37</ele>
        <time>2014-11-16T10:02:05Z</time>
      </trkpt>
      <trkpt lat="43.58572" lon="2.14274">
        <ele>168.85</ele>
        <time>2014-11-16T10:02:08Z</time>
      </trkpt>
      <trkpt lat="43.58564" lon="2.14287">
        <ele>168.85</ele>
        <time>2014-11-16T10:02:11Z</time>
      </trkpt>
      <trkpt lat="43.58557" lon="2.143">
        <ele>169.33</ele>
        <time>2014-11-16T10:02:14Z</time>
      </trkpt>
      <trkpt lat="43.58549" lon="2.1431">
        <ele>168.85</ele>
        <time>2014-11-16T10:02:17Z</time>
      </trkpt>
      <trkpt lat="43.58537" lon="2.14314">
        <ele>168.85</ele>
        <time>2014-11-16T10:02:20Z</time>
      </trkpt>
      <trkpt lat="43.58527" lon="2.14314">
        <ele>168.37</ele>
        <time>2014-11-16T10:02:23Z</time>
      </trkpt>
      <trkpt lat="43.58516" lon="2.1431">
        <ele>167.89</ele>
        <time>2014-11-16T10:02:26Z</time>
      </trkpt>
      <trkpt lat="43.58507" lon="2.14299">
        <ele>167.89</ele>
        <time>2014-11-16T10:02:29Z</time>
      </trkpt>
      <trkpt lat="43.585" lon="2.14285">
        <ele>167.41</ele>
        <time>2014-11-16T10:02:32Z</time>
      </trkpt>
      <trkpt lat="43.58493" lon="2.14271">
        <ele>167.41</ele>
        <time>2014-11-16T10:02:35Z</time>
      </trkpt>
      <trkpt lat="43.58486" lon="2.14258">
        <ele>167.41</ele>
        <time>2014-11-16T10:02:38Z</time>
      </trkpt>
      <trkpt lat="43.58477" lon="2.14247">
        <ele>167.89</ele>
        <time>2014-11-16T10:02:41Z</time>
      </trkpt>
      <trkpt lat="43.58467" lon="2.14239">
        <ele>167.89</ele>
        <time>2014-11-16T10:02:44Z</time>
      </trkpt>
      <trkpt lat="43.58457" lon="2.14228">
        <ele>167.89</ele>
        <time>2014-11-16T10:02:47Z</time>
      </trkpt>
      <trkpt lat="43.58449" lon="2.14217">
        <ele>167.89</ele>
        <time>2014-11-16T10:02:50Z</time>
      </trkpt>
      <trkpt lat="43.58441" lon="2.14204">
        <ele>167.89</ele>
        <time>2014-11-16T10:02:53Z</time>
      </trkpt>
      <trkpt lat="43.5843" lon="2.14193">
        <ele>167.89</ele>
        <time>2014-11-16T10:02:56Z</time>
      </trkpt>
      <trkpt lat="43.58422" lon="2.14182">
        <ele>168.37</ele>
        <time>2014-11-16T10:02:59Z</time>
      </trkpt>
      <trkpt lat="43.58411" lon="2.14173">
        <ele>167.89</ele>
        <time>2014-11-16T10:03:02Z</time>
      </trkpt>
      <trkpt lat="43.58402" lon="2.14162">
        <ele>167.89</ele>
        <time>2014-11-16T10:03:05Z</time>
      </trkpt>
      <trkpt lat="43.58395" lon="2.14149">
        <ele>167.89</ele>
        <time>2014-11-16T10:03:08Z</time>
      </trkpt>
      <trkpt lat="43.58389" lon="2.14136">
        <ele>167.89</ele>
        <time>2014-11-16T10:03:11Z</time>
      </trkpt>
      <trkpt lat="43.58387" lon="2.1412">
        <ele>167.89</ele>
        <time>2014-11-16T10:03:14Z</time>
      </trkpt>
      <trkpt lat="43.58384" lon="2.14104">
        <ele>167.89</ele>
        <time>2014-11-16T10:03:17Z</time>
      </trkpt>
      <trkpt lat="43.58381" lon="2.14089">
        <ele>167.41</ele>
        <time>2014-11-16T10:03:20Z</time>
      </trkpt>
      <trkpt lat="43.58377" lon="2.14075">
        <ele>167.41</ele>
        <time>2014-11-16T10:03:23Z</time>
      </trkpt>
      <trkpt lat="43.58377" lon="2.14058">
        <ele>167.41</ele>
        <time>2014-11-16T10:03:26Z</time>
      </trkpt>
      <trkpt lat="43.58381" lon="2.14044">
        <ele>167.41</ele>
        <time>2014-11-16T10:03:29Z</time>
      </trkpt>
      <trkpt lat="43.58387" lon="2.14034">
        <ele>167.41</ele>
        <time>2014-11-16T10:03:31Z</time>
      </trkpt>
      <trkpt lat="43.58394" lon="2.14025">
        <ele>167.41</ele>
        <time>2014-11-16T10:03:33Z</time>
      </trkpt>
      <trkpt lat="43.58401" lon="2.14015">
        <ele>167.89</ele>
        <time>2014-11-16T10:03:35Z</time>
      </trkpt>
      <trkpt lat="43.58408" lon="2.14006">
        <ele>167.41</ele>
        <time>2014-11-16T10:03:37Z</time>
      </trkpt>
      <trkpt lat="43.58414" lon="2.13995">
        <ele>167.41</ele>
        <time>2014-11-16T10:03:39Z</time>
      </trkpt>
      <trkpt lat="43.58418" lon="2.13983">
        <ele>167.41</ele>
        <time>2014-11-16T10:03:41Z</time>
      </trkpt>
      <trkpt lat="43.58425" lon="2.13967">
        <ele>167.41</ele>
        <time>2014-11-16T10:03:44Z</time>
      </trkpt>
      <trkpt lat="43.58426" lon="2.13954">
        <ele>167.41</ele>
        <time>2014-11-16T10:03:46Z</time>
      </trkpt>
      <trkpt lat="43.58422" lon="2.13942">
        <ele>167.41</ele>
        <time>2014-11-16T10:03:48Z</time>
      </trkpt>
      <trkpt lat="43.58413" lon="2.13934">
        <ele>167.41</ele>
        <time>2014-11-16T10:03:50Z</time>
      </trkpt>
      <trkpt lat="43.58403" lon="2.13928">
        <ele>167.41</ele>
        <time>2014-11-16T10:03:52Z</time>
      </trkpt>
      <trkpt lat="43.58393" lon="2.13923">
        <ele>166.93</ele>
        <time>2014-11-16T10:03:54Z</time>
      </trkpt>
      <trkpt lat="43.58383" lon="2.13923">
        <ele>166.93</ele>
        <time>2014-11-16T10:03:56Z</time>
      </trkpt>
      <trkpt lat="43.58372" lon="2.13931">
        <ele>167.41</ele>
        <time>2014-11-16T10:03:59Z</time>
      </trkpt>
      <trkpt lat="43.58358" lon="2.13931">
        <ele>167.41</ele>
        <time>2014-11-16T10:04:02Z</time>
      </trkpt>
      <trkpt lat="43.58345" lon="2.13924">
        <ele>167.41</ele>
        <time>2014-11-16T10:04:05Z</time>
      </trkpt>
      <trkpt lat="43.58336" lon="2.13912">
        <ele>168.85</ele>
        <time>2014-11-16T10:04:08Z</time>
      </trkpt>
      <trkpt lat="43.58331" lon="2.13902">
        <ele>167.41</ele>
        <time>2014-11-16T10:04:10Z</time>
      </trkpt>
      <trkpt lat="43.58326" lon="2.1389">
        <ele>167.41</ele>
        <time>2014-11-16T10:04:12Z</time>
      </trkpt>
      <trkpt lat="43.58322" lon="2.13879">
        <ele>167.41</ele>
        <time>2014-11-16T10:04:14Z</time>
      </trkpt>
      <trkpt lat="43.58317" lon="2.13867">
        <ele>167.41</ele>
        <time>2014-11-16T10:04:16Z</time>
      </trkpt>
      <trkpt lat="43.58313" lon="2.13856">
        <ele>167.41</ele>
        <time>2014-11-16T10:04:18Z</time>
      </trkpt>
      <trkpt lat="43.5831" lon="2.13844">
        <ele>167.41</ele>
        <time>2014-11-16T10:04:20Z</time>
      </trkpt>
      <trkpt lat="43.5831" lon="2.13826">
        <ele>167.41</ele>
        <time>2014-11-16T10:04:23Z</time>
      </trkpt>
      <trkpt lat="43.58314" lon="2.1381">
        <ele>167.41</ele>
        <time>2014-11-16T10:04:26Z</time>
      </trkpt>
      <trkpt lat="43.58314" lon="2.13793">
        <ele>167.89</ele>
        <time>2014-11-16T10:04:29Z</time>
      </trkpt>
      <trkpt lat="43.58303" lon="2.13784">
        <ele>167.89</ele>
        <time>2014-11-16T10:04:32Z</time>
      </trkpt>
      <trkpt lat="43.58294" lon="2.1378">
        <ele>167.89</ele>
        <time>2014-11-16T10:04:34Z</time>
      </trkpt>
      <trkpt lat="43.58283" lon="2.13776">
        <ele>167.41</ele>
        <time>2014-11-16T10:04:36Z</time>
      </trkpt>
      <trkpt lat="43.58269" lon="2.13772">
        <ele>167.89</ele>
        <time>2014-11-16T10:04:38Z</time>
      </trkpt>
      <trkpt lat="43.58255" lon="2.13768">
        <ele>167.41</ele>
        <time>2014-11-16T10:04:40Z</time>
      </trkpt>
      <trkpt lat="43.58241" lon="2.13763">
        <ele>167.41</ele>
        <time>2014-11-16T10:04:42Z</time>
      </trkpt>
      <trkpt lat="43.58226" lon="2.13759">
        <ele>167.41</ele>
        <time>2014-11-16T10:04:44Z</time>
      </trkpt>
      <trkpt lat="43.58212" lon="2.13757">
        <ele>167.41</ele>
        <time>2014-11-16T10:04:46Z</time>
      </trkpt>
      <trkpt lat="43.582" lon="2.13762">
        <ele>167.41</ele>
        <time>2014-11-16T10:04:48Z</time>
      </trkpt>
      <trkpt lat="43.5819" lon="2.13771">
        <ele>167.41</ele>
        <time>2014-11-16T10:04:50Z</time>
      </trkpt>
      <trkpt lat="43.58183" lon="2.13782">
        <ele>167.41</ele>
        <time>2014-11-16T10:04:52Z</time>
      </trkpt>
      <trkpt lat="43.58176" lon="2.13793">
        <ele>167.41</ele>
        <time>2014-11-16T10:04:54Z</time>
      </trkpt>
      <trkpt lat="43.58169" lon="2.13804">
        <ele>167.89</ele>
        <time>2014-11-16T10:04:56Z</time>
      </trkpt>
      <trkpt lat="43.58164" lon="2.13816">
        <ele>167.89</ele>
        <time>2014-11-16T10:04:58Z</time>
      </trkpt>
      <trkpt lat="43.58159" lon="2.13828">
        <ele>167.89</ele>
        <time>2014-11-16T10:05:00Z</time>
      </trkpt>
      <trkpt lat="43.58154" lon="2.13841">
        <ele>167.41</ele>
        <time>2014-11-16T10:05:02Z</time>
      </trkpt>
      <trkpt lat="43.5815" lon="2.13852">
        <ele>167.89</ele>
        <time>2014-11-16T10:05:04Z</time>
      </trkpt>
      <trkpt lat="43.58144" lon="2.13864">
        <ele>167.89</ele>
        <time>2014-11-16T10:05:06Z</time>
      </trkpt>
      <trkpt lat="43.58139" lon="2.13876">
        <ele>167.89</ele>
        <time>2014-11-16T10:05:08Z</time>
      </trkpt>
      <trkpt lat="43.58134" lon="2.13887">
        <ele>167.41</ele>
        <time>2014-11-16T10:05:10Z</time>
      </trkpt>
      <trkpt lat="43.58129" lon="2.13897">
        <ele>167.41</ele>
        <time>2014-11-16T10:05:12Z</time>
      </trkpt>
      <trkpt lat="43.5812" lon="2.13901">
        <ele>167.41</ele>
        <time>2014-11-16T10:05:14Z</time>
      </trkpt>
      <trkpt lat="43.58111" lon="2.13902">
        <ele>167.41</ele>
        <time>2014-11-16T10:05:16Z</time>
      </trkpt>
      <trkpt lat="43.58102" lon="2.13904">
        <ele>167.89</ele>
        <time>2014-11-16T10:05:18Z</time>
      </trkpt>
      <trkpt lat="43.58095" lon="2.13913">
        <ele>167.41</ele>
        <time>2014-11-16T10:05:20Z</time>
      </trkpt>
      <trkpt lat="43.5809" lon="2.13924">
        <ele>167.89</ele>
        <time>2014-11-16T10:05:22Z</time>
      </trkpt>
      <trkpt lat="43.58083" lon="2.13934">
        <ele>167.41</ele>
        <time>2014-11-16T10:05:24Z</time>
      </trkpt>
      <trkpt lat="43.58073" lon="2.1394">
        <ele>167.41</ele>
        <time>2014-11-16T10:05:26Z</time>
      </trkpt>
      <trkpt lat="43.58063" lon="2.13941">
        <ele>167.41</ele>
        <time>2014-11-16T10:05:28Z</time>
      </trkpt>
      <trkpt lat="43.58053" lon="2.13943">
        <ele>167.41</ele>
        <time>2014-11-16T10:05:30Z</time>
      </trkpt>
      <trkpt lat="43.58043" lon="2.13946">
        <ele>167.41</ele>
        <time>2014-11-16T10:05:32Z</time>
      </trkpt>
      <trkpt lat="43.58034" lon="2.13951">
        <ele>167.41</ele>
        <time>2014-11-16T10:05:34Z</time>
      </trkpt>
      <trkpt lat="43.58027" lon="2.13959">
        <ele>167.41</ele>
        <time>2014-11-16T10:05:36Z</time>
      </trkpt>
      <trkpt lat="43.58021" lon="2.13969">
        <ele>167.89</ele>
        <time>2014-11-16T10:05:38Z</time>
      </trkpt>
      <trkpt lat="43.58014" lon="2.13979">
        <ele>167.89</ele>
        <time>2014-11-16T10:05:40Z</time>
      </trkpt>
      <trkpt lat="43.58009" lon="2.1399">
        <ele>167.89</ele>
        <time>2014-11-16T10:05:42Z</time>
      </trkpt>
      <trkpt lat="43.58003" lon="2.14001">
        <ele>167.41</ele>
        <time>2014-11-16T10:05:44Z</time>
      </trkpt>
      <trkpt lat="43.57997" lon="2.1401">
        <ele>167.41</ele>
        <time>2014-11-16T10:05:46Z</time>
      </trkpt>
      <trkpt lat="43.5799" lon="2.14018">
        <ele>167.41</ele>
        <time>2014-11-16T10:05:48Z</time>
      </trkpt>
      <trkpt lat="43.57981" lon="2.1402">
        <ele>167.41</ele>
        <time>2014-11-16T10:05:50Z</time>
      </trkpt>
      <trkpt lat="43.57971" lon="2.14017">
        <ele>167.41</ele>
        <time>2014-11-16T10:05:52Z</time>
      </trkpt>
      <trkpt lat="43.57962" lon="2.14013">
        <ele>167.41</ele>
        <time>2014-11-16T10:05:54Z</time>
      </trkpt>
      <trkpt lat="43.57952" lon="2.14014">
        <ele>167.41</ele>
        <time>2014-11-16T10:05:56Z</time>
      </trkpt>
      <trkpt lat="43.57945" lon="2.14028">
        <ele>167.89</ele>
        <time>2014-11-16T10:05:59Z</time>
      </trkpt>
      <trkpt lat="43.57942" lon="2.1404">
        <ele>167.89</ele>
        <time>2014-11-16T10:06:01Z</time>
      </trkpt>
      <trkpt lat="43.57938" lon="2.14053">
        <ele>167.89</ele>
        <time>2014-11-16T10:06:03Z</time>
      </trkpt>
      <trkpt lat="43.57933" lon="2.14066">
        <ele>167.89</ele>
        <time>2014-11-16T10:06:05Z</time>
      </trkpt>
      <trkpt lat="43.57929" lon="2.14079">
        <ele>167.89</ele>
        <time>2014-11-16T10:06:07Z</time>
      </trkpt>
      <trkpt lat="43.57924" lon="2.14091">
        <ele>169.33</ele>
        <time>2014-11-16T10:06:09Z</time>
      </trkpt>
      <trkpt lat="43.5792" lon="2.14103">
        <ele>167.89</ele>
        <time>2014-11-16T10:06:11Z</time>
      </trkpt>
      <trkpt lat="43.57913" lon="2.1412">
        <ele>168.37</ele>
        <time>2014-11-16T10:06:14Z</time>
      </trkpt>
      <trkpt lat="43.57905" lon="2.14125">
        <ele>167.89</ele>
        <time>2014-11-16T10:06:16Z</time>
      </trkpt>
      <trkpt lat="43.57896" lon="2.14121">
        <ele>167.89</ele>
        <time>2014-11-16T10:06:18Z</time>
      </trkpt>
      <trkpt lat="43.57891" lon="2.14111">
        <ele>168.37</ele>
        <time>2014-11-16T10:06:20Z</time>
      </trkpt>
      <trkpt lat="43.57891" lon="2.14097">
        <ele>167.89</ele>
        <time>2014-11-16T10:06:22Z</time>
      </trkpt>
      <trkpt lat="43.57893" lon="2.14082">
        <ele>167.89</ele>
        <time>2014-11-16T10:06:24Z</time>
      </trkpt>
      <trkpt lat="43.57895" lon="2.14068">
        <ele>167.89</ele>
        <time>2014-11-16T10:06:26Z</time>
      </trkpt>
      <trkpt lat="43.57896" lon="2.14054">
        <ele>167.89</ele>
        <time>2014-11-16T10:06:28Z</time>
      </trkpt>
      <trkpt lat="43.57898" lon="2.1404">
        <ele>167.89</ele>
        <time>2014-11-16T10:06:30Z</time>
      </trkpt>
      <trkpt lat="43.57899" lon="2.14026">
        <ele>167.89</ele>
        <time>2014-11-16T10:06:32Z</time>
      </trkpt>
      <trkpt lat="43.57901" lon="2.14012">
        <ele>167.89</ele>
        <time>2014-11-16T10:06:34Z</time>
      </trkpt>
      <trkpt lat="43.57902" lon="2.13998">
        <ele>167.89</ele>
        <time>2014-11-16T10:06:36Z</time>
      </trkpt>
      <trkpt lat="43.57904" lon="2.13983">
        <ele>167.41</ele>
        <time>2014-11-16T10:06:38Z</time>
      </trkpt>
      <trkpt lat="43.57905" lon="2.13969">
        <ele>167.41</ele>
        <time>2014-11-16T10:06:40Z</time>
      </trkpt>
      <trkpt lat="43.57906" lon="2.13955">
        <ele>167.89</ele>
        <time>2014-11-16T10:06:42Z</time>
      </trkpt>
      <trkpt lat="43.57908" lon="2.13941">
        <ele>167.41</ele>
        <time>2014-11-16T10:06:44Z</time>
      </trkpt>
      <trkpt lat="43.57908" lon="2.13926">
        <ele>167.41</ele>
        <time>2014-11-16T10:06:46Z</time>
      </trkpt>
      <trkpt lat="43.57909" lon="2.13912">
        <ele>167.89</ele>
        <time>2014-11-16T10:06:48Z</time>
      </trkpt>
      <trkpt lat="43.5791" lon="2.13899">
        <ele>167.89</ele>
        <time>2014-11-16T10:06:50Z</time>
      </trkpt>
      <trkpt lat="43.57911" lon="2.13886">
        <ele>167.41</ele>
        <time>2014-11-16T10:06:52Z</time>
      </trkpt>
      <trkpt lat="43.57912" lon="2.13873">
        <ele>167.89</ele>
        <time>2014-11-16T10:06:54Z</time>
      </trkpt>
      <trkpt lat="43.57914" lon="2.1386">
        <ele>167.89</ele>
        <time>2014-11-16T10:06:56Z</time>
      </trkpt>
      <trkpt lat="43.5792" lon="2.13849">
        <ele>167.89</ele>
        <time>2014-11-16T10:06:58Z</time>
      </trkpt>
      <trkpt lat="43.57926" lon="2.13838">
        <ele>167.89</ele>
        <time>2014-11-16T10:07:00Z</time>
      </trkpt>
      <trkpt lat="43.57933" lon="2.13829">
        <ele>167.89</ele>
        <time>2014-11-16T10:07:02Z</time>
      </trkpt>
      <trkpt lat="43.57941" lon="2.13819">
        <ele>167.89</ele>
        <time>2014-11-16T10:07:04Z</time>
      </trkpt>
      <trkpt lat="43.57948" lon="2.13809">
        <ele>167.41</ele>
        <time>2014-11-16T10:07:06Z</time>
      </trkpt>
      <trkpt lat="43.57955" lon="2.138">
        <ele>167.89</ele>
        <time>2014-11-16T10:07:08Z</time>
      </trkpt>
      <trkpt lat="43.57961" lon="2.1379">
        <ele>167.89</ele>
        <time>2014-11-16T10:07:10Z</time>
      </trkpt>
      <trkpt lat="43.57971" lon="2.13777">
        <ele>167.41</ele>
        <time>2014-11-16T10:07:13Z</time>
      </trkpt>
      <trkpt lat="43.57978" lon="2.13768">
        <ele>167.41</ele>
        <time>2014-11-16T10:07:15Z</time>
      </trkpt>
      <trkpt lat="43.57985" lon="2.13761">
        <ele>167.41</ele>
        <time>2014-11-16T10:07:17Z</time>
      </trkpt>
      <trkpt lat="43.57995" lon="2.1376">
        <ele>167.41</ele>
        <time>2014-11-16T10:07:19Z</time>
      </trkpt>
      <trkpt lat="43.58005" lon="2.13765">
        <ele>167.41</ele>
        <time>2014-11-16T10:07:21Z</time>
      </trkpt>
      <trkpt lat="43.58012" lon="2.13772">
        <ele>167.41</ele>
        <time>2014-11-16T10:07:23Z</time>
      </trkpt>
      <trkpt lat="43.58023" lon="2.13784">
        <ele>167.41</ele>
        <time>2014-11-16T10:07:26Z</time>
      </trkpt>
      <trkpt lat="43.58031" lon="2.13791">
        <ele>167.41</ele>
        <time>2014-11-16T10:07:28Z</time>
      </trkpt>
      <trkpt lat="43.58039" lon="2.13795">
        <ele>167.41</ele>
        <time>2014-11-16T10:07:30Z</time>
      </trkpt>
      <trkpt lat="43.58048" lon="2.13789">
        <ele>167.41</ele>
        <time>2014-11-16T10:07:32Z</time>
      </trkpt>
      <trkpt lat="43.58058" lon="2.13777">
        <ele>167.41</ele>
        <time>2014-11-16T10:07:35Z</time>
      </trkpt>
      <trkpt lat="43.58067" lon="2.13773">
        <ele>167.41</ele>
        <time>2014-11-16T10:07:37Z</time>
      </trkpt>
      <trkpt lat="43.58075" lon="2.13779">
        <ele>166.93</ele>
        <time>2014-11-16T10:07:39Z</time>
      </trkpt>
      <trkpt lat="43.5808" lon="2.13789">
        <ele>166.93</ele>
        <time>2014-11-16T10:07:41Z</time>
      </trkpt>
      <trkpt lat="43.58085" lon="2.138">
        <ele>166.93</ele>
        <time>2014-11-16T10:07:43Z</time>
      </trkpt>
      <trkpt lat="43.58091" lon="2.13811">
        <ele>167.41</ele>
        <time>2014-11-16T10:07:45Z</time>
      </trkpt>
      <trkpt lat="43.58096" lon="2.13822">
        <ele>167.41</ele>
        <time>2014-11-16T10:07:47Z</time>
      </trkpt>
      <trkpt lat="43.58101" lon="2.13832">
        <ele>166.93</ele>
        <time>2014-11-16T10:07:49Z</time>
      </trkpt>
      <trkpt lat="43.58107" lon="2.13843">
        <ele>167.41</ele>
        <time>2014-11-16T10:07:51Z</time>
      </trkpt>
      <trkpt lat="43.58112" lon="2.13854">
        <ele>167.41</ele>
        <time>2014-11-16T10:07:53Z</time>
      </trkpt>
      <trkpt lat="43.58115" lon="2.13871">
        <ele>167.41</ele>
        <time>2014-11-16T10:07:56Z</time>
      </trkpt>
      <trkpt lat="43.58119" lon="2.13888">
        <ele>167.41</ele>
        <time>2014-11-16T10:07:59Z</time>
      </trkpt>
      <trkpt lat="43.58123" lon="2.13905">
        <ele>166.93</ele>
        <time>2014-11-16T10:08:02Z</time>
      </trkpt>
      <trkpt lat="43.58118" lon="2.13919">
        <ele>167.41</ele>
        <time>2014-11-16T10:08:05Z</time>
      </trkpt>
      <trkpt lat="43.5811" lon="2.13933">
        <ele>167.41</ele>
        <time>2014-11-16T10:08:08Z</time>
      </trkpt>
      <trkpt lat="43.58103" lon="2.13948">
        <ele>167.41</ele>
        <time>2014-11-16T10:08:11Z</time>
      </trkpt>
      <trkpt lat="43.58095" lon="2.13963">
        <ele>167.41</ele>
        <time>2014-11-16T10:08:14Z</time>
      </trkpt>
      <trkpt lat="43.58086" lon="2.13977">
        <ele>167.41</ele>
        <time>2014-11-16T10:08:17Z</time>
      </trkpt>
      <trkpt lat="43.58078" lon="2.1399">
        <ele>166.93</ele>
        <time>2014-11-16T10:08:20Z</time>
      </trkpt>
      <trkpt lat="43.5807" lon="2.14004">
        <ele>167.41</ele>
        <time>2014-11-16T10:08:23Z</time>
      </trkpt>
      <trkpt lat="43.58061" lon="2.14017">
        <ele>167.41</ele>
        <time>2014-11-16T10:08:26Z</time>
      </trkpt>
      <trkpt lat="43.58053" lon="2.14032">
        <ele>167.41</ele>
        <time>2014-11-16T10:08:29Z</time>
      </trkpt>
      <trkpt lat="43.58049" lon="2.14042">
        <ele>167.41</ele>
        <time>2014-11-16T10:08:31Z</time>
      </trkpt>
      <trkpt lat="43.58042" lon="2.14057">
        <ele>167.41</ele>
        <time>2014-11-16T10:08:34Z</time>
      </trkpt>
      <trkpt lat="43.58035" lon="2.14071">
        <ele>167.41</ele>
        <time>2014-11-16T10:08:37Z</time>
      </trkpt>
      <trkpt lat="43.58028" lon="2.14087">
        <ele>167.41</ele>
        <time>2014-11-16T10:08:40Z</time>
      </trkpt>
      <trkpt lat="43.58023" lon="2.14097">
        <ele>167.41</ele>
        <time>2014-11-16T10:08:42Z</time>
      </trkpt>
      <trkpt lat="43.58015" lon="2.14112">
        <ele>167.41</ele>
        <time>2014-11-16T10:08:45Z</time>
      </trkpt>
      <trkpt lat="43.58008" lon="2.14127">
        <ele>167.41</ele>
        <time>2014-11-16T10:08:48Z</time>
      </trkpt>
      <trkpt lat="43.58002" lon="2.14141">
        <ele>167.89</ele>
        <time>2014-11-16T10:08:51Z</time>
      </trkpt>
      <trkpt lat="43.57997" lon="2.14154">
        <ele>167.41</ele>
        <time>2014-11-16T10:08:54Z</time>
      </trkpt>
      <trkpt lat="43.57995" lon="2.14168">
        <ele>167.89</ele>
        <time>2014-11-16T10:08:57Z</time>
      </trkpt>
      <trkpt lat="43.57987" lon="2.14181">
        <ele>167.89</ele>
        <time>2014-11-16T10:09:01Z</time>
      </trkpt>
      <trkpt lat="43.57979" lon="2.1419">
        <ele>167.89</ele>
        <time>2014-11-16T10:09:04Z</time>
      </trkpt>
      <trkpt lat="43.57973" lon="2.14203">
        <ele>167.89</ele>
        <time>2014-11-16T10:09:08Z</time>
      </trkpt>
      <trkpt lat="43.57966" lon="2.14217">
        <ele>167.89</ele>
        <time>2014-11-16T10:09:12Z</time>
      </trkpt>
      <trkpt lat="43.57961" lon="2.1423">
        <ele>167.89</ele>
        <time>2014-11-16T10:09:15Z</time>
      </trkpt>
      <trkpt lat="43.57955" lon="2.14242">
        <ele>167.89</ele>
        <time>2014-11-16T10:09:18Z</time>
      </trkpt>
      <trkpt lat="43.57949" lon="2.14255">
        <ele>167.89</ele>
        <time>2014-11-16T10:09:21Z</time>
      </trkpt>
      <trkpt lat="43.57943" lon="2.14267">
        <ele>167.89</ele>
        <time>2014-11-16T10:09:24Z</time>
      </trkpt>
      <trkpt lat="43.57937" lon="2.1428">
        <ele>167.89</ele>
        <time>2014-11-16T10:09:27Z</time>
      </trkpt>
      <trkpt lat="43.57932" lon="2.14293">
        <ele>167.89</ele>
        <time>2014-11-16T10:09:30Z</time>
      </trkpt>
      <trkpt lat="43.57926" lon="2.14307">
        <ele>167.89</ele>
        <time>2014-11-16T10:09:33Z</time>
      </trkpt>
      <trkpt lat="43.57919" lon="2.14318">
        <ele>167.41</ele>
        <time>2014-11-16T10:09:35Z</time>
      </trkpt>
      <trkpt lat="43.57914" lon="2.14331">
        <ele>167.89</ele>
        <time>2014-11-16T10:09:37Z</time>
      </trkpt>
      <trkpt lat="43.57908" lon="2.14343">
        <ele>167.89</ele>
        <time>2014-11-16T10:09:39Z</time>
      </trkpt>
      <trkpt lat="43.57903" lon="2.14355">
        <ele>167.89</ele>
        <time>2014-11-16T10:09:41Z</time>
      </trkpt>
      <trkpt lat="43.57898" lon="2.14365">
        <ele>167.89</ele>
        <time>2014-11-16T10:09:43Z</time>
      </trkpt>
      <trkpt lat="43.57892" lon="2.14375">
        <ele>167.89</ele>
        <time>2014-11-16T10:09:45Z</time>
      </trkpt>
      <trkpt lat="43.57886" lon="2.1439">
        <ele>167.89</ele>
        <time>2014-11-16T10:09:48Z</time>
      </trkpt>
      <trkpt lat="43.5788" lon="2.14404">
        <ele>167.89</ele>
        <time>2014-11-16T10:09:51Z</time>
      </trkpt>
      <trkpt lat="43.57873" lon="2.14419">
        <ele>167.89</ele>
        <time>2014-11-16T10:09:54Z</time>
      </trkpt>
      <trkpt lat="43.57866" lon="2.14435">
        <ele>167.89</ele>
        <time>2014-11-16T10:09:57Z</time>
      </trkpt>
      <trkpt lat="43.57859" lon="2.14449">
        <ele>167.41</ele>
        <time>2014-11-16T10:10:00Z</time>
      </trkpt>
      <trkpt lat="43.57851" lon="2.14464">
        <ele>167.89</ele>
        <time>2014-11-16T10:10:03Z</time>
      </trkpt>
      <trkpt lat="43.57844" lon="2.14479">
        <ele>167.89</ele>
        <time>2014-11-16T10:10:06Z</time>
      </trkpt>
      <trkpt lat="43.57837" lon="2.14494">
        <ele>167.89</ele>
        <time>2014-11-16T10:10:09Z</time>
      </trkpt>
      <trkpt lat="43.57831" lon="2.14504">
        <ele>167.89</ele>
        <time>2014-11-16T10:10:11Z</time>
      </trkpt>
      <trkpt lat="43.57826" lon="2.14515">
        <ele>167.89</ele>
        <time>2014-11-16T10:10:13Z</time>
      </trkpt>
      <trkpt lat="43.5782" lon="2.14528">
        <ele>167.89</ele>
        <time>2014-11-16T10:10:16Z</time>
      </trkpt>
      <trkpt lat="43.57826" lon="2.1454">
        <ele>168.85</ele>
        <time>2014-11-16T10:10:21Z</time>
      </trkpt>
      <trkpt lat="43.57834" lon="2.14546">
        <ele>168.85</ele>
        <time>2014-11-16T10:10:24Z</time>
      </trkpt>
      <trkpt lat="43.57844" lon="2.14552">
        <ele>168.85</ele>
        <time>2014-11-16T10:10:27Z</time>
      </trkpt>
      <trkpt lat="43.57856" lon="2.14558">
        <ele>168.85</ele>
        <time>2014-11-16T10:10:30Z</time>
      </trkpt>
      <trkpt lat="43.57868" lon="2.14566">
        <ele>168.85</ele>
        <time>2014-11-16T10:10:33Z</time>
      </trkpt>
      <trkpt lat="43.57879" lon="2.14577">
        <ele>168.85</ele>
        <time>2014-11-16T10:10:36Z</time>
      </trkpt>
      <trkpt lat="43.57893" lon="2.14577">
        <ele>168.85</ele>
        <time>2014-11-16T10:10:39Z</time>
      </trkpt>
      <trkpt lat="43.57901" lon="2.1457">
        <ele>168.85</ele>
        <time>2014-11-16T10:10:41Z</time>
      </trkpt>
      <trkpt lat="43.57908" lon="2.1456">
        <ele>168.85</ele>
        <time>2014-11-16T10:10:43Z</time>
      </trkpt>
      <trkpt lat="43.57915" lon="2.14549">
        <ele>168.37</ele>
        <time>2014-11-16T10:10:45Z</time>
      </trkpt>
      <trkpt lat="43.57925" lon="2.14536">
        <ele>168.37</ele>
        <time>2014-11-16T10:10:48Z</time>
      </trkpt>
      <trkpt lat="43.57934" lon="2.14525">
        <ele>168.37</ele>
        <time>2014-11-16T10:10:51Z</time>
      </trkpt>
      <trkpt lat="43.57941" lon="2.14512">
        <ele>168.85</ele>
        <time>2014-11-16T10:10:54Z</time>
      </trkpt>
      <trkpt lat="43.57949" lon="2.14499">
        <ele>168.37</ele>
        <time>2014-11-16T10:10:57Z</time>
      </trkpt>
      <trkpt lat="43.57957" lon="2.14485">
        <ele>168.85</ele>
        <time>2014-11-16T10:11:00Z</time>
      </trkpt>
      <trkpt lat="43.57965" lon="2.14471">
        <ele>168.37</ele>
        <time>2014-11-16T10:11:03Z</time>
      </trkpt>
      <trkpt lat="43.57971" lon="2.14461">
        <ele>168.37</ele>
        <time>2014-11-16T10:11:05Z</time>
      </trkpt>
      <trkpt lat="43.57977" lon="2.1445">
        <ele>168.37</ele>
        <time>2014-11-16T10:11:07Z</time>
      </trkpt>
      <trkpt lat="43.57982" lon="2.14439">
        <ele>168.37</ele>
        <time>2014-11-16T10:11:09Z</time>
      </trkpt>
      <trkpt lat="43.57988" lon="2.14428">
        <ele>168.37</ele>
        <time>2014-11-16T10:11:11Z</time>
      </trkpt>
      <trkpt lat="43.57993" lon="2.14417">
        <ele>168.37</ele>
        <time>2014-11-16T10:11:13Z</time>
      </trkpt>
      <trkpt lat="43.57999" lon="2.14406">
        <ele>168.85</ele>
        <time>2014-11-16T10:11:15Z</time>
      </trkpt>
      <trkpt lat="43.58005" lon="2.14396">
        <ele>168.37</ele>
        <time>2014-11-16T10:11:17Z</time>
      </trkpt>
      <trkpt lat="43.58011" lon="2.14386">
        <ele>168.85</ele>
        <time>2014-11-16T10:11:19Z</time>
      </trkpt>
      <trkpt lat="43.58019" lon="2.14371">
        <ele>168.85</ele>
        <time>2014-11-16T10:11:22Z</time>
      </trkpt>
      <trkpt lat="43.58025" lon="2.14357">
        <ele>168.85</ele>
        <time>2014-11-16T10:11:25Z</time>
      </trkpt>
      <trkpt lat="43.58029" lon="2.14345">
        <ele>168.85</ele>
        <time>2014-11-16T10:11:28Z</time>
      </trkpt>
      <trkpt lat="43.58033" lon="2.14333">
        <ele>168.85</ele>
        <time>2014-11-16T10:11:31Z</time>
      </trkpt>
      <trkpt lat="43.58043" lon="2.14329">
        <ele>168.85</ele>
        <time>2014-11-16T10:11:35Z</time>
      </trkpt>
      <trkpt lat="43.58048" lon="2.14332">
        <ele>167.41</ele>
        <time>2014-11-16T10:14:26Z</time>
      </trkpt>
      <trkpt lat="43.58057" lon="2.14335">
        <ele>167.89</ele>
        <time>2014-11-16T10:14:31Z</time>
      </trkpt>
      <trkpt lat="43.58065" lon="2.14343">
        <ele>167.89</ele>
        <time>2014-11-16T10:14:36Z</time>
      </trkpt>
      <trkpt lat="43.58072" lon="2.14352">
        <ele>167.89</ele>
        <time>2014-11-16T10:14:41Z</time>
      </trkpt>
      <trkpt lat="43.58081" lon="2.14358">
        <ele>168.37</ele>
        <time>2014-11-16T10:14:46Z</time>
      </trkpt>
      <trkpt lat="43.5809" lon="2.14365">
        <ele>168.37</ele>
        <time>2014-11-16T10:14:53Z</time>
      </trkpt>
      <trkpt lat="43.58095" lon="2.14368">
        <ele>168.37</ele>
        <time>2014-11-16T10:15:22Z</time>
      </trkpt>
      <trkpt lat="43.58108" lon="2.14361">
        <ele>167.89</ele>
        <time>2014-11-16T10:15:26Z</time>
      </trkpt>
      <trkpt lat="43.58116" lon="2.14353">
        <ele>168.37</ele>
        <time>2014-11-16T10:15:28Z</time>
      </trkpt>
      <trkpt lat="43.58121" lon="2.14343">
        <ele>167.89</ele>
        <time>2014-11-16T10:15:30Z</time>
      </trkpt>
      <trkpt lat="43.58127" lon="2.14333">
        <ele>167.89</ele>
        <time>2014-11-16T10:15:32Z</time>
      </trkpt>
      <trkpt lat="43.58133" lon="2.14319">
        <ele>168.37</ele>
        <time>2014-11-16T10:15:38Z</time>
      </trkpt>
      <trkpt lat="43.58141" lon="2.14311">
        <ele>167.89</ele>
        <time>2014-11-16T10:15:40Z</time>
      </trkpt>
      <trkpt lat="43.5814" lon="2.14325">
        <ele>167.89</ele>
        <time>2014-11-16T10:15:43Z</time>
      </trkpt>
      <trkpt lat="43.58135" lon="2.14338">
        <ele>167.89</ele>
        <time>2014-11-16T10:15:46Z</time>
      </trkpt>
      <trkpt lat="43.5814" lon="2.14342">
        <ele>167.89</ele>
        <time>2014-11-16T10:15:48Z</time>
      </trkpt>
      <trkpt lat="43.58145" lon="2.1433">
        <ele>167.89</ele>
        <time>2014-11-16T10:15:50Z</time>
      </trkpt>
      <trkpt lat="43.58152" lon="2.14322">
        <ele>167.89</ele>
        <time>2014-11-16T10:15:52Z</time>
      </trkpt>
      <trkpt lat="43.58152" lon="2.14333">
        <ele>167.89</ele>
        <time>2014-11-16T10:15:54Z</time>
      </trkpt>
      <trkpt lat="43.58145" lon="2.14348">
        <ele>167.89</ele>
        <time>2014-11-16T10:15:57Z</time>
      </trkpt>
      <trkpt lat="43.5814" lon="2.14359">
        <ele>167.89</ele>
        <time>2014-11-16T10:15:59Z</time>
      </trkpt>
      <trkpt lat="43.58134" lon="2.14372">
        <ele>168.37</ele>
        <time>2014-11-16T10:16:02Z</time>
      </trkpt>
      <trkpt lat="43.58129" lon="2.14383">
        <ele>168.37</ele>
        <time>2014-11-16T10:16:05Z</time>
      </trkpt>
      <trkpt lat="43.58123" lon="2.14377">
        <ele>168.37</ele>
        <time>2014-11-16T10:16:08Z</time>
      </trkpt>
      <trkpt lat="43.58129" lon="2.14363">
        <ele>168.37</ele>
        <time>2014-11-16T10:16:11Z</time>
      </trkpt>
      <trkpt lat="43.58134" lon="2.14348">
        <ele>167.89</ele>
        <time>2014-11-16T10:16:15Z</time>
      </trkpt>
      <trkpt lat="43.58139" lon="2.14332">
        <ele>167.89</ele>
        <time>2014-11-16T10:16:19Z</time>
      </trkpt>
      <trkpt lat="43.58146" lon="2.1432">
        <ele>167.89</ele>
        <time>2014-11-16T10:16:23Z</time>
      </trkpt>
      <trkpt lat="43.58152" lon="2.1431">
        <ele>167.41</ele>
        <time>2014-11-16T10:16:26Z</time>
      </trkpt>
      <trkpt lat="43.5816" lon="2.14301">
        <ele>167.41</ele>
        <time>2014-11-16T10:16:30Z</time>
      </trkpt>
      <trkpt lat="43.58169" lon="2.14302">
        <ele>166.93</ele>
        <time>2014-11-16T10:16:54Z</time>
      </trkpt>
      <trkpt lat="43.58181" lon="2.14302">
        <ele>166.45</ele>
        <time>2014-11-16T10:16:58Z</time>
      </trkpt>
      <trkpt lat="43.5819" lon="2.14303">
        <ele>166.45</ele>
        <time>2014-11-16T10:17:01Z</time>
      </trkpt>
      <trkpt lat="43.582" lon="2.14311">
        <ele>166.45</ele>
        <time>2014-11-16T10:17:04Z</time>
      </trkpt>
      <trkpt lat="43.58207" lon="2.14322">
        <ele>165.96</ele>
        <time>2014-11-16T10:17:07Z</time>
      </trkpt>
      <trkpt lat="43.58214" lon="2.14333">
        <ele>166.45</ele>
        <time>2014-11-16T10:17:10Z</time>
      </trkpt>
      <trkpt lat="43.58222" lon="2.14344">
        <ele>166.45</ele>
        <time>2014-11-16T10:17:13Z</time>
      </trkpt>
      <trkpt lat="43.5823" lon="2.14355">
        <ele>166.45</ele>
        <time>2014-11-16T10:17:16Z</time>
      </trkpt>
      <trkpt lat="43.58238" lon="2.14366">
        <ele>166.45</ele>
        <time>2014-11-16T10:17:20Z</time>
      </trkpt>
      <trkpt lat="43.58239" lon="2.14378">
        <ele>166.93</ele>
        <time>2014-11-16T10:17:25Z</time>
      </trkpt>
      <trkpt lat="43.58229" lon="2.14385">
        <ele>166.93</ele>
        <time>2014-11-16T10:17:29Z</time>
      </trkpt>
      <trkpt lat="43.58221" lon="2.14393">
        <ele>166.45</ele>
        <time>2014-11-16T10:17:32Z</time>
      </trkpt>
      <trkpt lat="43.58216" lon="2.14405">
        <ele>166.45</ele>
        <time>2014-11-16T10:17:35Z</time>
      </trkpt>
      <trkpt lat="43.58212" lon="2.14416">
        <ele>166.45</ele>
        <time>2014-11-16T10:17:38Z</time>
      </trkpt>
      <trkpt lat="43.5821" lon="2.14431">
        <ele>166.45</ele>
        <time>2014-11-16T10:17:41Z</time>
      </trkpt>
      <trkpt lat="43.58206" lon="2.14446">
        <ele>166.93</ele>
        <time>2014-11-16T10:17:44Z</time>
      </trkpt>
      <trkpt lat="43.582" lon="2.14461">
        <ele>166.93</ele>
        <time>2014-11-16T10:17:47Z</time>
      </trkpt>
      <trkpt lat="43.58191" lon="2.14466">
        <ele>166.93</ele>
        <time>2014-11-16T10:17:50Z</time>
      </trkpt>
      <trkpt lat="43.58181" lon="2.14468">
        <ele>166.93</ele>
        <time>2014-11-16T10:17:53Z</time>
      </trkpt>
      <trkpt lat="43.58171" lon="2.14479">
        <ele>166.93</ele>
        <time>2014-11-16T10:17:56Z</time>
      </trkpt>
      <trkpt lat="43.5816" lon="2.14489">
        <ele>166.93</ele>
        <time>2014-11-16T10:17:59Z</time>
      </trkpt>
      <trkpt lat="43.58152" lon="2.14496">
        <ele>166.93</ele>
        <time>2014-11-16T10:18:01Z</time>
      </trkpt>
      <trkpt lat="43.58143" lon="2.14503">
        <ele>166.93</ele>
        <time>2014-11-16T10:18:03Z</time>
      </trkpt>
      <trkpt lat="43.58136" lon="2.1451">
        <ele>166.93</ele>
        <time>2014-11-16T10:18:05Z</time>
      </trkpt>
      <trkpt lat="43.58128" lon="2.14518">
        <ele>166.93</ele>
        <time>2014-11-16T10:18:07Z</time>
      </trkpt>
      <trkpt lat="43.58121" lon="2.14527">
        <ele>166.93</ele>
        <time>2014-11-16T10:18:09Z</time>
      </trkpt>
      <trkpt lat="43.58114" lon="2.14537">
        <ele>166.93</ele>
        <time>2014-11-16T10:18:11Z</time>
      </trkpt>
      <trkpt lat="43.58107" lon="2.14546">
        <ele>167.41</ele>
        <time>2014-11-16T10:18:13Z</time>
      </trkpt>
      <trkpt lat="43.58101" lon="2.14555">
        <ele>167.41</ele>
        <time>2014-11-16T10:18:15Z</time>
      </trkpt>
      <trkpt lat="43.58095" lon="2.14566">
        <ele>167.41</ele>
        <time>2014-11-16T10:18:17Z</time>
      </trkpt>
      <trkpt lat="43.5809" lon="2.14577">
        <ele>167.41</ele>
        <time>2014-11-16T10:18:19Z</time>
      </trkpt>
      <trkpt lat="43.58085" lon="2.14588">
        <ele>167.41</ele>
        <time>2014-11-16T10:18:21Z</time>
      </trkpt>
      <trkpt lat="43.58079" lon="2.14599">
        <ele>167.41</ele>
        <time>2014-11-16T10:18:23Z</time>
      </trkpt>
      <trkpt lat="43.58072" lon="2.14609">
        <ele>167.41</ele>
        <time>2014-11-16T10:18:25Z</time>
      </trkpt>
      <trkpt lat="43.58065" lon="2.14619">
        <ele>167.41</ele>
        <time>2014-11-16T10:18:27Z</time>
      </trkpt>
      <trkpt lat="43.58059" lon="2.1463">
        <ele>167.41</ele>
        <time>2014-11-16T10:18:29Z</time>
      </trkpt>
      <trkpt lat="43.58052" lon="2.1464">
        <ele>167.41</ele>
        <time>2014-11-16T10:18:31Z</time>
      </trkpt>
      <trkpt lat="43.58045" lon="2.14649">
        <ele>167.41</ele>
        <time>2014-11-16T10:18:33Z</time>
      </trkpt>
      <trkpt lat="43.58039" lon="2.1466">
        <ele>167.89</ele>
        <time>2014-11-16T10:18:35Z</time>
      </trkpt>
      <trkpt lat="43.58032" lon="2.14671">
        <ele>167.89</ele>
        <time>2014-11-16T10:18:37Z</time>
      </trkpt>
      <trkpt lat="43.58025" lon="2.14681">
        <ele>167.89</ele>
        <time>2014-11-16T10:18:39Z</time>
      </trkpt>
      <trkpt lat="43.58018" lon="2.14692">
        <ele>167.41</ele>
        <time>2014-11-16T10:18:41Z</time>
      </trkpt>
      <trkpt lat="43.58011" lon="2.14701">
        <ele>167.89</ele>
        <time>2014-11-16T10:18:43Z</time>
      </trkpt>
      <trkpt lat="43.58004" lon="2.14711">
        <ele>167.89</ele>
        <time>2014-11-16T10:18:45Z</time>
      </trkpt>
      <trkpt lat="43.57996" lon="2.14721">
        <ele>167.89</ele>
        <time>2014-11-16T10:18:47Z</time>
      </trkpt>
      <trkpt lat="43.57988" lon="2.1473">
        <ele>167.89</ele>
        <time>2014-11-16T10:18:49Z</time>
      </trkpt>
      <trkpt lat="43.5798" lon="2.14738">
        <ele>167.41</ele>
        <time>2014-11-16T10:18:51Z</time>
      </trkpt>
      <trkpt lat="43.57972" lon="2.14746">
        <ele>167.41</ele>
        <time>2014-11-16T10:18:53Z</time>
      </trkpt>
      <trkpt lat="43.57963" lon="2.14751">
        <ele>167.89</ele>
        <time>2014-11-16T10:18:55Z</time>
      </trkpt>
      <trkpt lat="43.57952" lon="2.14759">
        <ele>167.89</ele>
        <time>2014-11-16T10:18:58Z</time>
      </trkpt>
      <trkpt lat="43.57944" lon="2.14768">
        <ele>167.89</ele>
        <time>2014-11-16T10:19:01Z</time>
      </trkpt>
      <trkpt lat="43.57936" lon="2.14781">
        <ele>167.89</ele>
        <time>2014-11-16T10:19:05Z</time>
      </trkpt>
      <trkpt lat="43.57928" lon="2.1479">
        <ele>168.37</ele>
        <time>2014-11-16T10:19:08Z</time>
      </trkpt>
      <trkpt lat="43.57926" lon="2.14806">
        <ele>168.37</ele>
        <time>2014-11-16T10:19:11Z</time>
      </trkpt>
      <trkpt lat="43.57928" lon="2.1482">
        <ele>168.85</ele>
        <time>2014-11-16T10:19:13Z</time>
      </trkpt>
      <trkpt lat="43.57934" lon="2.14833">
        <ele>168.85</ele>
        <time>2014-11-16T10:19:15Z</time>
      </trkpt>
      <trkpt lat="43.57941" lon="2.14843">
        <ele>169.33</ele>
        <time>2014-11-16T10:19:17Z</time>
      </trkpt>
      <trkpt lat="43.57948" lon="2.14854">
        <ele>169.33</ele>
        <time>2014-11-16T10:19:19Z</time>
      </trkpt>
      <trkpt lat="43.57955" lon="2.14864">
        <ele>169.81</ele>
        <time>2014-11-16T10:19:21Z</time>
      </trkpt>
      <trkpt lat="43.57964" lon="2.14877">
        <ele>170.29</ele>
        <time>2014-11-16T10:19:24Z</time>
      </trkpt>
      <trkpt lat="43.57971" lon="2.1489">
        <ele>170.29</ele>
        <time>2014-11-16T10:19:27Z</time>
      </trkpt>
      <trkpt lat="43.57967" lon="2.14904">
        <ele>170.77</ele>
        <time>2014-11-16T10:19:30Z</time>
      </trkpt>
      <trkpt lat="43.57957" lon="2.14909">
        <ele>171.25</ele>
        <time>2014-11-16T10:19:33Z</time>
      </trkpt>
      <trkpt lat="43.57948" lon="2.14914">
        <ele>171.25</ele>
        <time>2014-11-16T10:19:36Z</time>
      </trkpt>
      <trkpt lat="43.57939" lon="2.14919">
        <ele>171.73</ele>
        <time>2014-11-16T10:19:39Z</time>
      </trkpt>
      <trkpt lat="43.57928" lon="2.14924">
        <ele>172.21</ele>
        <time>2014-11-16T10:19:43Z</time>
      </trkpt>
      <trkpt lat="43.57921" lon="2.14935">
        <ele>172.69</ele>
        <time>2014-11-16T10:19:47Z</time>
      </trkpt>
      <trkpt lat="43.57925" lon="2.14949">
        <ele>173.17</ele>
        <time>2014-11-16T10:19:51Z</time>
      </trkpt>
      <trkpt lat="43.57929" lon="2.14961">
        <ele>173.17</ele>
        <time>2014-11-16T10:19:54Z</time>
      </trkpt>
      <trkpt lat="43.57933" lon="2.14973">
        <ele>173.66</ele>
        <time>2014-11-16T10:19:57Z</time>
      </trkpt>
      <trkpt lat="43.57938" lon="2.14987">
        <ele>173.66</ele>
        <time>2014-11-16T10:20:00Z</time>
      </trkpt>
      <trkpt lat="43.57943" lon="2.15002">
        <ele>173.66</ele>
        <time>2014-11-16T10:20:03Z</time>
      </trkpt>
      <trkpt lat="43.57949" lon="2.15016">
        <ele>173.66</ele>
        <time>2014-11-16T10:20:06Z</time>
      </trkpt>
      <trkpt lat="43.57955" lon="2.1503">
        <ele>174.14</ele>
        <time>2014-11-16T10:20:09Z</time>
      </trkpt>
      <trkpt lat="43.57959" lon="2.15045">
        <ele>173.66</ele>
        <time>2014-11-16T10:20:12Z</time>
      </trkpt>
      <trkpt lat="43.57964" lon="2.1506">
        <ele>175.58</ele>
        <time>2014-11-16T10:20:15Z</time>
      </trkpt>
      <trkpt lat="43.5797" lon="2.15076">
        <ele>174.14</ele>
        <time>2014-11-16T10:20:18Z</time>
      </trkpt>
      <trkpt lat="43.57977" lon="2.15092">
        <ele>173.66</ele>
        <time>2014-11-16T10:20:21Z</time>
      </trkpt>
      <trkpt lat="43.57983" lon="2.15107">
        <ele>173.66</ele>
        <time>2014-11-16T10:20:24Z</time>
      </trkpt>
      <trkpt lat="43.5799" lon="2.15122">
        <ele>173.66</ele>
        <time>2014-11-16T10:20:27Z</time>
      </trkpt>
      <trkpt lat="43.57998" lon="2.15136">
        <ele>173.66</ele>
        <time>2014-11-16T10:20:30Z</time>
      </trkpt>
      <trkpt lat="43.58005" lon="2.1515">
        <ele>173.66</ele>
        <time>2014-11-16T10:20:33Z</time>
      </trkpt>
      <trkpt lat="43.58012" lon="2.15164">
        <ele>173.66</ele>
        <time>2014-11-16T10:20:36Z</time>
      </trkpt>
      <trkpt lat="43.58018" lon="2.15179">
        <ele>173.66</ele>
        <time>2014-11-16T10:20:39Z</time>
      </trkpt>
      <trkpt lat="43.58026" lon="2.15193">
        <ele>174.14</ele>
        <time>2014-11-16T10:20:42Z</time>
      </trkpt>
      <trkpt lat="43.58033" lon="2.15207">
        <ele>173.66</ele>
        <time>2014-11-16T10:20:45Z</time>
      </trkpt>
      <trkpt lat="43.5804" lon="2.15223">
        <ele>174.14</ele>
        <time>2014-11-16T10:20:48Z</time>
      </trkpt>
      <trkpt lat="43.58046" lon="2.15238">
        <ele>174.14</ele>
        <time>2014-11-16T10:20:51Z</time>
      </trkpt>
      <trkpt lat="43.58052" lon="2.15253">
        <ele>174.14</ele>
        <time>2014-11-16T10:20:54Z</time>
      </trkpt>
      <trkpt lat="43.58057" lon="2.15268">
        <ele>174.14</ele>
        <time>2014-11-16T10:20:57Z</time>
      </trkpt>
      <trkpt lat="43.58062" lon="2.15283">
        <ele>174.62</ele>
        <time>2014-11-16T10:21:00Z</time>
      </trkpt>
      <trkpt lat="43.58067" lon="2.15298">
        <ele>175.1</ele>
        <time>2014-11-16T10:21:03Z</time>
      </trkpt>
      <trkpt lat="43.58071" lon="2.15314">
        <ele>175.58</ele>
        <time>2014-11-16T10:21:06Z</time>
      </trkpt>
      <trkpt lat="43.58074" lon="2.1533">
        <ele>175.58</ele>
        <time>2014-11-16T10:21:09Z</time>
      </trkpt>
      <trkpt lat="43.58078" lon="2.15345">
        <ele>176.54</ele>
        <time>2014-11-16T10:21:12Z</time>
      </trkpt>
      <trkpt lat="43.5808" lon="2.15358">
        <ele>177.02</ele>
        <time>2014-11-16T10:21:15Z</time>
      </trkpt>
      <trkpt lat="43.58083" lon="2.15373">
        <ele>178.94</ele>
        <time>2014-11-16T10:21:19Z</time>
      </trkpt>
      <trkpt lat="43.58085" lon="2.15387">
        <ele>179.9</ele>
        <time>2014-11-16T10:21:23Z</time>
      </trkpt>
      <trkpt lat="43.58085" lon="2.15402">
        <ele>181.83</ele>
        <time>2014-11-16T10:21:28Z</time>
      </trkpt>
      <trkpt lat="43.58076" lon="2.15409">
        <ele>181.83</ele>
        <time>2014-11-16T10:21:32Z</time>
      </trkpt>
      <trkpt lat="43.58067" lon="2.15415">
        <ele>181.35</ele>
        <time>2014-11-16T10:21:35Z</time>
      </trkpt>
      <trkpt lat="43.58056" lon="2.1542">
        <ele>182.31</ele>
        <time>2014-11-16T10:21:39Z</time>
      </trkpt>
      <trkpt lat="43.58045" lon="2.1542">
        <ele>181.83</ele>
        <time>2014-11-16T10:21:42Z</time>
      </trkpt>
      <trkpt lat="43.58032" lon="2.15423">
        <ele>181.35</ele>
        <time>2014-11-16T10:21:45Z</time>
      </trkpt>
      <trkpt lat="43.5802" lon="2.15423">
        <ele>181.83</ele>
        <time>2014-11-16T10:21:48Z</time>
      </trkpt>
      <trkpt lat="43.58008" lon="2.15425">
        <ele>181.35</ele>
        <time>2014-11-16T10:21:51Z</time>
      </trkpt>
      <trkpt lat="43.57996" lon="2.15426">
        <ele>181.83</ele>
        <time>2014-11-16T10:21:54Z</time>
      </trkpt>
      <trkpt lat="43.57985" lon="2.15429">
        <ele>182.31</ele>
        <time>2014-11-16T10:21:57Z</time>
      </trkpt>
      <trkpt lat="43.57973" lon="2.15431">
        <ele>182.31</ele>
        <time>2014-11-16T10:22:00Z</time>
      </trkpt>
      <trkpt lat="43.57962" lon="2.15434">
        <ele>182.31</ele>
        <time>2014-11-16T10:22:03Z</time>
      </trkpt>
      <trkpt lat="43.57951" lon="2.1544">
        <ele>182.79</ele>
        <time>2014-11-16T10:22:06Z</time>
      </trkpt>
      <trkpt lat="43.5794" lon="2.15447">
        <ele>182.79</ele>
        <time>2014-11-16T10:22:09Z</time>
      </trkpt>
      <trkpt lat="43.57929" lon="2.15453">
        <ele>182.79</ele>
        <time>2014-11-16T10:22:12Z</time>
      </trkpt>
      <trkpt lat="43.57916" lon="2.1546">
        <ele>182.79</ele>
        <time>2014-11-16T10:22:15Z</time>
      </trkpt>
      <trkpt lat="43.57905" lon="2.15465">
        <ele>182.31</ele>
        <time>2014-11-16T10:22:18Z</time>
      </trkpt>
      <trkpt lat="43.57895" lon="2.15472">
        <ele>182.31</ele>
        <time>2014-11-16T10:22:21Z</time>
      </trkpt>
      <trkpt lat="43.57883" lon="2.1548">
        <ele>183.27</ele>
        <time>2014-11-16T10:22:25Z</time>
      </trkpt>
      <trkpt lat="43.57873" lon="2.15488">
        <ele>183.75</ele>
        <time>2014-11-16T10:22:28Z</time>
      </trkpt>
      <trkpt lat="43.57862" lon="2.15496">
        <ele>184.23</ele>
        <time>2014-11-16T10:22:31Z</time>
      </trkpt>
      <trkpt lat="43.5785" lon="2.15503">
        <ele>184.23</ele>
        <time>2014-11-16T10:22:34Z</time>
      </trkpt>
      <trkpt lat="43.57838" lon="2.15506">
        <ele>184.23</ele>
        <time>2014-11-16T10:22:37Z</time>
      </trkpt>
      <trkpt lat="43.57826" lon="2.15508">
        <ele>184.23</ele>
        <time>2014-11-16T10:22:40Z</time>
      </trkpt>
      <trkpt lat="43.57812" lon="2.15511">
        <ele>183.75</ele>
        <time>2014-11-16T10:22:43Z</time>
      </trkpt>
      <trkpt lat="43.57798" lon="2.15512">
        <ele>183.27</ele>
        <time>2014-11-16T10:22:46Z</time>
      </trkpt>
      <trkpt lat="43.57785" lon="2.15513">
        <ele>183.27</ele>
        <time>2014-11-16T10:22:49Z</time>
      </trkpt>
      <trkpt lat="43.57775" lon="2.15516">
        <ele>182.79</ele>
        <time>2014-11-16T10:22:51Z</time>
      </trkpt>
      <trkpt lat="43.57765" lon="2.15519">
        <ele>182.79</ele>
        <time>2014-11-16T10:22:53Z</time>
      </trkpt>
      <trkpt lat="43.57755" lon="2.15522">
        <ele>182.79</ele>
        <time>2014-11-16T10:22:55Z</time>
      </trkpt>
      <trkpt lat="43.57741" lon="2.15526">
        <ele>182.31</ele>
        <time>2014-11-16T10:22:58Z</time>
      </trkpt>
      <trkpt lat="43.57732" lon="2.15527">
        <ele>182.31</ele>
        <time>2014-11-16T10:23:00Z</time>
      </trkpt>
      <trkpt lat="43.57719" lon="2.15527">
        <ele>182.31</ele>
        <time>2014-11-16T10:23:03Z</time>
      </trkpt>
      <trkpt lat="43.57709" lon="2.15527">
        <ele>182.31</ele>
        <time>2014-11-16T10:23:06Z</time>
      </trkpt>
      <trkpt lat="43.57699" lon="2.15527">
        <ele>182.31</ele>
        <time>2014-11-16T10:23:11Z</time>
      </trkpt>
      <trkpt lat="43.57698" lon="2.15526">
        <ele>183.75</ele>
        <time>2014-11-16T10:24:17Z</time>
      </trkpt>
      <trkpt lat="43.5771" lon="2.15525">
        <ele>182.31</ele>
        <time>2014-11-16T10:24:21Z</time>
      </trkpt>
      <trkpt lat="43.5772" lon="2.15529">
        <ele>182.31</ele>
        <time>2014-11-16T10:24:24Z</time>
      </trkpt>
      <trkpt lat="43.57724" lon="2.1554">
        <ele>184.23</ele>
        <time>2014-11-16T10:24:29Z</time>
      </trkpt>
      <trkpt lat="43.57734" lon="2.15545">
        <ele>186.63</ele>
        <time>2014-11-16T10:24:36Z</time>
      </trkpt>
      <trkpt lat="43.57746" lon="2.15551">
        <ele>187.59</ele>
        <time>2014-11-16T10:24:42Z</time>
      </trkpt>
      <trkpt lat="43.57755" lon="2.1556">
        <ele>189.04</ele>
        <time>2014-11-16T10:24:49Z</time>
      </trkpt>
      <trkpt lat="43.57761" lon="2.15572">
        <ele>190.96</ele>
        <time>2014-11-16T10:24:56Z</time>
      </trkpt>
      <trkpt lat="43.57767" lon="2.15587">
        <ele>193.36</ele>
        <time>2014-11-16T10:25:06Z</time>
      </trkpt>
      <trkpt lat="43.57773" lon="2.156">
        <ele>195.28</ele>
        <time>2014-11-16T10:25:32Z</time>
      </trkpt>
      <trkpt lat="43.57783" lon="2.15605">
        <ele>196.73</ele>
        <time>2014-11-16T10:25:47Z</time>
      </trkpt>
      <trkpt lat="43.57787" lon="2.15612">
        <ele>201.05</ele>
        <time>2014-11-16T10:26:12Z</time>
      </trkpt>
      <trkpt lat="43.57789" lon="2.15618">
        <ele>203.94</ele>
        <time>2014-11-16T10:26:33Z</time>
      </trkpt>
      <trkpt lat="43.57792" lon="2.1563">
        <ele>206.82</ele>
        <time>2014-11-16T10:26:50Z</time>
      </trkpt>
      <trkpt lat="43.57796" lon="2.15649">
        <ele>208.26</ele>
        <time>2014-11-16T10:27:05Z</time>
      </trkpt>
      <trkpt lat="43.57797" lon="2.15666">
        <ele>209.7</ele>
        <time>2014-11-16T10:27:16Z</time>
      </trkpt>
      <trkpt lat="43.57793" lon="2.15679">
        <ele>210.67</ele>
        <time>2014-11-16T10:27:24Z</time>
      </trkpt>
      <trkpt lat="43.57794" lon="2.15697">
        <ele>211.15</ele>
        <time>2014-11-16T10:27:32Z</time>
      </trkpt>
      <trkpt lat="43.5779" lon="2.15712">
        <ele>212.11</ele>
        <time>2014-11-16T10:27:39Z</time>
      </trkpt>
      <trkpt lat="43.57792" lon="2.1573">
        <ele>212.11</ele>
        <time>2014-11-16T10:27:45Z</time>
      </trkpt>
      <trkpt lat="43.578" lon="2.15738">
        <ele>211.15</ele>
        <time>2014-11-16T10:27:48Z</time>
      </trkpt>
      <trkpt lat="43.57804" lon="2.15756">
        <ele>210.19</ele>
        <time>2014-11-16T10:27:51Z</time>
      </trkpt>
      <trkpt lat="43.578" lon="2.15769">
        <ele>210.67</ele>
        <time>2014-11-16T10:27:54Z</time>
      </trkpt>
      <trkpt lat="43.57792" lon="2.1578">
        <ele>211.15</ele>
        <time>2014-11-16T10:27:58Z</time>
      </trkpt>
      <trkpt lat="43.57783" lon="2.15794">
        <ele>212.11</ele>
        <time>2014-11-16T10:28:02Z</time>
      </trkpt>
      <trkpt lat="43.57776" lon="2.15809">
        <ele>212.59</ele>
        <time>2014-11-16T10:28:06Z</time>
      </trkpt>
      <trkpt lat="43.57769" lon="2.1582">
        <ele>213.07</ele>
        <time>2014-11-16T10:28:09Z</time>
      </trkpt>
      <trkpt lat="43.57767" lon="2.15836">
        <ele>213.55</ele>
        <time>2014-11-16T10:28:13Z</time>
      </trkpt>
      <trkpt lat="43.57769" lon="2.15851">
        <ele>213.55</ele>
        <time>2014-11-16T10:28:16Z</time>
      </trkpt>
      <trkpt lat="43.57769" lon="2.15865">
        <ele>215.47</ele>
        <time>2014-11-16T10:28:19Z</time>
      </trkpt>
      <trkpt lat="43.57771" lon="2.15881">
        <ele>214.03</ele>
        <time>2014-11-16T10:28:23Z</time>
      </trkpt>
      <trkpt lat="43.57776" lon="2.15895">
        <ele>214.51</ele>
        <time>2014-11-16T10:28:26Z</time>
      </trkpt>
      <trkpt lat="43.5778" lon="2.15909">
        <ele>214.51</ele>
        <time>2014-11-16T10:28:29Z</time>
      </trkpt>
      <trkpt lat="43.57782" lon="2.15924">
        <ele>214.51</ele>
        <time>2014-11-16T10:28:32Z</time>
      </trkpt>
      <trkpt lat="43.57779" lon="2.15939">
        <ele>214.51</ele>
        <time>2014-11-16T10:28:35Z</time>
      </trkpt>
      <trkpt lat="43.57773" lon="2.1595">
        <ele>214.51</ele>
        <time>2014-11-16T10:28:38Z</time>
      </trkpt>
      <trkpt lat="43.57767" lon="2.15964">
        <ele>214.99</ele>
        <time>2014-11-16T10:28:42Z</time>
      </trkpt>
      <trkpt lat="43.5776" lon="2.15975">
        <ele>214.99</ele>
        <time>2014-11-16T10:28:45Z</time>
      </trkpt>
      <trkpt lat="43.5775" lon="2.15991">
        <ele>215.47</ele>
        <time>2014-11-16T10:28:49Z</time>
      </trkpt>
      <trkpt lat="43.57743" lon="2.16002">
        <ele>215.95</ele>
        <time>2014-11-16T10:28:52Z</time>
      </trkpt>
      <trkpt lat="43.57736" lon="2.16015">
        <ele>215.47</ele>
        <time>2014-11-16T10:28:55Z</time>
      </trkpt>
      <trkpt lat="43.57728" lon="2.16027">
        <ele>215.47</ele>
        <time>2014-11-16T10:28:58Z</time>
      </trkpt>
      <trkpt lat="43.57718" lon="2.1604">
        <ele>214.99</ele>
        <time>2014-11-16T10:29:01Z</time>
      </trkpt>
      <trkpt lat="43.57709" lon="2.16055">
        <ele>214.51</ele>
        <time>2014-11-16T10:29:04Z</time>
      </trkpt>
      <trkpt lat="43.57704" lon="2.16068">
        <ele>214.51</ele>
        <time>2014-11-16T10:29:06Z</time>
      </trkpt>
      <trkpt lat="43.57699" lon="2.16081">
        <ele>214.03</ele>
        <time>2014-11-16T10:29:08Z</time>
      </trkpt>
      <trkpt lat="43.57694" lon="2.16094">
        <ele>214.03</ele>
        <time>2014-11-16T10:29:10Z</time>
      </trkpt>
      <trkpt lat="43.57691" lon="2.16107">
        <ele>214.03</ele>
        <time>2014-11-16T10:29:12Z</time>
      </trkpt>
      <trkpt lat="43.57687" lon="2.1612">
        <ele>214.03</ele>
        <time>2014-11-16T10:29:14Z</time>
      </trkpt>
      <trkpt lat="43.57684" lon="2.16133">
        <ele>214.51</ele>
        <time>2014-11-16T10:29:16Z</time>
      </trkpt>
      <trkpt lat="43.57679" lon="2.16152">
        <ele>214.99</ele>
        <time>2014-11-16T10:29:19Z</time>
      </trkpt>
      <trkpt lat="43.57675" lon="2.16169">
        <ele>215.47</ele>
        <time>2014-11-16T10:29:22Z</time>
      </trkpt>
      <trkpt lat="43.5767" lon="2.16185">
        <ele>215.95</ele>
        <time>2014-11-16T10:29:25Z</time>
      </trkpt>
      <trkpt lat="43.57666" lon="2.16201">
        <ele>215.95</ele>
        <time>2014-11-16T10:29:28Z</time>
      </trkpt>
      <trkpt lat="43.57661" lon="2.16216">
        <ele>215.95</ele>
        <time>2014-11-16T10:29:31Z</time>
      </trkpt>
      <trkpt lat="43.57656" lon="2.16231">
        <ele>216.43</ele>
        <time>2014-11-16T10:29:34Z</time>
      </trkpt>
      <trkpt lat="43.57658" lon="2.16247">
        <ele>216.91</ele>
        <time>2014-11-16T10:29:37Z</time>
      </trkpt>
      <trkpt lat="43.57662" lon="2.16263">
        <ele>217.4</ele>
        <time>2014-11-16T10:29:40Z</time>
      </trkpt>
      <trkpt lat="43.57665" lon="2.16278">
        <ele>217.88</ele>
        <time>2014-11-16T10:29:43Z</time>
      </trkpt>
      <trkpt lat="43.57668" lon="2.16293">
        <ele>218.36</ele>
        <time>2014-11-16T10:29:46Z</time>
      </trkpt>
      <trkpt lat="43.57672" lon="2.16308">
        <ele>217.88</ele>
        <time>2014-11-16T10:29:49Z</time>
      </trkpt>
      <trkpt lat="43.57676" lon="2.16322">
        <ele>218.36</ele>
        <time>2014-11-16T10:29:52Z</time>
      </trkpt>
      <trkpt lat="43.57682" lon="2.16334">
        <ele>218.84</ele>
        <time>2014-11-16T10:29:55Z</time>
      </trkpt>
      <trkpt lat="43.57685" lon="2.16348">
        <ele>218.84</ele>
        <time>2014-11-16T10:29:58Z</time>
      </trkpt>
      <trkpt lat="43.57689" lon="2.16361">
        <ele>218.84</ele>
        <time>2014-11-16T10:30:01Z</time>
      </trkpt>
      <trkpt lat="43.57689" lon="2.16375">
        <ele>219.32</ele>
        <time>2014-11-16T10:30:04Z</time>
      </trkpt>
      <trkpt lat="43.5769" lon="2.1639">
        <ele>220.28</ele>
        <time>2014-11-16T10:30:08Z</time>
      </trkpt>
      <trkpt lat="43.57683" lon="2.16397">
        <ele>220.28</ele>
        <time>2014-11-16T10:30:14Z</time>
      </trkpt>
      <trkpt lat="43.57675" lon="2.164">
        <ele>220.28</ele>
        <time>2014-11-16T10:30:19Z</time>
      </trkpt>
      <trkpt lat="43.57663" lon="2.16403">
        <ele>219.8</ele>
        <time>2014-11-16T10:30:24Z</time>
      </trkpt>
      <trkpt lat="43.57651" lon="2.16405">
        <ele>219.8</ele>
        <time>2014-11-16T10:30:29Z</time>
      </trkpt>
      <trkpt lat="43.57641" lon="2.16404">
        <ele>219.32</ele>
        <time>2014-11-16T10:30:33Z</time>
      </trkpt>
      <trkpt lat="43.5763" lon="2.16402">
        <ele>219.32</ele>
        <time>2014-11-16T10:30:37Z</time>
      </trkpt>
      <trkpt lat="43.5762" lon="2.16399">
        <ele>218.84</ele>
        <time>2014-11-16T10:30:40Z</time>
      </trkpt>
      <trkpt lat="43.5761" lon="2.16396">
        <ele>218.36</ele>
        <time>2014-11-16T10:30:43Z</time>
      </trkpt>
      <trkpt lat="43.57599" lon="2.16393">
        <ele>218.36</ele>
        <time>2014-11-16T10:30:46Z</time>
      </trkpt>
      <trkpt lat="43.57587" lon="2.16389">
        <ele>217.88</ele>
        <time>2014-11-16T10:30:49Z</time>
      </trkpt>
      <trkpt lat="43.57575" lon="2.16384">
        <ele>216.91</ele>
        <time>2014-11-16T10:30:52Z</time>
      </trkpt>
      <trkpt lat="43.57565" lon="2.16381">
        <ele>215.95</ele>
        <time>2014-11-16T10:30:54Z</time>
      </trkpt>
      <trkpt lat="43.57553" lon="2.16378">
        <ele>214.99</ele>
        <time>2014-11-16T10:30:56Z</time>
      </trkpt>
      <trkpt lat="43.57541" lon="2.16371">
        <ele>214.03</ele>
        <time>2014-11-16T10:30:58Z</time>
      </trkpt>
      <trkpt lat="43.57529" lon="2.16362">
        <ele>213.07</ele>
        <time>2014-11-16T10:31:00Z</time>
      </trkpt>
      <trkpt lat="43.57516" lon="2.16353">
        <ele>212.59</ele>
        <time>2014-11-16T10:31:02Z</time>
      </trkpt>
      <trkpt lat="43.57505" lon="2.16344">
        <ele>212.11</ele>
        <time>2014-11-16T10:31:04Z</time>
      </trkpt>
      <trkpt lat="43.57494" lon="2.16339">
        <ele>212.59</ele>
        <time>2014-11-16T10:31:06Z</time>
      </trkpt>
      <trkpt lat="43.57486" lon="2.16345">
        <ele>213.07</ele>
        <time>2014-11-16T10:31:08Z</time>
      </trkpt>
      <trkpt lat="43.57481" lon="2.16357">
        <ele>213.55</ele>
        <time>2014-11-16T10:31:10Z</time>
      </trkpt>
      <trkpt lat="43.57476" lon="2.16373">
        <ele>214.03</ele>
        <time>2014-11-16T10:31:13Z</time>
      </trkpt>
      <trkpt lat="43.57471" lon="2.16389">
        <ele>214.99</ele>
        <time>2014-11-16T10:31:16Z</time>
      </trkpt>
      <trkpt lat="43.57466" lon="2.16405">
        <ele>215.95</ele>
        <time>2014-11-16T10:31:19Z</time>
      </trkpt>
      <trkpt lat="43.57462" lon="2.1642">
        <ele>216.43</ele>
        <time>2014-11-16T10:31:22Z</time>
      </trkpt>
      <trkpt lat="43.57458" lon="2.16435">
        <ele>217.4</ele>
        <time>2014-11-16T10:31:25Z</time>
      </trkpt>
      <trkpt lat="43.57454" lon="2.1645">
        <ele>217.88</ele>
        <time>2014-11-16T10:31:28Z</time>
      </trkpt>
      <trkpt lat="43.57452" lon="2.16465">
        <ele>218.36</ele>
        <time>2014-11-16T10:31:31Z</time>
      </trkpt>
      <trkpt lat="43.57449" lon="2.16481">
        <ele>218.36</ele>
        <time>2014-11-16T10:31:34Z</time>
      </trkpt>
      <trkpt lat="43.57447" lon="2.16496">
        <ele>218.84</ele>
        <time>2014-11-16T10:31:37Z</time>
      </trkpt>
      <trkpt lat="43.57445" lon="2.16511">
        <ele>219.32</ele>
        <time>2014-11-16T10:31:40Z</time>
      </trkpt>
      <trkpt lat="43.57443" lon="2.16526">
        <ele>219.8</ele>
        <time>2014-11-16T10:31:43Z</time>
      </trkpt>
      <trkpt lat="43.57442" lon="2.16542">
        <ele>219.8</ele>
        <time>2014-11-16T10:31:46Z</time>
      </trkpt>
      <trkpt lat="43.57441" lon="2.16558">
        <ele>220.28</ele>
        <time>2014-11-16T10:31:49Z</time>
      </trkpt>
      <trkpt lat="43.57441" lon="2.16573">
        <ele>220.28</ele>
        <time>2014-11-16T10:31:52Z</time>
      </trkpt>
      <trkpt lat="43.57442" lon="2.16588">
        <ele>221.24</ele>
        <time>2014-11-16T10:31:55Z</time>
      </trkpt>
      <trkpt lat="43.57442" lon="2.16604">
        <ele>221.24</ele>
        <time>2014-11-16T10:31:58Z</time>
      </trkpt>
      <trkpt lat="43.57442" lon="2.16619">
        <ele>221.72</ele>
        <time>2014-11-16T10:32:01Z</time>
      </trkpt>
      <trkpt lat="43.57441" lon="2.16634">
        <ele>221.72</ele>
        <time>2014-11-16T10:32:04Z</time>
      </trkpt>
      <trkpt lat="43.57441" lon="2.16649">
        <ele>222.2</ele>
        <time>2014-11-16T10:32:07Z</time>
      </trkpt>
      <trkpt lat="43.57439" lon="2.16664">
        <ele>222.68</ele>
        <time>2014-11-16T10:32:10Z</time>
      </trkpt>
      <trkpt lat="43.57437" lon="2.16678">
        <ele>223.16</ele>
        <time>2014-11-16T10:32:13Z</time>
      </trkpt>
      <trkpt lat="43.57435" lon="2.16692">
        <ele>223.16</ele>
        <time>2014-11-16T10:32:16Z</time>
      </trkpt>
      <trkpt lat="43.57433" lon="2.16705">
        <ele>223.64</ele>
        <time>2014-11-16T10:32:19Z</time>
      </trkpt>
      <trkpt lat="43.57431" lon="2.16718">
        <ele>224.61</ele>
        <time>2014-11-16T10:32:22Z</time>
      </trkpt>
      <trkpt lat="43.5743" lon="2.16731">
        <ele>224.61</ele>
        <time>2014-11-16T10:32:25Z</time>
      </trkpt>
      <trkpt lat="43.57428" lon="2.16747">
        <ele>225.57</ele>
        <time>2014-11-16T10:32:29Z</time>
      </trkpt>
      <trkpt lat="43.57428" lon="2.16762">
        <ele>226.53</ele>
        <time>2014-11-16T10:32:33Z</time>
      </trkpt>
      <trkpt lat="43.57427" lon="2.16777">
        <ele>227.01</ele>
        <time>2014-11-16T10:32:37Z</time>
      </trkpt>
      <trkpt lat="43.57429" lon="2.1679">
        <ele>227.49</ele>
        <time>2014-11-16T10:32:41Z</time>
      </trkpt>
      <trkpt lat="43.57431" lon="2.16803">
        <ele>228.45</ele>
        <time>2014-11-16T10:32:46Z</time>
      </trkpt>
      <trkpt lat="43.57431" lon="2.16817">
        <ele>228.93</ele>
        <time>2014-11-16T10:32:50Z</time>
      </trkpt>
      <trkpt lat="43.57433" lon="2.16833">
        <ele>229.89</ele>
        <time>2014-11-16T10:32:54Z</time>
      </trkpt>
      <trkpt lat="43.57435" lon="2.1685">
        <ele>230.85</ele>
        <time>2014-11-16T10:32:59Z</time>
      </trkpt>
      <trkpt lat="43.57437" lon="2.16865">
        <ele>231.33</ele>
        <time>2014-11-16T10:33:03Z</time>
      </trkpt>
      <trkpt lat="43.57438" lon="2.1688">
        <ele>231.81</ele>
        <time>2014-11-16T10:33:07Z</time>
      </trkpt>
      <trkpt lat="43.57439" lon="2.16895">
        <ele>232.3</ele>
        <time>2014-11-16T10:33:11Z</time>
      </trkpt>
      <trkpt lat="43.57441" lon="2.16909">
        <ele>232.78</ele>
        <time>2014-11-16T10:33:15Z</time>
      </trkpt>
      <trkpt lat="43.57443" lon="2.16922">
        <ele>233.26</ele>
        <time>2014-11-16T10:33:19Z</time>
      </trkpt>
      <trkpt lat="43.57445" lon="2.16937">
        <ele>233.74</ele>
        <time>2014-11-16T10:33:24Z</time>
      </trkpt>
      <trkpt lat="43.57449" lon="2.1695">
        <ele>234.22</ele>
        <time>2014-11-16T10:33:28Z</time>
      </trkpt>
      <trkpt lat="43.57451" lon="2.16964">
        <ele>235.18</ele>
        <time>2014-11-16T10:33:32Z</time>
      </trkpt>
      <trkpt lat="43.57454" lon="2.16977">
        <ele>236.62</ele>
        <time>2014-11-16T10:33:36Z</time>
      </trkpt>
      <trkpt lat="43.57456" lon="2.16992">
        <ele>237.1</ele>
        <time>2014-11-16T10:33:41Z</time>
      </trkpt>
      <trkpt lat="43.57458" lon="2.17006">
        <ele>238.06</ele>
        <time>2014-11-16T10:33:46Z</time>
      </trkpt>
      <trkpt lat="43.57461" lon="2.17019">
        <ele>238.06</ele>
        <time>2014-11-16T10:33:50Z</time>
      </trkpt>
      <trkpt lat="43.57464" lon="2.17034">
        <ele>238.06</ele>
        <time>2014-11-16T10:33:54Z</time>
      </trkpt>
      <trkpt lat="43.57468" lon="2.17049">
        <ele>238.54</ele>
        <time>2014-11-16T10:33:58Z</time>
      </trkpt>
      <trkpt lat="43.57473" lon="2.17064">
        <ele>238.54</ele>
        <time>2014-11-16T10:34:02Z</time>
      </trkpt>
      <trkpt lat="43.57476" lon="2.17076">
        <ele>239.02</ele>
        <time>2014-11-16T10:34:05Z</time>
      </trkpt>
      <trkpt lat="43.57481" lon="2.17087">
        <ele>239.02</ele>
        <time>2014-11-16T10:34:08Z</time>
      </trkpt>
      <trkpt lat="43.57486" lon="2.17099">
        <ele>239.02</ele>
        <time>2014-11-16T10:34:11Z</time>
      </trkpt>
      <trkpt lat="43.57492" lon="2.17111">
        <ele>239.02</ele>
        <time>2014-11-16T10:34:14Z</time>
      </trkpt>
      <trkpt lat="43.57498" lon="2.17123">
        <ele>239.02</ele>
        <time>2014-11-16T10:34:17Z</time>
      </trkpt>
      <trkpt lat="43.57506" lon="2.17134">
        <ele>239.02</ele>
        <time>2014-11-16T10:34:20Z</time>
      </trkpt>
      <trkpt lat="43.57514" lon="2.17146">
        <ele>239.51</ele>
        <time>2014-11-16T10:34:23Z</time>
      </trkpt>
      <trkpt lat="43.57521" lon="2.17158">
        <ele>239.02</ele>
        <time>2014-11-16T10:34:26Z</time>
      </trkpt>
      <trkpt lat="43.57529" lon="2.17171">
        <ele>239.02</ele>
        <time>2014-11-16T10:34:29Z</time>
      </trkpt>
      <trkpt lat="43.57536" lon="2.17184">
        <ele>239.51</ele>
        <time>2014-11-16T10:34:32Z</time>
      </trkpt>
      <trkpt lat="43.57543" lon="2.17198">
        <ele>239.51</ele>
        <time>2014-11-16T10:34:35Z</time>
      </trkpt>
      <trkpt lat="43.57551" lon="2.17211">
        <ele>239.51</ele>
        <time>2014-11-16T10:34:38Z</time>
      </trkpt>
      <trkpt lat="43.57559" lon="2.17224">
        <ele>239.99</ele>
        <time>2014-11-16T10:34:41Z</time>
      </trkpt>
      <trkpt lat="43.57566" lon="2.17239">
        <ele>239.99</ele>
        <time>2014-11-16T10:34:44Z</time>
      </trkpt>
      <trkpt lat="43.57575" lon="2.17252">
        <ele>239.99</ele>
        <time>2014-11-16T10:34:47Z</time>
      </trkpt>
      <trkpt lat="43.57581" lon="2.17266">
        <ele>239.99</ele>
        <time>2014-11-16T10:34:50Z</time>
      </trkpt>
      <trkpt lat="43.57588" lon="2.1728">
        <ele>240.47</ele>
        <time>2014-11-16T10:34:53Z</time>
      </trkpt>
      <trkpt lat="43.57596" lon="2.17292">
        <ele>240.47</ele>
        <time>2014-11-16T10:34:56Z</time>
      </trkpt>
      <trkpt lat="43.57605" lon="2.17305">
        <ele>240.47</ele>
        <time>2014-11-16T10:34:59Z</time>
      </trkpt>
      <trkpt lat="43.57613" lon="2.17318">
        <ele>240.95</ele>
        <time>2014-11-16T10:35:02Z</time>
      </trkpt>
      <trkpt lat="43.57619" lon="2.17333">
        <ele>240.95</ele>
        <time>2014-11-16T10:35:05Z</time>
      </trkpt>
      <trkpt lat="43.57626" lon="2.17348">
        <ele>240.95</ele>
        <time>2014-11-16T10:35:08Z</time>
      </trkpt>
      <trkpt lat="43.57632" lon="2.17363">
        <ele>240.95</ele>
        <time>2014-11-16T10:35:11Z</time>
      </trkpt>
      <trkpt lat="43.57637" lon="2.17379">
        <ele>240.95</ele>
        <time>2014-11-16T10:35:14Z</time>
      </trkpt>
      <trkpt lat="43.57643" lon="2.17395">
        <ele>241.43</ele>
        <time>2014-11-16T10:35:17Z</time>
      </trkpt>
      <trkpt lat="43.57648" lon="2.17411">
        <ele>241.43</ele>
        <time>2014-11-16T10:35:20Z</time>
      </trkpt>
      <trkpt lat="43.57655" lon="2.17426">
        <ele>241.91</ele>
        <time>2014-11-16T10:35:23Z</time>
      </trkpt>
      <trkpt lat="43.57661" lon="2.17441">
        <ele>241.43</ele>
        <time>2014-11-16T10:35:26Z</time>
      </trkpt>
      <trkpt lat="43.57667" lon="2.17458">
        <ele>241.43</ele>
        <time>2014-11-16T10:35:29Z</time>
      </trkpt>
      <trkpt lat="43.57673" lon="2.17474">
        <ele>241.43</ele>
        <time>2014-11-16T10:35:32Z</time>
      </trkpt>
      <trkpt lat="43.57678" lon="2.1749">
        <ele>241.91</ele>
        <time>2014-11-16T10:35:35Z</time>
      </trkpt>
      <trkpt lat="43.57684" lon="2.17506">
        <ele>241.43</ele>
        <time>2014-11-16T10:35:38Z</time>
      </trkpt>
      <trkpt lat="43.57689" lon="2.17521">
        <ele>241.91</ele>
        <time>2014-11-16T10:35:41Z</time>
      </trkpt>
      <trkpt lat="43.57684" lon="2.17528">
        <ele>241.91</ele>
        <time>2014-11-16T10:35:45Z</time>
      </trkpt>
      <trkpt lat="43.57674" lon="2.17533">
        <ele>241.91</ele>
        <time>2014-11-16T10:35:48Z</time>
      </trkpt>
      <trkpt lat="43.57664" lon="2.17539">
        <ele>241.91</ele>
        <time>2014-11-16T10:35:51Z</time>
      </trkpt>
      <trkpt lat="43.57653" lon="2.17545">
        <ele>241.91</ele>
        <time>2014-11-16T10:35:54Z</time>
      </trkpt>
      <trkpt lat="43.57643" lon="2.17553">
        <ele>241.91</ele>
        <time>2014-11-16T10:35:57Z</time>
      </trkpt>
      <trkpt lat="43.57635" lon="2.17568">
        <ele>241.43</ele>
        <time>2014-11-16T10:36:00Z</time>
      </trkpt>
      <trkpt lat="43.5763" lon="2.17578">
        <ele>241.43</ele>
        <time>2014-11-16T10:36:02Z</time>
      </trkpt>
      <trkpt lat="43.57624" lon="2.17587">
        <ele>241.43</ele>
        <time>2014-11-16T10:36:04Z</time>
      </trkpt>
      <trkpt lat="43.57615" lon="2.17601">
        <ele>241.91</ele>
        <time>2014-11-16T10:36:07Z</time>
      </trkpt>
      <trkpt lat="43.57606" lon="2.17613">
        <ele>241.91</ele>
        <time>2014-11-16T10:36:10Z</time>
      </trkpt>
      <trkpt lat="43.57597" lon="2.17627">
        <ele>241.43</ele>
        <time>2014-11-16T10:36:13Z</time>
      </trkpt>
      <trkpt lat="43.57588" lon="2.1764">
        <ele>241.91</ele>
        <time>2014-11-16T10:36:16Z</time>
      </trkpt>
      <trkpt lat="43.57581" lon="2.17648">
        <ele>241.43</ele>
        <time>2014-11-16T10:36:18Z</time>
      </trkpt>
      <trkpt lat="43.57572" lon="2.17661">
        <ele>241.91</ele>
        <time>2014-11-16T10:36:21Z</time>
      </trkpt>
      <trkpt lat="43.57562" lon="2.17674">
        <ele>241.91</ele>
        <time>2014-11-16T10:36:24Z</time>
      </trkpt>
      <trkpt lat="43.57551" lon="2.17673">
        <ele>241.43</ele>
        <time>2014-11-16T10:36:27Z</time>
      </trkpt>
      <trkpt lat="43.57541" lon="2.17661">
        <ele>241.43</ele>
        <time>2014-11-16T10:36:30Z</time>
      </trkpt>
      <trkpt lat="43.57533" lon="2.17652">
        <ele>241.43</ele>
        <time>2014-11-16T10:36:32Z</time>
      </trkpt>
      <trkpt lat="43.57526" lon="2.17644">
        <ele>241.43</ele>
        <time>2014-11-16T10:36:34Z</time>
      </trkpt>
      <trkpt lat="43.57518" lon="2.17636">
        <ele>241.43</ele>
        <time>2014-11-16T10:36:36Z</time>
      </trkpt>
      <trkpt lat="43.57511" lon="2.17629">
        <ele>241.91</ele>
        <time>2014-11-16T10:36:38Z</time>
      </trkpt>
      <trkpt lat="43.57503" lon="2.17622">
        <ele>241.91</ele>
        <time>2014-11-16T10:36:40Z</time>
      </trkpt>
      <trkpt lat="43.57495" lon="2.17616">
        <ele>241.91</ele>
        <time>2014-11-16T10:36:42Z</time>
      </trkpt>
      <trkpt lat="43.57483" lon="2.17607">
        <ele>241.43</ele>
        <time>2014-11-16T10:36:45Z</time>
      </trkpt>
      <trkpt lat="43.57472" lon="2.17599">
        <ele>241.43</ele>
        <time>2014-11-16T10:36:48Z</time>
      </trkpt>
      <trkpt lat="43.57462" lon="2.17592">
        <ele>241.91</ele>
        <time>2014-11-16T10:36:51Z</time>
      </trkpt>
      <trkpt lat="43.57451" lon="2.17586">
        <ele>241.91</ele>
        <time>2014-11-16T10:36:54Z</time>
      </trkpt>
      <trkpt lat="43.57443" lon="2.1758">
        <ele>241.43</ele>
        <time>2014-11-16T10:36:56Z</time>
      </trkpt>
      <trkpt lat="43.57434" lon="2.17575">
        <ele>241.91</ele>
        <time>2014-11-16T10:36:58Z</time>
      </trkpt>
      <trkpt lat="43.57425" lon="2.1757">
        <ele>241.91</ele>
        <time>2014-11-16T10:37:00Z</time>
      </trkpt>
      <trkpt lat="43.57416" lon="2.17564">
        <ele>241.91</ele>
        <time>2014-11-16T10:37:02Z</time>
      </trkpt>
      <trkpt lat="43.57406" lon="2.17559">
        <ele>241.91</ele>
        <time>2014-11-16T10:37:04Z</time>
      </trkpt>
      <trkpt lat="43.57397" lon="2.17553">
        <ele>241.91</ele>
        <time>2014-11-16T10:37:06Z</time>
      </trkpt>
      <trkpt lat="43.57388" lon="2.17547">
        <ele>241.91</ele>
        <time>2014-11-16T10:37:08Z</time>
      </trkpt>
      <trkpt lat="43.57378" lon="2.17541">
        <ele>241.91</ele>
        <time>2014-11-16T10:37:10Z</time>
      </trkpt>
      <trkpt lat="43.57369" lon="2.17535">
        <ele>241.91</ele>
        <time>2014-11-16T10:37:12Z</time>
      </trkpt>
      <trkpt lat="43.5736" lon="2.17528">
        <ele>241.91</ele>
        <time>2014-11-16T10:37:14Z</time>
      </trkpt>
      <trkpt lat="43.57352" lon="2.1752">
        <ele>241.91</ele>
        <time>2014-11-16T10:37:16Z</time>
      </trkpt>
      <trkpt lat="43.57344" lon="2.17512">
        <ele>241.91</ele>
        <time>2014-11-16T10:37:18Z</time>
      </trkpt>
      <trkpt lat="43.57336" lon="2.17504">
        <ele>242.39</ele>
        <time>2014-11-16T10:37:20Z</time>
      </trkpt>
      <trkpt lat="43.57328" lon="2.17496">
        <ele>241.91</ele>
        <time>2014-11-16T10:37:22Z</time>
      </trkpt>
      <trkpt lat="43.57321" lon="2.17488">
        <ele>241.91</ele>
        <time>2014-11-16T10:37:24Z</time>
      </trkpt>
      <trkpt lat="43.57313" lon="2.1748">
        <ele>241.91</ele>
        <time>2014-11-16T10:37:26Z</time>
      </trkpt>
      <trkpt lat="43.57304" lon="2.17472">
        <ele>241.91</ele>
        <time>2014-11-16T10:37:28Z</time>
      </trkpt>
      <trkpt lat="43.57296" lon="2.17465">
        <ele>241.91</ele>
        <time>2014-11-16T10:37:30Z</time>
      </trkpt>
      <trkpt lat="43.57287" lon="2.17458">
        <ele>241.91</ele>
        <time>2014-11-16T10:37:32Z</time>
      </trkpt>
      <trkpt lat="43.57277" lon="2.17452">
        <ele>241.91</ele>
        <time>2014-11-16T10:37:34Z</time>
      </trkpt>
      <trkpt lat="43.57268" lon="2.17447">
        <ele>241.91</ele>
        <time>2014-11-16T10:37:36Z</time>
      </trkpt>
      <trkpt lat="43.57258" lon="2.17443">
        <ele>241.91</ele>
        <time>2014-11-16T10:37:38Z</time>
      </trkpt>
      <trkpt lat="43.57248" lon="2.17439">
        <ele>241.43</ele>
        <time>2014-11-16T10:37:40Z</time>
      </trkpt>
      <trkpt lat="43.57238" lon="2.17435">
        <ele>241.43</ele>
        <time>2014-11-16T10:37:42Z</time>
      </trkpt>
      <trkpt lat="43.57227" lon="2.17432">
        <ele>241.43</ele>
        <time>2014-11-16T10:37:44Z</time>
      </trkpt>
      <trkpt lat="43.57217" lon="2.17429">
        <ele>241.43</ele>
        <time>2014-11-16T10:37:46Z</time>
      </trkpt>
      <trkpt lat="43.57207" lon="2.17427">
        <ele>241.43</ele>
        <time>2014-11-16T10:37:48Z</time>
      </trkpt>
      <trkpt lat="43.57196" lon="2.17425">
        <ele>241.43</ele>
        <time>2014-11-16T10:37:50Z</time>
      </trkpt>
      <trkpt lat="43.57185" lon="2.17424">
        <ele>241.43</ele>
        <time>2014-11-16T10:37:52Z</time>
      </trkpt>
      <trkpt lat="43.57174" lon="2.17426">
        <ele>241.91</ele>
        <time>2014-11-16T10:37:54Z</time>
      </trkpt>
      <trkpt lat="43.57164" lon="2.1743">
        <ele>241.91</ele>
        <time>2014-11-16T10:37:56Z</time>
      </trkpt>
      <trkpt lat="43.57155" lon="2.17437">
        <ele>241.91</ele>
        <time>2014-11-16T10:37:58Z</time>
      </trkpt>
      <trkpt lat="43.57145" lon="2.17442">
        <ele>242.39</ele>
        <time>2014-11-16T10:38:00Z</time>
      </trkpt>
      <trkpt lat="43.57135" lon="2.17448">
        <ele>242.39</ele>
        <time>2014-11-16T10:38:02Z</time>
      </trkpt>
      <trkpt lat="43.57126" lon="2.17453">
        <ele>242.39</ele>
        <time>2014-11-16T10:38:04Z</time>
      </trkpt>
      <trkpt lat="43.57116" lon="2.17458">
        <ele>242.87</ele>
        <time>2014-11-16T10:38:06Z</time>
      </trkpt>
      <trkpt lat="43.57107" lon="2.17463">
        <ele>242.39</ele>
        <time>2014-11-16T10:38:08Z</time>
      </trkpt>
      <trkpt lat="43.57097" lon="2.17468">
        <ele>242.87</ele>
        <time>2014-11-16T10:38:10Z</time>
      </trkpt>
      <trkpt lat="43.57088" lon="2.17473">
        <ele>242.87</ele>
        <time>2014-11-16T10:38:12Z</time>
      </trkpt>
      <trkpt lat="43.57078" lon="2.17478">
        <ele>242.87</ele>
        <time>2014-11-16T10:38:14Z</time>
      </trkpt>
      <trkpt lat="43.57068" lon="2.17484">
        <ele>242.39</ele>
        <time>2014-11-16T10:38:16Z</time>
      </trkpt>
      <trkpt lat="43.57057" lon="2.17491">
        <ele>242.39</ele>
        <time>2014-11-16T10:38:18Z</time>
      </trkpt>
      <trkpt lat="43.57045" lon="2.17497">
        <ele>242.39</ele>
        <time>2014-11-16T10:38:20Z</time>
      </trkpt>
      <trkpt lat="43.57034" lon="2.17503">
        <ele>241.91</ele>
        <time>2014-11-16T10:38:22Z</time>
      </trkpt>
      <trkpt lat="43.57023" lon="2.17509">
        <ele>243.35</ele>
        <time>2014-11-16T10:38:24Z</time>
      </trkpt>
      <trkpt lat="43.57012" lon="2.17515">
        <ele>242.39</ele>
        <time>2014-11-16T10:38:26Z</time>
      </trkpt>
      <trkpt lat="43.57001" lon="2.1752">
        <ele>242.39</ele>
        <time>2014-11-16T10:38:28Z</time>
      </trkpt>
      <trkpt lat="43.5699" lon="2.17527">
        <ele>242.39</ele>
        <time>2014-11-16T10:38:30Z</time>
      </trkpt>
      <trkpt lat="43.5698" lon="2.17532">
        <ele>241.91</ele>
        <time>2014-11-16T10:38:32Z</time>
      </trkpt>
      <trkpt lat="43.56969" lon="2.17539">
        <ele>241.91</ele>
        <time>2014-11-16T10:38:34Z</time>
      </trkpt>
      <trkpt lat="43.56959" lon="2.17545">
        <ele>241.91</ele>
        <time>2014-11-16T10:38:36Z</time>
      </trkpt>
      <trkpt lat="43.56949" lon="2.17552">
        <ele>241.91</ele>
        <time>2014-11-16T10:38:38Z</time>
      </trkpt>
      <trkpt lat="43.56939" lon="2.1756">
        <ele>241.91</ele>
        <time>2014-11-16T10:38:40Z</time>
      </trkpt>
      <trkpt lat="43.56928" lon="2.1757">
        <ele>241.91</ele>
        <time>2014-11-16T10:38:42Z</time>
      </trkpt>
      <trkpt lat="43.56917" lon="2.1758">
        <ele>241.43</ele>
        <time>2014-11-16T10:38:44Z</time>
      </trkpt>
      <trkpt lat="43.56908" lon="2.17593">
        <ele>241.91</ele>
        <time>2014-11-16T10:38:46Z</time>
      </trkpt>
      <trkpt lat="43.56899" lon="2.17606">
        <ele>241.43</ele>
        <time>2014-11-16T10:38:48Z</time>
      </trkpt>
      <trkpt lat="43.56892" lon="2.17619">
        <ele>241.91</ele>
        <time>2014-11-16T10:38:50Z</time>
      </trkpt>
      <trkpt lat="43.56885" lon="2.17633">
        <ele>241.91</ele>
        <time>2014-11-16T10:38:52Z</time>
      </trkpt>
      <trkpt lat="43.56878" lon="2.17647">
        <ele>241.91</ele>
        <time>2014-11-16T10:38:54Z</time>
      </trkpt>
      <trkpt lat="43.56871" lon="2.1766">
        <ele>241.91</ele>
        <time>2014-11-16T10:38:56Z</time>
      </trkpt>
      <trkpt lat="43.56863" lon="2.17672">
        <ele>241.91</ele>
        <time>2014-11-16T10:38:58Z</time>
      </trkpt>
      <trkpt lat="43.56856" lon="2.17684">
        <ele>241.91</ele>
        <time>2014-11-16T10:39:00Z</time>
      </trkpt>
      <trkpt lat="43.56849" lon="2.17695">
        <ele>242.39</ele>
        <time>2014-11-16T10:39:02Z</time>
      </trkpt>
      <trkpt lat="43.56841" lon="2.17706">
        <ele>242.39</ele>
        <time>2014-11-16T10:39:04Z</time>
      </trkpt>
      <trkpt lat="43.56834" lon="2.17717">
        <ele>242.39</ele>
        <time>2014-11-16T10:39:06Z</time>
      </trkpt>
      <trkpt lat="43.56826" lon="2.17728">
        <ele>242.39</ele>
        <time>2014-11-16T10:39:08Z</time>
      </trkpt>
      <trkpt lat="43.56818" lon="2.1774">
        <ele>242.39</ele>
        <time>2014-11-16T10:39:10Z</time>
      </trkpt>
      <trkpt lat="43.56811" lon="2.1775">
        <ele>242.87</ele>
        <time>2014-11-16T10:39:12Z</time>
      </trkpt>
      <trkpt lat="43.56805" lon="2.17761">
        <ele>242.87</ele>
        <time>2014-11-16T10:39:14Z</time>
      </trkpt>
      <trkpt lat="43.56798" lon="2.17771">
        <ele>242.87</ele>
        <time>2014-11-16T10:39:16Z</time>
      </trkpt>
      <trkpt lat="43.5679" lon="2.17782">
        <ele>242.87</ele>
        <time>2014-11-16T10:39:18Z</time>
      </trkpt>
      <trkpt lat="43.56783" lon="2.17793">
        <ele>242.87</ele>
        <time>2014-11-16T10:39:20Z</time>
      </trkpt>
      <trkpt lat="43.56776" lon="2.17804">
        <ele>242.87</ele>
        <time>2014-11-16T10:39:22Z</time>
      </trkpt>
      <trkpt lat="43.56768" lon="2.17815">
        <ele>242.87</ele>
        <time>2014-11-16T10:39:24Z</time>
      </trkpt>
      <trkpt lat="43.56761" lon="2.17826">
        <ele>242.87</ele>
        <time>2014-11-16T10:39:26Z</time>
      </trkpt>
      <trkpt lat="43.56754" lon="2.17837">
        <ele>242.87</ele>
        <time>2014-11-16T10:39:28Z</time>
      </trkpt>
      <trkpt lat="43.56747" lon="2.17848">
        <ele>242.87</ele>
        <time>2014-11-16T10:39:30Z</time>
      </trkpt>
      <trkpt lat="43.5674" lon="2.17859">
        <ele>242.87</ele>
        <time>2014-11-16T10:39:32Z</time>
      </trkpt>
      <trkpt lat="43.56733" lon="2.17871">
        <ele>243.35</ele>
        <time>2014-11-16T10:39:34Z</time>
      </trkpt>
      <trkpt lat="43.56727" lon="2.17883">
        <ele>243.35</ele>
        <time>2014-11-16T10:39:36Z</time>
      </trkpt>
      <trkpt lat="43.56721" lon="2.17895">
        <ele>243.35</ele>
        <time>2014-11-16T10:39:38Z</time>
      </trkpt>
      <trkpt lat="43.56714" lon="2.17906">
        <ele>243.35</ele>
        <time>2014-11-16T10:39:40Z</time>
      </trkpt>
      <trkpt lat="43.56708" lon="2.17917">
        <ele>243.83</ele>
        <time>2014-11-16T10:39:42Z</time>
      </trkpt>
      <trkpt lat="43.56702" lon="2.17929">
        <ele>243.83</ele>
        <time>2014-11-16T10:39:44Z</time>
      </trkpt>
      <trkpt lat="43.56697" lon="2.17941">
        <ele>244.31</ele>
        <time>2014-11-16T10:39:46Z</time>
      </trkpt>
      <trkpt lat="43.56692" lon="2.17953">
        <ele>244.31</ele>
        <time>2014-11-16T10:39:48Z</time>
      </trkpt>
      <trkpt lat="43.56687" lon="2.17964">
        <ele>243.83</ele>
        <time>2014-11-16T10:39:50Z</time>
      </trkpt>
      <trkpt lat="43.56683" lon="2.17977">
        <ele>243.83</ele>
        <time>2014-11-16T10:39:52Z</time>
      </trkpt>
      <trkpt lat="43.56678" lon="2.1799">
        <ele>244.31</ele>
        <time>2014-11-16T10:39:54Z</time>
      </trkpt>
      <trkpt lat="43.56673" lon="2.18003">
        <ele>244.31</ele>
        <time>2014-11-16T10:39:56Z</time>
      </trkpt>
      <trkpt lat="43.56669" lon="2.18016">
        <ele>243.83</ele>
        <time>2014-11-16T10:39:58Z</time>
      </trkpt>
      <trkpt lat="43.56665" lon="2.1803">
        <ele>244.31</ele>
        <time>2014-11-16T10:40:00Z</time>
      </trkpt>
      <trkpt lat="43.56662" lon="2.18043">
        <ele>244.79</ele>
        <time>2014-11-16T10:40:02Z</time>
      </trkpt>
      <trkpt lat="43.56658" lon="2.18056">
        <ele>244.31</ele>
        <time>2014-11-16T10:40:04Z</time>
      </trkpt>
      <trkpt lat="43.56653" lon="2.18069">
        <ele>244.31</ele>
        <time>2014-11-16T10:40:06Z</time>
      </trkpt>
      <trkpt lat="43.56649" lon="2.18082">
        <ele>244.79</ele>
        <time>2014-11-16T10:40:08Z</time>
      </trkpt>
      <trkpt lat="43.56646" lon="2.18096">
        <ele>244.79</ele>
        <time>2014-11-16T10:40:10Z</time>
      </trkpt>
      <trkpt lat="43.56643" lon="2.1811">
        <ele>244.79</ele>
        <time>2014-11-16T10:40:12Z</time>
      </trkpt>
      <trkpt lat="43.56641" lon="2.18123">
        <ele>244.79</ele>
        <time>2014-11-16T10:40:14Z</time>
      </trkpt>
      <trkpt lat="43.56639" lon="2.1814">
        <ele>244.79</ele>
        <time>2014-11-16T10:40:17Z</time>
      </trkpt>
      <trkpt lat="43.56638" lon="2.18156">
        <ele>244.79</ele>
        <time>2014-11-16T10:40:20Z</time>
      </trkpt>
      <trkpt lat="43.56637" lon="2.18169">
        <ele>244.79</ele>
        <time>2014-11-16T10:40:23Z</time>
      </trkpt>
      <trkpt lat="43.56632" lon="2.18181">
        <ele>245.27</ele>
        <time>2014-11-16T10:40:27Z</time>
      </trkpt>
      <trkpt lat="43.56629" lon="2.18194">
        <ele>244.79</ele>
        <time>2014-11-16T10:40:30Z</time>
      </trkpt>
      <trkpt lat="43.56627" lon="2.18208">
        <ele>244.79</ele>
        <time>2014-11-16T10:40:33Z</time>
      </trkpt>
      <trkpt lat="43.56624" lon="2.18224">
        <ele>244.79</ele>
        <time>2014-11-16T10:40:36Z</time>
      </trkpt>
      <trkpt lat="43.56622" lon="2.1824">
        <ele>245.27</ele>
        <time>2014-11-16T10:40:39Z</time>
      </trkpt>
      <trkpt lat="43.56619" lon="2.18258">
        <ele>245.27</ele>
        <time>2014-11-16T10:40:42Z</time>
      </trkpt>
      <trkpt lat="43.56616" lon="2.18275">
        <ele>245.27</ele>
        <time>2014-11-16T10:40:45Z</time>
      </trkpt>
      <trkpt lat="43.56614" lon="2.18287">
        <ele>245.27</ele>
        <time>2014-11-16T10:40:47Z</time>
      </trkpt>
      <trkpt lat="43.56612" lon="2.183">
        <ele>245.27</ele>
        <time>2014-11-16T10:40:49Z</time>
      </trkpt>
      <trkpt lat="43.56611" lon="2.18313">
        <ele>245.27</ele>
        <time>2014-11-16T10:40:51Z</time>
      </trkpt>
      <trkpt lat="43.56609" lon="2.18326">
        <ele>245.27</ele>
        <time>2014-11-16T10:40:53Z</time>
      </trkpt>
      <trkpt lat="43.56607" lon="2.18339">
        <ele>245.27</ele>
        <time>2014-11-16T10:40:55Z</time>
      </trkpt>
      <trkpt lat="43.56604" lon="2.18352">
        <ele>245.27</ele>
        <time>2014-11-16T10:40:57Z</time>
      </trkpt>
      <trkpt lat="43.56602" lon="2.18365">
        <ele>245.27</ele>
        <time>2014-11-16T10:40:59Z</time>
      </trkpt>
      <trkpt lat="43.566" lon="2.18377">
        <ele>245.27</ele>
        <time>2014-11-16T10:41:01Z</time>
      </trkpt>
      <trkpt lat="43.56598" lon="2.1839">
        <ele>245.75</ele>
        <time>2014-11-16T10:41:03Z</time>
      </trkpt>
      <trkpt lat="43.56597" lon="2.18404">
        <ele>245.75</ele>
        <time>2014-11-16T10:41:05Z</time>
      </trkpt>
      <trkpt lat="43.56597" lon="2.18419">
        <ele>245.75</ele>
        <time>2014-11-16T10:41:07Z</time>
      </trkpt>
      <trkpt lat="43.56596" lon="2.18433">
        <ele>245.75</ele>
        <time>2014-11-16T10:41:09Z</time>
      </trkpt>
      <trkpt lat="43.56596" lon="2.18448">
        <ele>245.27</ele>
        <time>2014-11-16T10:41:11Z</time>
      </trkpt>
      <trkpt lat="43.56596" lon="2.18462">
        <ele>245.75</ele>
        <time>2014-11-16T10:41:13Z</time>
      </trkpt>
      <trkpt lat="43.56596" lon="2.18477">
        <ele>245.27</ele>
        <time>2014-11-16T10:41:15Z</time>
      </trkpt>
      <trkpt lat="43.56596" lon="2.18493">
        <ele>245.27</ele>
        <time>2014-11-16T10:41:17Z</time>
      </trkpt>
      <trkpt lat="43.56596" lon="2.18508">
        <ele>245.27</ele>
        <time>2014-11-16T10:41:19Z</time>
      </trkpt>
      <trkpt lat="43.56595" lon="2.18525">
        <ele>245.27</ele>
        <time>2014-11-16T10:41:21Z</time>
      </trkpt>
      <trkpt lat="43.56593" lon="2.18542">
        <ele>245.27</ele>
        <time>2014-11-16T10:41:23Z</time>
      </trkpt>
      <trkpt lat="43.56592" lon="2.18559">
        <ele>245.27</ele>
        <time>2014-11-16T10:41:25Z</time>
      </trkpt>
      <trkpt lat="43.56591" lon="2.18576">
        <ele>245.27</ele>
        <time>2014-11-16T10:41:27Z</time>
      </trkpt>
      <trkpt lat="43.56588" lon="2.18592">
        <ele>245.27</ele>
        <time>2014-11-16T10:41:29Z</time>
      </trkpt>
      <trkpt lat="43.56585" lon="2.18608">
        <ele>245.27</ele>
        <time>2014-11-16T10:41:31Z</time>
      </trkpt>
      <trkpt lat="43.56582" lon="2.18625">
        <ele>245.27</ele>
        <time>2014-11-16T10:41:33Z</time>
      </trkpt>
      <trkpt lat="43.56578" lon="2.18642">
        <ele>244.79</ele>
        <time>2014-11-16T10:41:35Z</time>
      </trkpt>
      <trkpt lat="43.56574" lon="2.18658">
        <ele>244.79</ele>
        <time>2014-11-16T10:41:37Z</time>
      </trkpt>
      <trkpt lat="43.5657" lon="2.18675">
        <ele>245.27</ele>
        <time>2014-11-16T10:41:39Z</time>
      </trkpt>
      <trkpt lat="43.56566" lon="2.1869">
        <ele>245.27</ele>
        <time>2014-11-16T10:41:41Z</time>
      </trkpt>
      <trkpt lat="43.56562" lon="2.18706">
        <ele>245.27</ele>
        <time>2014-11-16T10:41:43Z</time>
      </trkpt>
      <trkpt lat="43.56558" lon="2.18722">
        <ele>245.27</ele>
        <time>2014-11-16T10:41:45Z</time>
      </trkpt>
      <trkpt lat="43.56555" lon="2.18737">
        <ele>245.27</ele>
        <time>2014-11-16T10:41:47Z</time>
      </trkpt>
      <trkpt lat="43.56551" lon="2.18752">
        <ele>245.27</ele>
        <time>2014-11-16T10:41:49Z</time>
      </trkpt>
      <trkpt lat="43.56548" lon="2.18767">
        <ele>245.75</ele>
        <time>2014-11-16T10:41:51Z</time>
      </trkpt>
      <trkpt lat="43.56544" lon="2.18782">
        <ele>245.75</ele>
        <time>2014-11-16T10:41:53Z</time>
      </trkpt>
      <trkpt lat="43.5654" lon="2.18797">
        <ele>245.75</ele>
        <time>2014-11-16T10:41:55Z</time>
      </trkpt>
      <trkpt lat="43.56537" lon="2.18811">
        <ele>245.75</ele>
        <time>2014-11-16T10:41:57Z</time>
      </trkpt>
      <trkpt lat="43.56534" lon="2.18826">
        <ele>245.75</ele>
        <time>2014-11-16T10:41:59Z</time>
      </trkpt>
      <trkpt lat="43.56532" lon="2.1884">
        <ele>245.75</ele>
        <time>2014-11-16T10:42:01Z</time>
      </trkpt>
      <trkpt lat="43.56535" lon="2.18856">
        <ele>246.23</ele>
        <time>2014-11-16T10:42:04Z</time>
      </trkpt>
      <trkpt lat="43.56534" lon="2.18869">
        <ele>246.23</ele>
        <time>2014-11-16T10:42:06Z</time>
      </trkpt>
      <trkpt lat="43.56532" lon="2.18882">
        <ele>246.23</ele>
        <time>2014-11-16T10:42:08Z</time>
      </trkpt>
      <trkpt lat="43.5653" lon="2.18895">
        <ele>246.23</ele>
        <time>2014-11-16T10:42:10Z</time>
      </trkpt>
      <trkpt lat="43.56527" lon="2.18908">
        <ele>246.23</ele>
        <time>2014-11-16T10:42:12Z</time>
      </trkpt>
      <trkpt lat="43.56524" lon="2.18921">
        <ele>246.23</ele>
        <time>2014-11-16T10:42:14Z</time>
      </trkpt>
      <trkpt lat="43.56522" lon="2.18934">
        <ele>246.72</ele>
        <time>2014-11-16T10:42:16Z</time>
      </trkpt>
      <trkpt lat="43.56519" lon="2.18951">
        <ele>246.72</ele>
        <time>2014-11-16T10:42:19Z</time>
      </trkpt>
      <trkpt lat="43.56515" lon="2.18968">
        <ele>246.72</ele>
        <time>2014-11-16T10:42:22Z</time>
      </trkpt>
      <trkpt lat="43.56511" lon="2.18983">
        <ele>247.2</ele>
        <time>2014-11-16T10:42:25Z</time>
      </trkpt>
      <trkpt lat="43.56508" lon="2.18999">
        <ele>247.2</ele>
        <time>2014-11-16T10:42:28Z</time>
      </trkpt>
      <trkpt lat="43.56505" lon="2.19014">
        <ele>247.2</ele>
        <time>2014-11-16T10:42:31Z</time>
      </trkpt>
      <trkpt lat="43.56501" lon="2.19028">
        <ele>247.68</ele>
        <time>2014-11-16T10:42:34Z</time>
      </trkpt>
      <trkpt lat="43.56497" lon="2.19043">
        <ele>247.68</ele>
        <time>2014-11-16T10:42:37Z</time>
      </trkpt>
      <trkpt lat="43.56494" lon="2.19056">
        <ele>247.68</ele>
        <time>2014-11-16T10:42:40Z</time>
      </trkpt>
      <trkpt lat="43.5649" lon="2.19069">
        <ele>248.16</ele>
        <time>2014-11-16T10:42:43Z</time>
      </trkpt>
      <trkpt lat="43.56483" lon="2.19079">
        <ele>247.68</ele>
        <time>2014-11-16T10:42:46Z</time>
      </trkpt>
      <trkpt lat="43.56474" lon="2.19084">
        <ele>247.68</ele>
        <time>2014-11-16T10:42:49Z</time>
      </trkpt>
      <trkpt lat="43.56464" lon="2.19082">
        <ele>247.2</ele>
        <time>2014-11-16T10:42:52Z</time>
      </trkpt>
      <trkpt lat="43.56454" lon="2.19078">
        <ele>246.72</ele>
        <time>2014-11-16T10:42:55Z</time>
      </trkpt>
      <trkpt lat="43.56445" lon="2.19084">
        <ele>246.23</ele>
        <time>2014-11-16T10:42:58Z</time>
      </trkpt>
      <trkpt lat="43.56446" lon="2.19101">
        <ele>246.23</ele>
        <time>2014-11-16T10:43:01Z</time>
      </trkpt>
      <trkpt lat="43.5645" lon="2.19114">
        <ele>245.75</ele>
        <time>2014-11-16T10:43:03Z</time>
      </trkpt>
      <trkpt lat="43.56454" lon="2.1913">
        <ele>244.79</ele>
        <time>2014-11-16T10:43:05Z</time>
      </trkpt>
      <trkpt lat="43.56461" lon="2.19147">
        <ele>243.83</ele>
        <time>2014-11-16T10:43:07Z</time>
      </trkpt>
      <trkpt lat="43.5647" lon="2.19165">
        <ele>242.39</ele>
        <time>2014-11-16T10:43:09Z</time>
      </trkpt>
      <trkpt lat="43.56483" lon="2.19184">
        <ele>239.02</ele>
        <time>2014-11-16T10:43:11Z</time>
      </trkpt>
      <trkpt lat="43.5649" lon="2.19195">
        <ele>237.1</ele>
        <time>2014-11-16T10:43:12Z</time>
      </trkpt>
      <trkpt lat="43.56494" lon="2.19208">
        <ele>236.14</ele>
        <time>2014-11-16T10:43:13Z</time>
      </trkpt>
      <trkpt lat="43.56497" lon="2.19222">
        <ele>234.7</ele>
        <time>2014-11-16T10:43:14Z</time>
      </trkpt>
      <trkpt lat="43.56498" lon="2.19235">
        <ele>234.22</ele>
        <time>2014-11-16T10:43:15Z</time>
      </trkpt>
      <trkpt lat="43.565" lon="2.19258">
        <ele>235.18</ele>
        <time>2014-11-16T10:43:17Z</time>
      </trkpt>
      <trkpt lat="43.56501" lon="2.19277">
        <ele>237.58</ele>
        <time>2014-11-16T10:43:19Z</time>
      </trkpt>
      <trkpt lat="43.56501" lon="2.19291">
        <ele>239.99</ele>
        <time>2014-11-16T10:43:21Z</time>
      </trkpt>
      <trkpt lat="43.565" lon="2.19304">
        <ele>241.91</ele>
        <time>2014-11-16T10:43:25Z</time>
      </trkpt>
      <trkpt lat="43.56498" lon="2.19319">
        <ele>242.87</ele>
        <time>2014-11-16T10:43:30Z</time>
      </trkpt>
      <trkpt lat="43.56497" lon="2.19333">
        <ele>243.83</ele>
        <time>2014-11-16T10:43:35Z</time>
      </trkpt>
      <trkpt lat="43.56496" lon="2.19349">
        <ele>244.79</ele>
        <time>2014-11-16T10:43:41Z</time>
      </trkpt>
      <trkpt lat="43.56496" lon="2.19364">
        <ele>245.75</ele>
        <time>2014-11-16T10:43:47Z</time>
      </trkpt>
      <trkpt lat="43.56495" lon="2.19379">
        <ele>246.72</ele>
        <time>2014-11-16T10:43:53Z</time>
      </trkpt>
      <trkpt lat="43.56496" lon="2.19394">
        <ele>247.2</ele>
        <time>2014-11-16T10:43:58Z</time>
      </trkpt>
      <trkpt lat="43.56495" lon="2.19409">
        <ele>247.68</ele>
        <time>2014-11-16T10:44:03Z</time>
      </trkpt>
      <trkpt lat="43.56496" lon="2.19424">
        <ele>248.64</ele>
        <time>2014-11-16T10:44:08Z</time>
      </trkpt>
      <trkpt lat="43.56495" lon="2.1944">
        <ele>249.12</ele>
        <time>2014-11-16T10:44:13Z</time>
      </trkpt>
      <trkpt lat="43.56495" lon="2.19453">
        <ele>250.08</ele>
        <time>2014-11-16T10:44:17Z</time>
      </trkpt>
      <trkpt lat="43.56495" lon="2.19466">
        <ele>250.56</ele>
        <time>2014-11-16T10:44:21Z</time>
      </trkpt>
      <trkpt lat="43.56494" lon="2.19482">
        <ele>251.04</ele>
        <time>2014-11-16T10:44:26Z</time>
      </trkpt>
      <trkpt lat="43.56494" lon="2.195">
        <ele>252</ele>
        <time>2014-11-16T10:44:31Z</time>
      </trkpt>
      <trkpt lat="43.56494" lon="2.19514">
        <ele>252.48</ele>
        <time>2014-11-16T10:44:35Z</time>
      </trkpt>
      <trkpt lat="43.56493" lon="2.19529">
        <ele>252.96</ele>
        <time>2014-11-16T10:44:39Z</time>
      </trkpt>
      <trkpt lat="43.56494" lon="2.19542">
        <ele>253.44</ele>
        <time>2014-11-16T10:44:43Z</time>
      </trkpt>
      <trkpt lat="43.56494" lon="2.19558">
        <ele>253.44</ele>
        <time>2014-11-16T10:44:48Z</time>
      </trkpt>
      <trkpt lat="43.56494" lon="2.19572">
        <ele>253.93</ele>
        <time>2014-11-16T10:44:52Z</time>
      </trkpt>
      <trkpt lat="43.56495" lon="2.19586">
        <ele>254.41</ele>
        <time>2014-11-16T10:44:56Z</time>
      </trkpt>
      <trkpt lat="43.56494" lon="2.19602">
        <ele>254.89</ele>
        <time>2014-11-16T10:45:01Z</time>
      </trkpt>
      <trkpt lat="43.56492" lon="2.19616">
        <ele>255.37</ele>
        <time>2014-11-16T10:45:06Z</time>
      </trkpt>
      <trkpt lat="43.56494" lon="2.19631">
        <ele>255.85</ele>
        <time>2014-11-16T10:45:15Z</time>
      </trkpt>
      <trkpt lat="43.56489" lon="2.19641">
        <ele>257.77</ele>
        <time>2014-11-16T10:49:55Z</time>
      </trkpt>
      <trkpt lat="43.56479" lon="2.19651">
        <ele>258.25</ele>
        <time>2014-11-16T10:49:59Z</time>
      </trkpt>
      <trkpt lat="43.56469" lon="2.1966">
        <ele>258.25</ele>
        <time>2014-11-16T10:50:03Z</time>
      </trkpt>
      <trkpt lat="43.5646" lon="2.19669">
        <ele>259.21</ele>
        <time>2014-11-16T10:50:06Z</time>
      </trkpt>
      <trkpt lat="43.56451" lon="2.19676">
        <ele>259.69</ele>
        <time>2014-11-16T10:50:09Z</time>
      </trkpt>
      <trkpt lat="43.56441" lon="2.19687">
        <ele>259.69</ele>
        <time>2014-11-16T10:50:13Z</time>
      </trkpt>
      <trkpt lat="43.56432" lon="2.19697">
        <ele>260.17</ele>
        <time>2014-11-16T10:50:16Z</time>
      </trkpt>
      <trkpt lat="43.56423" lon="2.19705">
        <ele>260.17</ele>
        <time>2014-11-16T10:50:19Z</time>
      </trkpt>
      <trkpt lat="43.56413" lon="2.19713">
        <ele>260.65</ele>
        <time>2014-11-16T10:50:22Z</time>
      </trkpt>
      <trkpt lat="43.56403" lon="2.19723">
        <ele>260.65</ele>
        <time>2014-11-16T10:50:25Z</time>
      </trkpt>
      <trkpt lat="43.56392" lon="2.19733">
        <ele>260.17</ele>
        <time>2014-11-16T10:50:28Z</time>
      </trkpt>
      <trkpt lat="43.5638" lon="2.19746">
        <ele>259.69</ele>
        <time>2014-11-16T10:50:31Z</time>
      </trkpt>
      <trkpt lat="43.56371" lon="2.19751">
        <ele>259.21</ele>
        <time>2014-11-16T10:50:33Z</time>
      </trkpt>
      <trkpt lat="43.56361" lon="2.1976">
        <ele>258.25</ele>
        <time>2014-11-16T10:50:35Z</time>
      </trkpt>
      <trkpt lat="43.56351" lon="2.19773">
        <ele>256.81</ele>
        <time>2014-11-16T10:50:37Z</time>
      </trkpt>
      <trkpt lat="43.5634" lon="2.19786">
        <ele>255.37</ele>
        <time>2014-11-16T10:50:39Z</time>
      </trkpt>
      <trkpt lat="43.56331" lon="2.19802">
        <ele>254.41</ele>
        <time>2014-11-16T10:50:41Z</time>
      </trkpt>
      <trkpt lat="43.56324" lon="2.1982">
        <ele>252.96</ele>
        <time>2014-11-16T10:50:43Z</time>
      </trkpt>
      <trkpt lat="43.56316" lon="2.19842">
        <ele>250.56</ele>
        <time>2014-11-16T10:50:45Z</time>
      </trkpt>
      <trkpt lat="43.5631" lon="2.19864">
        <ele>248.64</ele>
        <time>2014-11-16T10:50:47Z</time>
      </trkpt>
      <trkpt lat="43.56303" lon="2.19886">
        <ele>247.2</ele>
        <time>2014-11-16T10:50:49Z</time>
      </trkpt>
      <trkpt lat="43.56294" lon="2.19906">
        <ele>245.27</ele>
        <time>2014-11-16T10:50:51Z</time>
      </trkpt>
      <trkpt lat="43.56285" lon="2.19926">
        <ele>244.31</ele>
        <time>2014-11-16T10:50:53Z</time>
      </trkpt>
      <trkpt lat="43.56275" lon="2.19945">
        <ele>242.39</ele>
        <time>2014-11-16T10:50:55Z</time>
      </trkpt>
      <trkpt lat="43.56266" lon="2.19965">
        <ele>241.43</ele>
        <time>2014-11-16T10:50:57Z</time>
      </trkpt>
      <trkpt lat="43.56258" lon="2.19985">
        <ele>239.99</ele>
        <time>2014-11-16T10:50:59Z</time>
      </trkpt>
      <trkpt lat="43.56249" lon="2.20003">
        <ele>238.54</ele>
        <time>2014-11-16T10:51:01Z</time>
      </trkpt>
      <trkpt lat="43.56242" lon="2.20022">
        <ele>237.58</ele>
        <time>2014-11-16T10:51:03Z</time>
      </trkpt>
      <trkpt lat="43.56234" lon="2.2004">
        <ele>237.1</ele>
        <time>2014-11-16T10:51:05Z</time>
      </trkpt>
      <trkpt lat="43.56226" lon="2.20059">
        <ele>236.14</ele>
        <time>2014-11-16T10:51:07Z</time>
      </trkpt>
      <trkpt lat="43.56219" lon="2.20075">
        <ele>235.18</ele>
        <time>2014-11-16T10:51:09Z</time>
      </trkpt>
      <trkpt lat="43.56207" lon="2.20084">
        <ele>234.22</ele>
        <time>2014-11-16T10:51:11Z</time>
      </trkpt>
      <trkpt lat="43.56194" lon="2.20085">
        <ele>234.22</ele>
        <time>2014-11-16T10:51:13Z</time>
      </trkpt>
      <trkpt lat="43.5618" lon="2.20088">
        <ele>233.26</ele>
        <time>2014-11-16T10:51:15Z</time>
      </trkpt>
      <trkpt lat="43.56166" lon="2.20093">
        <ele>232.78</ele>
        <time>2014-11-16T10:51:17Z</time>
      </trkpt>
      <trkpt lat="43.56155" lon="2.20099">
        <ele>233.26</ele>
        <time>2014-11-16T10:51:19Z</time>
      </trkpt>
      <trkpt lat="43.56145" lon="2.20109">
        <ele>232.78</ele>
        <time>2014-11-16T10:51:21Z</time>
      </trkpt>
      <trkpt lat="43.56138" lon="2.20121">
        <ele>233.26</ele>
        <time>2014-11-16T10:51:44Z</time>
      </trkpt>
      <trkpt lat="43.56139" lon="2.20138">
        <ele>232.78</ele>
        <time>2014-11-16T10:51:49Z</time>
      </trkpt>
      <trkpt lat="43.56136" lon="2.20153">
        <ele>232.3</ele>
        <time>2014-11-16T10:51:52Z</time>
      </trkpt>
      <trkpt lat="43.56133" lon="2.2017">
        <ele>232.3</ele>
        <time>2014-11-16T10:51:55Z</time>
      </trkpt>
      <trkpt lat="43.56129" lon="2.20188">
        <ele>231.81</ele>
        <time>2014-11-16T10:51:58Z</time>
      </trkpt>
      <trkpt lat="43.56126" lon="2.20201">
        <ele>231.81</ele>
        <time>2014-11-16T10:52:00Z</time>
      </trkpt>
      <trkpt lat="43.56123" lon="2.20214">
        <ele>231.33</ele>
        <time>2014-11-16T10:52:02Z</time>
      </trkpt>
      <trkpt lat="43.56118" lon="2.20227">
        <ele>231.33</ele>
        <time>2014-11-16T10:52:04Z</time>
      </trkpt>
      <trkpt lat="43.56113" lon="2.20239">
        <ele>231.33</ele>
        <time>2014-11-16T10:52:06Z</time>
      </trkpt>
      <trkpt lat="43.56108" lon="2.20251">
        <ele>231.33</ele>
        <time>2014-11-16T10:52:08Z</time>
      </trkpt>
      <trkpt lat="43.56103" lon="2.20262">
        <ele>231.33</ele>
        <time>2014-11-16T10:52:10Z</time>
      </trkpt>
      <trkpt lat="43.56098" lon="2.20273">
        <ele>231.33</ele>
        <time>2014-11-16T10:52:12Z</time>
      </trkpt>
      <trkpt lat="43.56092" lon="2.20284">
        <ele>231.33</ele>
        <time>2014-11-16T10:52:14Z</time>
      </trkpt>
      <trkpt lat="43.56087" lon="2.20296">
        <ele>231.33</ele>
        <time>2014-11-16T10:52:16Z</time>
      </trkpt>
      <trkpt lat="43.56082" lon="2.20308">
        <ele>230.85</ele>
        <time>2014-11-16T10:52:18Z</time>
      </trkpt>
      <trkpt lat="43.56076" lon="2.20321">
        <ele>229.89</ele>
        <time>2014-11-16T10:52:20Z</time>
      </trkpt>
      <trkpt lat="43.56069" lon="2.20335">
        <ele>229.41</ele>
        <time>2014-11-16T10:52:22Z</time>
      </trkpt>
      <trkpt lat="43.56061" lon="2.20351">
        <ele>227.97</ele>
        <time>2014-11-16T10:52:24Z</time>
      </trkpt>
      <trkpt lat="43.56054" lon="2.20367">
        <ele>227.01</ele>
        <time>2014-11-16T10:52:26Z</time>
      </trkpt>
      <trkpt lat="43.56046" lon="2.20383">
        <ele>226.05</ele>
        <time>2014-11-16T10:52:28Z</time>
      </trkpt>
      <trkpt lat="43.56038" lon="2.20398">
        <ele>227.01</ele>
        <time>2014-11-16T10:52:30Z</time>
      </trkpt>
      <trkpt lat="43.56029" lon="2.20414">
        <ele>225.09</ele>
        <time>2014-11-16T10:52:32Z</time>
      </trkpt>
      <trkpt lat="43.5602" lon="2.20426">
        <ele>225.09</ele>
        <time>2014-11-16T10:52:34Z</time>
      </trkpt>
      <trkpt lat="43.56009" lon="2.20438">
        <ele>224.61</ele>
        <time>2014-11-16T10:52:36Z</time>
      </trkpt>
      <trkpt lat="43.55997" lon="2.20449">
        <ele>224.12</ele>
        <time>2014-11-16T10:52:38Z</time>
      </trkpt>
      <trkpt lat="43.55986" lon="2.20461">
        <ele>223.16</ele>
        <time>2014-11-16T10:52:40Z</time>
      </trkpt>
      <trkpt lat="43.55973" lon="2.20474">
        <ele>222.68</ele>
        <time>2014-11-16T10:52:42Z</time>
      </trkpt>
      <trkpt lat="43.55961" lon="2.20491">
        <ele>221.72</ele>
        <time>2014-11-16T10:52:44Z</time>
      </trkpt>
      <trkpt lat="43.55956" lon="2.20501">
        <ele>221.24</ele>
        <time>2014-11-16T10:52:45Z</time>
      </trkpt>
      <trkpt lat="43.55952" lon="2.20513">
        <ele>220.28</ele>
        <time>2014-11-16T10:52:46Z</time>
      </trkpt>
      <trkpt lat="43.55946" lon="2.20536">
        <ele>218.36</ele>
        <time>2014-11-16T10:52:48Z</time>
      </trkpt>
      <trkpt lat="43.55938" lon="2.20553">
        <ele>217.88</ele>
        <time>2014-11-16T10:52:50Z</time>
      </trkpt>
      <trkpt lat="43.55926" lon="2.20557">
        <ele>218.36</ele>
        <time>2014-11-16T10:52:52Z</time>
      </trkpt>
      <trkpt lat="43.55913" lon="2.20557">
        <ele>218.36</ele>
        <time>2014-11-16T10:52:54Z</time>
      </trkpt>
      <trkpt lat="43.55901" lon="2.20556">
        <ele>218.84</ele>
        <time>2014-11-16T10:52:56Z</time>
      </trkpt>
      <trkpt lat="43.55887" lon="2.20552">
        <ele>218.84</ele>
        <time>2014-11-16T10:52:58Z</time>
      </trkpt>
      <trkpt lat="43.55872" lon="2.20543">
        <ele>217.4</ele>
        <time>2014-11-16T10:53:00Z</time>
      </trkpt>
      <trkpt lat="43.55865" lon="2.20536">
        <ele>216.91</ele>
        <time>2014-11-16T10:53:01Z</time>
      </trkpt>
      <trkpt lat="43.55857" lon="2.20528">
        <ele>215.95</ele>
        <time>2014-11-16T10:53:02Z</time>
      </trkpt>
      <trkpt lat="43.55849" lon="2.2052">
        <ele>214.99</ele>
        <time>2014-11-16T10:53:03Z</time>
      </trkpt>
      <trkpt lat="43.55839" lon="2.20515">
        <ele>213.55</ele>
        <time>2014-11-16T10:53:04Z</time>
      </trkpt>
      <trkpt lat="43.55827" lon="2.20514">
        <ele>211.63</ele>
        <time>2014-11-16T10:53:05Z</time>
      </trkpt>
      <trkpt lat="43.55816" lon="2.20517">
        <ele>209.7</ele>
        <time>2014-11-16T10:53:06Z</time>
      </trkpt>
      <trkpt lat="43.55804" lon="2.20521">
        <ele>207.78</ele>
        <time>2014-11-16T10:53:07Z</time>
      </trkpt>
      <trkpt lat="43.55791" lon="2.20526">
        <ele>205.86</ele>
        <time>2014-11-16T10:53:08Z</time>
      </trkpt>
      <trkpt lat="43.55778" lon="2.20531">
        <ele>204.9</ele>
        <time>2014-11-16T10:53:09Z</time>
      </trkpt>
      <trkpt lat="43.55765" lon="2.20536">
        <ele>203.46</ele>
        <time>2014-11-16T10:53:10Z</time>
      </trkpt>
      <trkpt lat="43.55752" lon="2.20541">
        <ele>202.01</ele>
        <time>2014-11-16T10:53:11Z</time>
      </trkpt>
      <trkpt lat="43.55739" lon="2.20546">
        <ele>200.57</ele>
        <time>2014-11-16T10:53:12Z</time>
      </trkpt>
      <trkpt lat="43.55726" lon="2.20551">
        <ele>198.65</ele>
        <time>2014-11-16T10:53:13Z</time>
      </trkpt>
      <trkpt lat="43.55713" lon="2.20556">
        <ele>197.69</ele>
        <time>2014-11-16T10:53:14Z</time>
      </trkpt>
      <trkpt lat="43.557" lon="2.20561">
        <ele>196.73</ele>
        <time>2014-11-16T10:53:15Z</time>
      </trkpt>
      <trkpt lat="43.55687" lon="2.20565">
        <ele>196.25</ele>
        <time>2014-11-16T10:53:16Z</time>
      </trkpt>
      <trkpt lat="43.55675" lon="2.20568">
        <ele>195.28</ele>
        <time>2014-11-16T10:53:17Z</time>
      </trkpt>
      <trkpt lat="43.55662" lon="2.20572">
        <ele>195.77</ele>
        <time>2014-11-16T10:53:18Z</time>
      </trkpt>
      <trkpt lat="43.5565" lon="2.20576">
        <ele>195.28</ele>
        <time>2014-11-16T10:53:19Z</time>
      </trkpt>
      <trkpt lat="43.55639" lon="2.2058">
        <ele>195.28</ele>
        <time>2014-11-16T10:53:20Z</time>
      </trkpt>
      <trkpt lat="43.55628" lon="2.20584">
        <ele>195.28</ele>
        <time>2014-11-16T10:53:21Z</time>
      </trkpt>
      <trkpt lat="43.55617" lon="2.20588">
        <ele>195.28</ele>
        <time>2014-11-16T10:53:22Z</time>
      </trkpt>
      <trkpt lat="43.55606" lon="2.20591">
        <ele>195.28</ele>
        <time>2014-11-16T10:53:23Z</time>
      </trkpt>
      <trkpt lat="43.55596" lon="2.20595">
        <ele>194.8</ele>
        <time>2014-11-16T10:53:24Z</time>
      </trkpt>
      <trkpt lat="43.55587" lon="2.20598">
        <ele>195.28</ele>
        <time>2014-11-16T10:53:25Z</time>
      </trkpt>
      <trkpt lat="43.55578" lon="2.20601">
        <ele>195.28</ele>
        <time>2014-11-16T10:53:26Z</time>
      </trkpt>
      <trkpt lat="43.55569" lon="2.20604">
        <ele>195.28</ele>
        <time>2014-11-16T10:53:27Z</time>
      </trkpt>
      <trkpt lat="43.5556" lon="2.20608">
        <ele>195.28</ele>
        <time>2014-11-16T10:53:28Z</time>
      </trkpt>
      <trkpt lat="43.55544" lon="2.20615">
        <ele>194.8</ele>
        <time>2014-11-16T10:53:30Z</time>
      </trkpt>
      <trkpt lat="43.55527" lon="2.20619">
        <ele>193.84</ele>
        <time>2014-11-16T10:53:32Z</time>
      </trkpt>
      <trkpt lat="43.55512" lon="2.20621">
        <ele>193.84</ele>
        <time>2014-11-16T10:53:34Z</time>
      </trkpt>
      <trkpt lat="43.55497" lon="2.20624">
        <ele>194.32</ele>
        <time>2014-11-16T10:53:36Z</time>
      </trkpt>
      <trkpt lat="43.55485" lon="2.20625">
        <ele>194.8</ele>
        <time>2014-11-16T10:53:38Z</time>
      </trkpt>
      <trkpt lat="43.55473" lon="2.20627">
        <ele>194.8</ele>
        <time>2014-11-16T10:53:40Z</time>
      </trkpt>
      <trkpt lat="43.55462" lon="2.20626">
        <ele>194.8</ele>
        <time>2014-11-16T10:53:42Z</time>
      </trkpt>
      <trkpt lat="43.55453" lon="2.20628">
        <ele>195.28</ele>
        <time>2014-11-16T10:53:45Z</time>
      </trkpt>
      <trkpt lat="43.55447" lon="2.20632">
        <ele>194.32</ele>
        <time>2014-11-16T10:54:11Z</time>
      </trkpt>
      <trkpt lat="43.55451" lon="2.20634">
        <ele>194.8</ele>
        <time>2014-11-16T10:54:16Z</time>
      </trkpt>
      <trkpt lat="43.55447" lon="2.20635">
        <ele>194.8</ele>
        <time>2014-11-16T10:54:36Z</time>
      </trkpt>
      <trkpt lat="43.5545" lon="2.20631">
        <ele>194.8</ele>
        <time>2014-11-16T10:54:48Z</time>
      </trkpt>
      <trkpt lat="43.5545" lon="2.20632">
        <ele>194.32</ele>
        <time>2014-11-16T10:58:04Z</time>
      </trkpt>
      <trkpt lat="43.55446" lon="2.20643">
        <ele>194.32</ele>
        <time>2014-11-16T10:58:13Z</time>
      </trkpt>
      <trkpt lat="43.55443" lon="2.20655">
        <ele>194.32</ele>
        <time>2014-11-16T10:58:17Z</time>
      </trkpt>
      <trkpt lat="43.55442" lon="2.20671">
        <ele>193.84</ele>
        <time>2014-11-16T10:58:22Z</time>
      </trkpt>
      <trkpt lat="43.55443" lon="2.20686">
        <ele>193.84</ele>
        <time>2014-11-16T10:58:26Z</time>
      </trkpt>
      <trkpt lat="43.55443" lon="2.207">
        <ele>194.32</ele>
        <time>2014-11-16T10:58:30Z</time>
      </trkpt>
      <trkpt lat="43.55449" lon="2.2071">
        <ele>194.8</ele>
        <time>2014-11-16T10:58:34Z</time>
      </trkpt>
      <trkpt lat="43.55458" lon="2.20718">
        <ele>195.28</ele>
        <time>2014-11-16T10:58:39Z</time>
      </trkpt>
      <trkpt lat="43.55466" lon="2.20726">
        <ele>195.28</ele>
        <time>2014-11-16T10:58:43Z</time>
      </trkpt>
      <trkpt lat="43.55473" lon="2.20733">
        <ele>195.28</ele>
        <time>2014-11-16T10:58:47Z</time>
      </trkpt>
      <trkpt lat="43.55483" lon="2.20734">
        <ele>195.77</ele>
        <time>2014-11-16T10:58:53Z</time>
      </trkpt>
    </trkseg>
  </trk>
</gpx>